[[{"header":{"parameterUnit":"m.s-1","parameterCategory":1,"la1":30.6,"la2":29.2853,"lo1":-89.7004,"lo2":-87.6739,"dy":0.0162,"dx":0.0183,"nx":112,"ny":82,"refTime":"2024-04-15T06:00:00:Z","depth":0,"parameterNumber":2,"parameterNumberName":"U-component_of_WINDS"},"data":[0.0,0.0,0.0,0.0,0.0,0.0,0.0,0.0,0.0,0.0,0.0,0.0,0.0,0.0,0.0,0.0,0.0,0.0,0.0,0.0,0.0,0.0,0.0,0.0,0.0,0.0,0.0,0.0,0.0,0.0,0.0,0.0,0.0,0.0,0.0,0.0,0.0,0.0,0.0,0.0,0.0,0.0,0.0,0.0,0.0,0.0,0.0,0.0,0.0,0.0,0.0,0.0,0.0,0.0,0.0,0.0,0.0,0.0,0.0,0.0,0.0,0.0,0.0,0.0,0.0,0.0,0.0,0.0,0.0,0.0,0.0,0.0,0.0,0.0,0.0,0.0,0.0,0.0,0.0,0.0,0.0,0.0,0.0,0.0,0.0,0.0,0.0,0.0,0.0,0.0,-3.6046,-3.8129,-4.1362,-4.3304,-4.3178,-4.2321,-4.0735,-3.8266,0.0,0.0,0.0,0.0,0.0,0.0,0.0,0.0,0.0,0.0,0.0,0.0,0.0,0.0,0.0,0.0,0.0,0.0,0.0,0.0,0.0,0.0,0.0,0.0,0.0,0.0,0.0,0.0,0.0,0.0,0.0,0.0,0.0,0.0,0.0,0.0,0.0,0.0,0.0,0.0,0.0,0.0,0.0,0.0,0.0,0.0,0.0,0.0,0.0,0.0,0.0,0.0,0.0,0.0,0.0,0.0,0.0,0.0,0.0,0.0,0.0,0.0,0.0,0.0,0.0,0.0,0.0,0.0,0.0,0.0,0.0,0.0,0.0,0.0,0.0,0.0,0.0,0.0,0.0,0.0,0.0,0.0,0.0,0.0,0.0,0.0,0.0,0.0,0.0,0.0,0.0,0.0,0.0,0.0,0.0,0.0,0.0,0.0,0.0,0.0,0.0,0.0,0.0,0.0,-3.7551,-4.1795,-4.2832,-4.316,-4.2957,-4.1705,-3.9577,-3.6505,0.0,0.0,0.0,0.0,0.0,0.0,0.0,0.0,0.0,0.0,0.0,0.0,0.0,0.0,0.0,0.0,0.0,0.0,0.0,0.0,0.0,0.0,0.0,0.0,0.0,0.0,0.0,0.0,0.0,0.0,0.0,0.0,0.0,0.0,0.0,0.0,0.0,0.0,0.0,0.0,0.0,0.0,0.0,0.0,0.0,0.0,0.0,0.0,0.0,0.0,0.0,0.0,0.0,0.0,0.0,0.0,0.0,0.0,0.0,0.0,0.0,0.0,0.0,0.0,0.0,0.0,0.0,0.0,0.0,0.0,0.0,0.0,0.0,0.0,0.0,0.0,0.0,0.0,0.0,0.0,0.0,0.0,0.0,0.0,0.0,0.0,0.0,0.0,0.0,0.0,0.0,0.0,0.0,0.0,0.0,0.0,0.0,0.0,0.0,0.0,0.0,0.0,0.0,-3.6024,-3.9145,-4.2556,-4.2956,-4.2918,-4.2729,-4.172,-3.9896,-3.715,-3.4062,0.0,0.0,0.0,0.0,0.0,0.0,0.0,0.0,0.0,0.0,0.0,0.0,0.0,0.0,0.0,0.0,0.0,0.0,0.0,0.0,0.0,0.0,0.0,0.0,0.0,0.0,0.0,0.0,0.0,0.0,0.0,0.0,0.0,0.0,0.0,0.0,0.0,0.0,0.0,0.0,0.0,0.0,0.0,0.0,0.0,0.0,0.0,0.0,0.0,0.0,0.0,0.0,0.0,0.0,0.0,0.0,0.0,0.0,0.0,0.0,0.0,0.0,0.0,0.0,0.0,0.0,0.0,0.0,0.0,0.0,0.0,0.0,0.0,0.0,0.0,0.0,0.0,0.0,0.0,0.0,0.0,0.0,0.0,0.0,0.0,0.0,0.0,0.0,0.0,0.0,0.0,0.0,0.0,0.0,0.0,0.0,0.0,0.0,0.0,0.0,0.0,0.0,-3.8026,-4.0366,-4.253,-4.2727,-4.2707,-4.2609,-4.1351,-3.9571,-3.7214,-3.3418,0.0,0.0,0.0,0.0,0.0,0.0,0.0,0.0,0.0,0.0,0.0,0.0,0.0,0.0,0.0,0.0,0.0,0.0,0.0,0.0,0.0,0.0,0.0,0.0,0.0,0.0,0.0,0.0,0.0,0.0,0.0,0.0,0.0,0.0,0.0,0.0,0.0,0.0,0.0,0.0,0.0,0.0,0.0,0.0,0.0,0.0,0.0,0.0,0.0,0.0,0.0,0.0,0.0,0.0,0.0,0.0,0.0,0.0,0.0,0.0,0.0,0.0,0.0,0.0,0.0,0.0,0.0,0.0,0.0,0.0,0.0,0.0,0.0,0.0,0.0,0.0,0.0,0.0,0.0,0.0,0.0,0.0,0.0,0.0,0.0,0.0,0.0,0.0,0.0,0.0,0.0,0.0,0.0,0.0,0.0,0.0,0.0,0.0,0.0,0.0,0.0,0.0,-3.8309,-4.0833,-4.2449,-4.2609,-4.2609,-4.2609,-3.9859,-3.7142,-3.4715,-3.0886,0.0,0.0,0.0,0.0,0.0,0.0,0.0,0.0,0.0,0.0,0.0,0.0,0.0,0.0,0.0,0.0,0.0,0.0,0.0,0.0,0.0,0.0,0.0,0.0,0.0,0.0,0.0,0.0,0.0,0.0,0.0,0.0,0.0,0.0,0.0,0.0,0.0,0.0,0.0,0.0,0.0,0.0,0.0,0.0,0.0,0.0,0.0,0.0,0.0,0.0,0.0,0.0,0.0,0.0,0.0,0.0,0.0,0.0,0.0,0.0,0.0,0.0,0.0,0.0,0.0,0.0,0.0,0.0,0.0,0.0,0.0,0.0,0.0,0.0,0.0,0.0,0.0,0.0,0.0,0.0,0.0,0.0,0.0,0.0,0.0,0.0,0.0,0.0,0.0,0.0,0.0,0.0,0.0,0.0,0.0,0.0,0.0,0.0,0.0,0.0,0.0,0.0,-3.8618,-4.1251,-4.2418,-4.245,-4.2389,-4.2308,-4.0308,-3.7631,-3.4208,0.0,0.0,0.0,0.0,0.0,0.0,0.0,0.0,0.0,0.0,0.0,0.0,0.0,0.0,0.0,0.0,0.0,0.0,0.0,0.0,0.0,0.0,0.0,0.0,0.0,0.0,0.0,0.0,0.0,0.0,0.0,0.0,0.0,0.0,0.0,0.0,0.0,0.0,0.0,0.0,0.0,0.0,0.0,0.0,0.0,0.0,0.0,0.0,0.0,0.0,0.0,0.0,0.0,0.0,0.0,0.0,0.0,0.0,0.0,0.0,0.0,0.0,0.0,0.0,0.0,0.0,0.0,0.0,0.0,0.0,0.0,0.0,0.0,0.0,0.0,0.0,0.0,0.0,0.0,0.0,0.0,0.0,0.0,0.0,0.0,0.0,0.0,0.0,0.0,0.0,0.0,0.0,0.0,0.0,0.0,0.0,0.0,0.0,0.0,0.0,0.0,0.0,-3.5421,-3.8953,-4.166,-4.2292,-4.2287,-4.2184,-4.2079,-4.039,-3.778,-3.4005,0.0,0.0,0.0,0.0,0.0,0.0,0.0,0.0,0.0,0.0,0.0,0.0,0.0,0.0,0.0,0.0,0.0,0.0,0.0,0.0,0.0,0.0,0.0,0.0,0.0,0.0,0.0,0.0,0.0,0.0,0.0,0.0,0.0,0.0,0.0,0.0,0.0,0.0,0.0,0.0,0.0,0.0,0.0,0.0,0.0,0.0,0.0,0.0,0.0,0.0,0.0,0.0,0.0,0.0,0.0,0.0,0.0,0.0,0.0,0.0,0.0,0.0,0.0,0.0,0.0,0.0,0.0,0.0,0.0,0.0,0.0,0.0,0.0,0.0,0.0,0.0,0.0,0.0,0.0,0.0,0.0,0.0,0.0,0.0,0.0,0.0,0.0,0.0,0.0,0.0,0.0,0.0,0.0,0.0,0.0,0.0,0.0,0.0,0.0,0.0,0.0,0.0,-3.5393,-3.9323,-4.2121,-4.2121,-4.2121,-4.2079,-4.1987,-3.9808,-3.708,0.0,0.0,0.0,0.0,0.0,0.0,0.0,0.0,0.0,0.0,0.0,0.0,0.0,0.0,0.0,0.0,0.0,0.0,0.0,0.0,0.0,0.0,0.0,0.0,0.0,0.0,0.0,0.0,0.0,0.0,0.0,0.0,0.0,0.0,0.0,0.0,0.0,0.0,0.0,0.0,0.0,0.0,0.0,0.0,0.0,0.0,0.0,0.0,0.0,0.0,0.0,0.0,0.0,0.0,0.0,0.0,0.0,0.0,0.0,0.0,0.0,0.0,0.0,0.0,0.0,0.0,0.0,0.0,0.0,0.0,0.0,0.0,0.0,0.0,0.0,0.0,0.0,0.0,0.0,0.0,0.0,0.0,0.0,0.0,0.0,0.0,0.0,0.0,0.0,0.0,0.0,0.0,0.0,0.0,0.0,0.0,0.0,0.0,0.0,0.0,0.0,0.0,0.0,-3.5136,-3.9164,-4.203,-4.203,-4.203,-4.1945,-4.1749,-4.0531,-3.8409,-3.5165,0.0,0.0,0.0,0.0,0.0,0.0,0.0,0.0,0.0,0.0,0.0,0.0,0.0,0.0,0.0,0.0,0.0,0.0,0.0,0.0,0.0,0.0,0.0,0.0,0.0,0.0,0.0,0.0,0.0,0.0,0.0,0.0,0.0,0.0,0.0,0.0,0.0,0.0,0.0,0.0,0.0,0.0,0.0,0.0,0.0,0.0,0.0,0.0,0.0,0.0,0.0,0.0,0.0,0.0,0.0,0.0,0.0,0.0,0.0,0.0,0.0,0.0,0.0,0.0,0.0,0.0,0.0,0.0,0.0,0.0,0.0,0.0,0.0,0.0,0.0,0.0,0.0,0.0,0.0,0.0,0.0,0.0,0.0,0.0,0.0,0.0,0.0,0.0,0.0,0.0,0.0,0.0,0.0,0.0,0.0,0.0,0.0,0.0,0.0,0.0,0.0,0.0,-3.5049,-3.9065,-4.1902,-4.1858,-4.1837,-4.1714,-4.1436,-4.0993,-3.9495,-3.6568,0.0,0.0,0.0,0.0,0.0,0.0,0.0,0.0,0.0,0.0,0.0,0.0,0.0,0.0,0.0,0.0,0.0,0.0,0.0,0.0,0.0,0.0,0.0,0.0,0.0,0.0,0.0,0.0,0.0,0.0,0.0,0.0,0.0,0.0,0.0,0.0,0.0,0.0,0.0,0.0,0.0,0.0,0.0,0.0,0.0,0.0,0.0,0.0,0.0,0.0,0.0,0.0,0.0,0.0,0.0,0.0,0.0,0.0,0.0,0.0,0.0,0.0,0.0,0.0,0.0,0.0,0.0,0.0,0.0,0.0,0.0,0.0,0.0,0.0,0.0,0.0,0.0,0.0,0.0,0.0,0.0,0.0,0.0,0.0,0.0,0.0,0.0,0.0,0.0,0.0,0.0,0.0,0.0,0.0,0.0,0.0,0.0,0.0,0.0,0.0,0.0,0.0,-3.5066,-3.8984,-4.1692,-4.1604,-4.1582,-4.1471,-4.1186,-4.1186,-4.0214,-3.8023,0.0,0.0,0.0,0.0,0.0,0.0,0.0,0.0,0.0,0.0,0.0,0.0,0.0,0.0,0.0,0.0,0.0,0.0,0.0,0.0,0.0,0.0,0.0,0.0,0.0,0.0,0.0,0.0,0.0,0.0,0.0,0.0,0.0,0.0,0.0,0.0,0.0,0.0,0.0,0.0,0.0,0.0,0.0,0.0,0.0,0.0,0.0,0.0,0.0,0.0,0.0,0.0,0.0,0.0,0.0,0.0,0.0,0.0,0.0,0.0,-3.4913,-3.3487,0.0,0.0,0.0,0.0,0.0,0.0,0.0,0.0,0.0,0.0,0.0,0.0,0.0,0.0,0.0,0.0,0.0,0.0,0.0,0.0,0.0,0.0,0.0,0.0,0.0,0.0,0.0,0.0,0.0,0.0,0.0,0.0,0.0,0.0,0.0,0.0,0.0,0.0,0.0,0.0,-3.4723,-3.858,-4.1346,-4.1426,-4.1323,-4.1186,-4.0989,-4.0965,-4.0422,-3.9123,-3.7109,0.0,0.0,0.0,0.0,0.0,0.0,0.0,0.0,0.0,0.0,0.0,0.0,0.0,0.0,0.0,0.0,0.0,0.0,0.0,0.0,0.0,0.0,0.0,0.0,0.0,0.0,0.0,0.0,0.0,0.0,0.0,0.0,0.0,0.0,0.0,0.0,0.0,0.0,0.0,0.0,0.0,0.0,0.0,0.0,0.0,0.0,0.0,0.0,0.0,0.0,0.0,0.0,0.0,0.0,0.0,0.0,0.0,0.0,0.0,-3.6818,-3.5317,0.0,0.0,0.0,0.0,0.0,0.0,0.0,0.0,0.0,0.0,0.0,0.0,0.0,0.0,0.0,0.0,0.0,0.0,0.0,0.0,0.0,0.0,0.0,0.0,0.0,0.0,0.0,0.0,0.0,0.0,0.0,0.0,0.0,0.0,0.0,0.0,0.0,0.0,0.0,0.0,-3.4501,-3.8432,-4.1209,-4.1244,-4.1129,-4.0989,-4.0799,-4.0728,-4.0484,-3.9963,-3.814,0.0,0.0,0.0,0.0,0.0,0.0,0.0,0.0,0.0,0.0,0.0,0.0,0.0,0.0,0.0,0.0,0.0,0.0,0.0,0.0,0.0,0.0,0.0,0.0,0.0,0.0,0.0,0.0,0.0,0.0,0.0,0.0,0.0,0.0,0.0,0.0,0.0,0.0,0.0,0.0,0.0,0.0,0.0,0.0,0.0,0.0,0.0,0.0,0.0,0.0,0.0,0.0,0.0,-4.0657,-4.0878,-4.1755,-4.1587,-4.1255,-4.0627,-3.8388,-3.6865,-3.5856,-3.4533,0.0,0.0,0.0,0.0,0.0,0.0,0.0,0.0,0.0,0.0,0.0,0.0,0.0,0.0,0.0,0.0,0.0,0.0,0.0,0.0,0.0,0.0,0.0,0.0,-3.5324,-3.5869,-3.2789,0.0,0.0,0.0,0.0,0.0,0.0,0.0,0.0,0.0,0.0,0.0,-3.4523,-3.8395,-4.1105,-4.107,-4.0953,-4.0799,-4.0631,-4.051,-4.0436,-4.0436,-3.9092,-3.7774,0.0,0.0,0.0,0.0,0.0,0.0,0.0,0.0,0.0,0.0,0.0,0.0,0.0,0.0,0.0,0.0,0.0,0.0,0.0,0.0,0.0,0.0,0.0,0.0,0.0,0.0,0.0,0.0,0.0,0.0,0.0,0.0,-3.674,-3.7259,0.0,0.0,0.0,0.0,0.0,0.0,0.0,0.0,0.0,0.0,0.0,0.0,0.0,-4.0267,-3.9941,-4.0751,-4.1097,-4.1029,-4.0943,-4.0976,-4.1103,-4.0925,-4.0893,-4.0939,-4.0398,0.0,-3.7902,-3.7576,0.0,0.0,0.0,0.0,0.0,0.0,0.0,0.0,0.0,0.0,0.0,0.0,0.0,0.0,0.0,0.0,0.0,0.0,0.0,0.0,0.0,0.0,-3.437,-3.5643,-3.6161,-3.6267,0.0,-3.4561,-3.3462,-3.3748,-3.2212,0.0,0.0,0.0,0.0,0.0,0.0,0.0,-3.4999,-3.8434,-4.0799,-4.0894,-4.0834,-4.0607,-4.0362,-4.0238,-4.0163,-4.0163,-3.926,-3.8695,-3.8614,-3.7318,0.0,0.0,0.0,0.0,0.0,0.0,0.0,0.0,0.0,0.0,0.0,0.0,0.0,0.0,0.0,0.0,0.0,0.0,0.0,0.0,0.0,0.0,0.0,0.0,0.0,0.0,0.0,0.0,0.0,-3.7817,-3.8647,-3.908,-3.8384,-3.7849,0.0,0.0,0.0,0.0,0.0,0.0,0.0,0.0,0.0,-3.9797,-4.0861,-4.1539,-4.1763,-4.2091,-4.2422,-4.2818,-4.2304,-4.2108,-4.2166,-4.2073,-4.2073,-4.2166,-4.2015,-4.1262,-4.0099,-3.9391,-3.8635,-3.7695,0.0,0.0,0.0,0.0,-3.1451,-3.1779,-3.2108,-3.2639,-3.3264,-3.3615,0.0,0.0,0.0,0.0,0.0,0.0,0.0,0.0,0.0,0.0,-3.5969,-3.6697,-3.7177,-3.7524,-3.7682,-3.6764,-3.5885,0.0,-3.5108,-3.4164,-3.3026,0.0,0.0,0.0,0.0,-3.5749,-3.6208,-3.8791,-4.0607,-4.068,-4.0558,-4.0387,-4.0213,-4.0062,-3.9961,-3.9884,-3.9135,-3.8707,-3.8782,-3.786,-3.6264,0.0,0.0,0.0,0.0,0.0,0.0,0.0,0.0,0.0,0.0,0.0,0.0,0.0,0.0,0.0,0.0,0.0,0.0,0.0,0.0,0.0,0.0,0.0,0.0,0.0,0.0,0.0,0.0,-3.9101,-3.9768,-4.0342,-3.9896,-3.9385,0.0,0.0,0.0,0.0,0.0,0.0,-4.02,-4.0456,-4.0766,-4.1128,-4.2091,-4.2886,-4.3577,-4.3516,-4.3745,-4.4362,-4.3714,-4.3453,-4.3546,-4.335,-4.3252,-4.3221,-4.2934,-4.2452,-4.1713,-4.0691,-3.9776,-3.8999,-3.7671,-3.6586,-3.5629,-3.4861,-3.4829,-3.5129,-3.5596,-3.6234,-3.6934,-3.7367,-3.7264,-3.6631,-3.4917,0.0,0.0,0.0,0.0,-3.3584,-3.4426,-3.5868,-3.7178,-3.7478,-3.8019,-3.8436,-3.8548,-3.8126,-3.7617,0.0,-3.7118,-3.6638,-3.5331,0.0,0.0,0.0,-3.5419,-3.6852,-3.724,-3.9092,-4.0412,-4.0436,-4.0337,-4.0188,-4.0011,-3.9833,-3.9703,-3.9599,-3.9046,-3.872,-3.8772,-3.8162,-3.6922,-3.4964,0.0,0.0,0.0,0.0,0.0,0.0,0.0,0.0,0.0,0.0,0.0,0.0,0.0,0.0,0.0,0.0,0.0,0.0,0.0,0.0,0.0,0.0,0.0,0.0,0.0,0.0,0.0,0.0,0.0,-4.0518,-4.0266,0.0,0.0,0.0,0.0,-4.0073,-3.95,-4.0105,-4.2384,-4.1837,-4.2221,-4.3932,-4.4063,-4.4329,-4.4886,-4.4886,-4.4854,-4.4755,-4.4723,-4.4723,-4.4691,-4.401,-4.3686,-4.3622,-4.2941,-4.2523,-4.23,-4.1559,-4.0696,-3.987,-3.907,-3.8718,-3.8619,-3.8091,-3.7472,-3.7146,-3.8613,-3.8653,-3.8248,-3.9658,-3.9058,-3.7508,-3.5763,-3.4813,0.0,0.0,-3.475,-3.4786,-3.629,-3.6878,-3.7307,-3.8153,-3.8375,-3.8408,-3.8408,-3.8375,-3.82,0.0,-3.7085,-3.6448,-3.5877,0.0,-3.4873,-3.5005,-3.5756,-3.6693,-3.7729,-3.9165,-4.0163,-4.0288,-4.0188,-4.0011,-3.9755,-3.9468,-3.9309,-3.9249,-3.9082,-3.9055,-3.9156,-3.8617,-3.7902,-3.717,-3.6558,0.0,0.0,0.0,0.0,0.0,0.0,0.0,0.0,0.0,0.0,0.0,0.0,0.0,0.0,0.0,0.0,0.0,0.0,0.0,0.0,0.0,0.0,0.0,0.0,0.0,0.0,0.0,0.0,-4.2579,-4.2364,0.0,-4.0833,-4.1342,-4.1629,-4.1247,-4.1821,-4.2588,-4.3554,-4.3262,-4.3425,-4.4301,-4.4268,-4.4624,-4.5535,-4.5081,-4.508,-4.5435,-4.5014,-4.4787,-4.4787,-4.4397,-4.4009,-4.3654,-4.3073,-4.2558,-4.2174,-4.1661,-4.1183,-4.067,-4.0415,-4.0031,-3.9583,-3.939,-3.8814,-3.8304,-3.9535,-3.9317,-3.8565,-3.9106,-3.8826,-3.7979,-3.6353,-3.5726,-3.5474,-3.5143,-3.538,-3.5862,-3.6394,-3.71,-3.7716,-3.803,-3.818,-3.8266,-3.8266,-3.8266,-3.8226,-3.8163,-3.8013,-3.7861,-3.7761,-3.7604,-3.7595,-3.791,-3.8161,-3.853,-3.9001,-3.9496,-3.9858,-3.991,-3.9781,-3.9625,-3.9441,-3.9228,-3.8671,-3.7636,-3.8486,-3.8638,-3.776,-3.8598,-3.8225,-3.639,-3.6279,-3.4762,0.0,0.0,0.0,0.0,0.0,0.0,0.0,0.0,0.0,0.0,0.0,0.0,0.0,0.0,0.0,0.0,0.0,0.0,0.0,0.0,0.0,0.0,0.0,0.0,0.0,-4.1801,-4.2687,-4.3522,-4.3417,-4.2925,-4.2145,-4.2692,-4.2916,-4.2459,-4.3091,-4.37,-4.4095,-4.3801,-4.3976,-4.4677,-4.4383,-4.4839,-4.6147,-4.5467,-4.55,-4.618,-4.5726,-4.55,-4.55,-4.5107,-4.4591,-4.4042,-4.3458,-4.2749,-4.2077,-4.1851,-4.1564,-4.1215,-4.0928,-4.0388,-3.9659,-3.9375,-3.8806,-3.8299,-3.9588,-3.9907,-3.9721,-3.9374,-3.9218,-3.8935,-3.7495,-3.7059,-3.6965,-3.6377,-3.6715,-3.73,-3.7419,-3.7816,-3.8182,-3.824,-3.8168,-3.8059,-3.7801,-3.793,-3.8055,-3.7971,-3.8047,-3.8284,-3.8678,-3.8652,-3.8776,-3.9195,-3.9369,-3.9475,-3.9547,-3.9599,-3.9651,-3.9703,-3.9606,-3.9422,-3.9202,-3.8552,-3.7675,-3.6541,-3.7383,-3.7306,-3.5946,-3.7498,-3.7287,-3.4964,-3.515,-3.3951,-3.1364,0.0,0.0,0.0,0.0,0.0,0.0,0.0,0.0,0.0,0.0,0.0,0.0,0.0,0.0,0.0,0.0,0.0,0.0,0.0,0.0,0.0,0.0,0.0,-4.2237,-4.2012,-4.2157,-4.3235,-4.3247,-4.2998,-4.2669,-4.2926,-4.3278,-4.3599,-4.3154,-4.3206,-4.4071,-4.3483,-4.3776,-4.5243,-4.4603,-4.5096,-4.6828,-4.618,-4.618,-4.6927,-4.686,-4.686,-4.6894,-4.6115,-4.5403,-4.4755,-4.3978,-4.3073,-4.2109,-4.2077,-4.1883,-4.1525,-4.0668,-3.9846,-3.906,-3.8214,-3.7592,-3.7372,-3.8999,-4.0579,-4.169,-4.0637,-4.0417,-4.0323,-3.915,-3.8867,-3.8933,-3.8772,-3.8805,-3.8997,-3.9314,-3.9025,-3.87,-3.8912,-3.84,-3.7729,-3.7054,-3.7438,-3.7754,-3.7251,-3.7229,-3.7561,-3.8446,-3.8155,-3.8062,-3.869,-3.9094,0.0,-3.9315,-3.9422,-3.952,-3.9651,-3.9547,-3.9335,-3.904,-3.7484,-3.643,-3.6136,-3.5974,-3.5305,-3.4027,-3.5473,-3.5344,-3.3299,-3.3321,-3.2625,-3.1085,0.0,0.0,0.0,0.0,0.0,0.0,0.0,0.0,0.0,0.0,0.0,0.0,0.0,0.0,0.0,0.0,0.0,0.0,0.0,0.0,0.0,-4.0515,-4.1525,-4.2321,-4.3028,-4.3756,-4.4554,-4.4501,-4.4167,-4.3592,-4.4074,-4.4192,-4.3624,-4.3908,-4.4223,-4.4445,-4.4297,-4.4382,-4.4858,-4.5211,-4.5623,-4.6115,-4.6407,-4.6767,-4.7098,-4.634,-4.6372,-4.7066,-4.5395,-4.4683,-4.4755,-4.3618,-4.2717,-4.2077,-4.1851,-4.1687,-4.1557,-4.1334,-4.1112,-4.089,-4.0636,-4.0576,-4.0546,-4.0356,-4.0642,-4.0928,-3.9913,-3.9597,-3.9471,-3.8339,-3.8057,-3.7996,-3.7311,-3.7219,-3.7281,-3.7028,-3.7363,-3.7761,-3.7914,-3.7814,-3.7711,-3.752,-3.7616,-3.7799,-3.7894,-3.75,-3.7483,-3.8446,-3.8497,-3.8515,-3.8898,-3.904,0.0,-3.9288,-3.9202,-3.9148,-3.9202,-3.8985,-3.8826,-3.8711,-3.8186,-3.7426,-3.6314,-3.7242,-3.7199,-3.5825,-3.7258,-3.6998,-3.4695,-3.3161,-3.188,0.0,0.0,0.0,0.0,0.0,0.0,0.0,0.0,0.0,0.0,0.0,0.0,0.0,0.0,0.0,0.0,0.0,0.0,0.0,0.0,0.0,0.0,-4.1425,-4.2285,-4.2868,-4.35,-4.4136,-4.4849,-4.4867,-4.4606,-4.4236,-4.4545,-4.4569,-4.4055,-4.4394,-4.4685,-4.4836,-4.4836,-4.4861,-4.4855,-4.5341,-4.5623,-4.5722,-4.6211,-4.6669,-4.7064,-4.6437,-4.6435,-4.6929,-4.5524,-4.4974,-4.5043,-4.3745,-4.2909,-4.2493,-4.1945,-4.1654,0.0,0.0,0.0,0.0,0.0,-4.0321,-4.0703,-4.0512,-4.0767,-4.1022,-4.0353,-4.0006,-3.9691,-3.89,-3.8557,-3.8309,-3.781,-3.7935,-3.8153,-3.7996,-3.8087,-3.8302,-3.8333,-3.7981,-3.7533,-3.7218,-3.7406,-3.7621,-3.7652,-3.7548,0.0,-3.8367,-3.8316,-3.8269,-3.8706,-3.8849,-3.8958,-3.9018,-3.8958,-3.8931,-3.8931,-3.8794,-3.8655,-3.8604,-3.7885,0.0,0.0,0.0,-3.692,-3.6136,-3.6465,0.0,0.0,0.0,-3.2555,-3.2031,0.0,0.0,0.0,-3.0826,-3.109,0.0,0.0,0.0,0.0,0.0,0.0,0.0,0.0,0.0,0.0,0.0,0.0,0.0,0.0,0.0,0.0,-4.2479,-4.3354,-4.3661,-4.3716,-4.3932,-4.4548,-4.461,-4.461,-4.461,-4.461,-4.461,-4.461,-4.4648,-4.4836,-4.5173,-4.5247,0.0,0.0,0.0,-4.5477,-4.5619,-4.5819,-4.6245,-4.6927,-4.6795,-4.6726,-4.662,-4.5948,-4.5593,-4.5425,-4.4071,-4.333,-4.3005,-4.2234,-4.1784,-4.1558,-4.0762,-4.0003,-3.9311,-3.8496,-3.8746,-3.95,-4.0193,0.0,0.0,-4.1105,-4.0731,-4.0228,-3.9872,-3.9466,-3.9093,-3.9031,-3.9438,-3.9909,-4.0039,-3.9629,-3.9219,-3.925,-3.8365,-3.7322,-3.669,-3.7038,-3.7408,-3.7061,-3.7473,-3.7976,-3.8323,-3.7968,-3.7796,-3.8339,-3.8628,-3.8738,-3.866,-3.8711,-3.8794,-3.8794,0.0,0.0,-3.8604,-3.7214,-3.6254,-3.6053,-3.584,-3.5728,-3.5896,-3.4798,-3.4122,-3.4058,-3.4182,-3.4163,-3.4002,-3.4129,-3.4173,-3.4068,-3.2982,-3.3237,0.0,0.0,0.0,0.0,0.0,0.0,0.0,0.0,0.0,0.0,0.0,0.0,0.0,0.0,0.0,-4.175,-4.2368,-4.3142,-4.424,-4.4425,-4.4456,-4.461,-4.461,-4.461,-4.461,-4.461,-4.461,-4.461,-4.4911,-4.5136,-4.521,-4.5505,-4.548,-4.5031,-4.5716,-4.5958,-4.5584,-4.6338,-4.6866,-4.7132,0.0,0.0,-4.7032,-4.5464,-4.4816,-4.4883,-4.3748,-4.2878,-4.2269,-4.2011,-4.1881,-4.1817,-4.1495,-4.1238,-4.1112,-4.0953,-4.0985,-4.1144,-4.1303,-4.0638,-3.9723,-3.9691,-3.9125,-3.8435,-3.8214,-3.812,0.0,-3.7375,-3.7219,-3.7157,-3.6936,-3.7184,-3.7496,-3.7617,-3.7548,-3.7478,-3.732,-3.7415,-3.7508,-3.7526,-3.7767,-3.7947,-3.8209,-3.8222,-3.8298,-3.8516,-3.8632,-3.8655,-3.8766,-3.8683,-3.8628,-3.8628,-3.8516,-3.8492,-3.8436,-3.8036,-3.779,-3.7733,-3.7534,-3.7505,-3.7676,-3.7306,-3.6834,-3.6286,-3.6313,-3.5705,-3.4558,-3.4748,-3.4555,-3.4101,-3.3958,-3.4137,0.0,0.0,0.0,0.0,0.0,0.0,0.0,0.0,0.0,0.0,0.0,-3.9811,-4.0466,0.0,-4.1952,-4.2633,-4.3125,-4.3721,-4.4479,-4.461,-4.461,-4.461,-4.461,-4.461,-4.461,-4.461,-4.4685,-4.4874,-4.5098,-4.5358,-4.5728,-4.5945,-4.5769,-4.517,-4.6089,-4.6226,-4.5482,-4.6399,-4.6961,-4.703,-4.6502,-4.6306,-4.6376,-4.5173,-4.4655,-4.4591,-4.3331,-4.2783,-4.2751,-4.2139,-4.1914,-4.1881,-4.1654,-4.1588,-4.1588,-4.1588,-4.1588,-4.1588,-4.1489,-4.0795,-3.9912,-3.9623,-3.8935,-3.8091,-3.7809,-3.7561,-3.7375,-3.7375,-3.7561,-3.7685,-3.7561,-3.781,-3.809,-3.7806,-3.7643,-3.751,-3.751,-3.751,-3.7569,-3.7775,-3.7831,-3.7976,-3.8266,-3.8294,-3.8351,-3.8492,-3.852,-3.8516,-3.86,-3.846,-3.8408,-3.8408,-3.8351,-3.8294,-3.8294,-3.8151,-3.8008,-3.7863,-3.7775,-3.7746,-3.7863,-3.7775,-3.7526,-3.7236,-3.6883,-3.6458,-3.5778,-3.5621,-3.5207,-3.4651,-3.4803,-3.4904,0.0,0.0,0.0,0.0,0.0,0.0,0.0,-3.8162,-3.8378,-3.9082,-3.9821,-4.0527,-4.1265,-4.2193,-4.2985,-4.3376,-4.3829,-4.422,-4.4572,-4.461,-4.4572,-4.4534,-4.4572,-4.461,-4.461,-4.4648,-4.4836,-4.5173,-4.5358,-4.5656,-4.6266,-4.6337,-4.6115,-4.5571,-4.6394,-4.6429,-4.5571,-4.6463,-4.6892,-4.6892,-4.673,-4.6306,-4.562,-4.5045,-4.4657,-4.4265,-4.2977,-4.2719,-4.3202,-4.2267,-4.1914,-4.1915,-4.1687,-4.1588,-4.1588,-4.1588,-4.1588,-4.1588,-4.1423,-4.0919,-4.0227,-3.9805,-3.8901,-3.7872,-3.7623,-3.7219,-3.7032,-3.7561,-3.8121,-3.8526,-3.8558,-3.8685,-3.8717,-3.8184,-3.777,-3.751,-3.751,-3.751,-3.7569,-3.7804,-3.7831,-3.7979,-3.8266,-3.8266,-3.8237,-3.8351,-3.8351,-3.8323,-3.8323,-3.8209,-3.8151,-3.8151,-3.818,-3.8144,-3.8015,-3.7684,-3.7482,-3.7377,-3.7318,-3.7352,-3.7569,-3.7539,-3.751,-3.7539,-3.7028,-3.6794,-3.6866,-3.6341,-3.5835,-3.5318,-3.5467,-3.5505,-3.3943,-3.4999,-3.6424,-3.7317,-3.7571,-3.7742,0.0,-3.8372,-3.8627,-3.9607,-4.0487,-4.1265,-4.1931,-4.2206,-4.2511,-4.3203,-4.3387,-4.3669,-4.451,-4.461,-4.4534,-4.4343,-4.4496,-4.461,-4.461,-4.4911,-4.5173,-4.521,-4.5801,-4.623,-4.6301,-4.6477,-4.6515,-4.6451,-4.6585,-4.6585,-4.6451,-4.6724,-4.6892,-4.6894,-4.6245,-4.5888,-4.5758,-4.5111,-4.4431,-4.3751,-4.2783,-4.2461,-4.2494,-4.2044,-4.198,-4.2045,-4.172,-4.1588,-4.1588,-4.1588,-4.1588,-4.1588,-4.1588,-4.0572,-3.9279,-3.9344,-3.8122,-3.6724,-3.6786,-3.6693,-3.66,-3.6786,-3.6817,-3.6816,-3.6909,-3.7126,-3.7248,-3.7186,-3.7334,-3.751,-3.751,-3.751,-3.751,-3.7539,-3.7658,-3.7743,-3.7918,-3.8094,-3.8209,-3.8237,-3.8094,-3.7947,-3.7947,-3.7918,-3.7918,-3.7918,-3.8094,-3.7951,-3.7279,-3.6497,-3.629,-3.693,-3.6676,-3.6904,-3.7831,-3.7628,-3.7569,-3.7687,-3.7474,-3.7126,-3.6607,-3.6572,-3.6242,-3.5764,-3.5969,-3.5909,-3.5268,-3.6339,-3.7382,-3.7346,-3.7791,-3.8392,-3.9032,-3.9121,-3.9299,-4.0248,-4.098,-4.1632,-4.2016,-4.2522,-4.3037,-4.3579,-4.3716,-4.3922,-4.4503,-4.4496,-4.4381,-4.4335,-4.4458,-4.4496,-4.4297,-4.5024,-4.5505,-4.5326,-4.5945,-4.6407,-4.6617,-4.6617,-4.6547,-4.6439,-4.6512,-4.6547,-4.6439,-4.6754,-4.6892,-4.6892,-4.6568,-4.6018,-4.5208,-4.4917,-4.4172,-4.3039,-4.2622,-4.2429,-4.246,-4.2045,-4.198,-4.2077,-4.172,-4.1588,-4.1588,-4.1588,-4.1588,-4.1588,-4.1456,-4.0793,-3.9879,-3.9216,-3.8277,-3.7281,-3.6755,-3.6538,-3.66,-3.7032,-3.7187,-3.7187,-3.7156,-3.7437,-3.759,-3.7093,-3.7241,-3.751,-3.751,-3.751,-3.751,-3.7599,-3.7658,-3.7746,-3.786,-3.7921,-3.7921,-3.7921,-3.8008,-3.8004,-3.7918,-3.7831,-3.7772,-3.7772,-3.7448,-3.7121,-3.6834,-3.6111,-3.5959,-3.6575,-3.6495,-3.6782,-3.7626,-3.7569,-3.7539,-3.7599,-3.7539,-3.744,-3.7387,-3.7387,-3.7118,-3.6695,-3.6961,-3.7012,-3.6425,-3.7365,-3.7965,-3.7511,-3.8153,-3.9098,-3.9756,-3.9806,-4.0011,-4.0851,-4.1391,-4.1814,-4.2307,-4.2882,-4.3409,-4.3832,-4.4026,-4.4181,-4.4381,-4.4343,-4.4228,-4.4143,-4.4496,-4.4496,-4.3871,-4.5024,-4.576,-4.566,-4.6092,-4.6512,-4.6791,-4.6617,-4.6474,-4.6298,-4.6439,-4.6442,-4.6404,-4.6719,-4.6892,-4.6892,-4.6666,-4.5953,-4.4787,-4.4366,-4.3589,-4.2523,-4.2429,-4.2397,-4.2429,-4.2045,-4.1947,-4.2045,-4.172,-4.1588,-4.1588,-4.1588,-4.1588,-4.1588,-4.1423,-4.1015,-4.0322,-3.9278,-3.8496,-3.7779,-3.6847,-3.6507,-3.6599,-3.7092,-3.731,-3.7404,-3.7247,-3.7561,-3.7715,-3.7154,-3.7211,-3.745,-3.748,-3.751,-3.7539,-3.7628,-3.7658,-3.7687,-3.7801,-3.7743,-3.7716,-3.7716,-3.7921,-3.8008,-3.7801,-3.7685,-3.7658,-3.7716,-3.7049,-3.6603,-3.666,-3.5836,-3.5625,-3.6489,-3.6276,-3.6532,-3.7537,-3.751,-3.751,-3.751,-3.751,-3.7628,-3.7831,-3.7833,-3.7662,-3.7459,-3.7536,-3.766,-3.7184,-3.7967,-3.8493,-3.8464,-3.9284,-4.0031,-4.006,-4.0246,-4.0617,-4.1489,-4.1676,-4.2041,-4.3061,-4.329,-4.3369,-4.3675,-4.4026,-4.4258,-4.4065,-4.4181,-4.4181,-4.3754,-4.4572,-4.4723,-4.3448,-4.4799,-4.5936,-4.6266,-4.6477,-4.6582,-4.6617,-4.6439,-4.6298,-4.6298,-4.6298,-4.6404,-4.6582,-4.6823,-4.6892,-4.6894,-4.618,-4.5467,-4.4755,-4.3298,-4.2588,-4.2429,-4.2397,-4.227,-4.2109,-4.1947,-4.1914,-4.1914,-4.1654,-4.1588,-4.1588,-4.1588,-4.1588,-4.1588,-4.1588,-4.1048,-4.0225,-3.9534,-3.8622,-3.7654,-3.694,-3.66,-3.6507,-3.6507,-3.6631,-3.6693,-3.6569,-3.6785,-3.703,-3.703,-3.7089,-3.727,-3.748,-3.751,-3.751,-3.751,-3.751,-3.7539,-3.7687,-3.7716,-3.7716,-3.7716,-3.7716,-3.7687,-3.7539,-3.751,-3.7569,-3.7687,-3.7051,-3.6664,-3.6862,-3.5418,-3.52,-3.6798,-3.5975,-3.6112,-3.7623,-3.7569,-3.751,-3.751,-3.751,-3.7569,-3.7716,-3.7569,-3.7626,-3.7886,-3.7487,-3.7384,-3.8025,-3.9291,-4.0188,-3.9188,-3.9867,-4.0797,-4.0927,-4.0916,-4.112,-4.1964,-4.2364,-4.2623,-4.286,-4.328,-4.3596,-4.3675,-4.3793,-4.391,-4.3988,-4.4065,-4.3988,-4.3714,-4.4258,-4.4496,-4.4189,-4.5473,-4.6088,-4.5551,-4.6301,-4.6722,-4.6617,-4.6512,-4.6439,-4.6298,-4.6439,-4.6512,-4.6582,-4.6791,-4.6892,-4.6894,-4.5694,-4.5014,-4.4755,-4.3266,-4.2523,-4.2365,-4.2238,-4.2142,-4.2077,-4.1785,-4.1784,-4.1881,-4.1654,-4.1588,-4.1588,-4.1588,-4.1588,-4.1588,-4.1588,-4.1398,-4.0953,-3.9595,-3.8934,-3.8401,-3.7002,-3.6569,-3.6507,-3.6507,-3.66,-3.6662,-3.6507,-3.6754,-3.6969,-3.6816,-3.7029,-3.7208,-3.73,-3.7389,-3.751,-3.751,-3.751,-3.751,-3.7569,-3.7569,-3.7599,-3.7687,-3.7628,-3.7569,-3.751,-3.751,-3.751,-3.7569,-3.6906,-3.6463,-3.6549,-3.5637,-3.551,-3.6518,-3.6273,-3.6529,-3.7537,-3.7539,-3.751,-3.751,-3.7599,-3.7658,-3.7716,-3.7892,-3.8008,-3.8091,-3.8228,-3.8319,-3.853,-3.9741,-4.0665,-3.9489,-3.9973,-4.0768,-4.0927,-4.1022,-4.1342,-4.2115,-4.2541,-4.285,-4.313,-4.3409,-4.3714,-4.3793,-4.391,-4.4026,-4.3988,-4.4065,-4.4026,-4.3832,-4.4181,-4.4381,-4.4381,-4.5473,-4.6017,-4.5551,-4.6266,-4.6649,-4.6509,-4.6547,-4.6509,-4.6259,-4.6474,-4.6582,-4.6582,-4.6791,-4.6892,-4.6894,-4.5726,-4.511,-4.5044,-4.3848,-4.3041,-4.2558,-4.2461,-4.2204,-4.1916,-4.1687,-4.1654,-4.1784,-4.1654,-4.1588,-4.1588,-4.1588,-4.1588,-4.1588,-4.1588,-4.1555,-4.1236,-3.9624,-3.9058,-3.865,-3.7001,-3.6507,-3.6507,-3.6507,-3.66,-3.6662,-3.6507,-3.6724,-3.6877,-3.6723,-3.6938,-3.7119,-3.7119,-3.73,-3.751,-3.7449,-3.748,-3.751,-3.7569,-3.7539,-3.751,-3.7508,-3.751,-3.751,-3.7569,-3.7539,-3.751,-3.751,-3.7069,-3.6785,-3.6785,-3.6153,-3.6058,-3.6753,-3.6535,-3.6753,-3.7478,-3.751,-3.751,-3.7569,-3.7658,-3.7775,-3.7892,-3.8036,-3.8151,-3.8294,-3.86,-3.8761,-3.8784,-3.9469,-4.0012,-3.946,-3.9751,-4.0147,-4.0205,-4.0699,-4.1336,-4.1962,-4.2275,-4.2758,-4.3793,-4.3762,-4.3723,-4.3949,-4.4305,-4.4419,-4.4065,-4.4181,-4.4258,-4.4026,-4.4374,-4.4419,-4.4065,-4.4874,-4.5687,-4.623,-4.6298,-4.6298,-4.6298,-4.6509,-4.6439,-4.6112,-4.6439,-4.6617,-4.6617,-4.6791,-4.6892,-4.6894,-4.6115,-4.569,-4.5586,-4.4812,-4.3872,-4.29,-4.29,-4.2419,-4.1588,-4.1588,-4.1588,-4.1588,-4.1588,-4.1588,-4.1588,-4.1588,-4.1588,-4.1588,-4.1588,-4.1489,-4.107,-3.9592,-3.8994,-3.8553,-3.697,-3.6538,-3.6507,-3.6507,-3.66,-3.6662,-3.6507,-3.66,-3.6693,-3.6693,-3.6877,-3.6999,-3.6969,-3.7271,-3.751,-3.7417,-3.7449,-3.7539,-3.7658,-3.7599,-3.745,-3.7238,-3.7359,-3.7539,-3.7687,-3.7599,-3.751,-3.751,-3.751,-3.751,-3.751,-3.6848,-3.6724,-3.7478,-3.6819,-3.6756,-3.7478,-3.751,-3.7569,-3.7716,-3.7716,-3.7892,-3.818,-3.8004,-3.8094,-3.8408,-3.8544,-3.8706,-3.9437,-3.9964,-4.0549,-4.1155,-4.1056,-4.096,-4.1384,-4.1808,-4.2076,-4.2006,-4.2691,-4.3329,-4.3448,-4.384,-4.4073,-4.4026,-4.4104,-4.4143,-4.4026,-4.4181,-4.4258,-4.4026,-4.4189,-4.4374,-4.4258,-4.4458,-4.4911,-4.5651,-4.5977,-4.6152,-4.6152,-4.6439,-4.6477,-4.6259,-4.6615,-4.6791,-4.6791,-4.6892,-4.6892,-4.686,-4.5495,-4.5103,-4.5552,-4.4163,-4.3291,-4.29,-4.29,-4.2419,-4.1588,-4.1588,-4.1588,-4.1588,-4.1588,-4.1588,-4.1588,-4.1588,-4.1588,-4.1588,-4.1588,-4.1555,-4.1269,-3.9754,-3.9123,-3.8745,-3.7157,-3.6569,-3.6507,-3.6507,-3.6507,-3.6538,-3.6538,-3.6507,-3.6538,-3.6538,-3.6785,-3.6969,-3.6785,-3.724,-3.7596,-3.7417,-3.7537,-3.7599,-3.7359,-3.7419,-3.748,-3.745,-3.748,-3.751,-3.7539,-3.751,-3.751,-3.751,-3.751,-3.751,-3.751,-3.7202,-3.714,-3.748,-3.7202,-3.714,-3.751,-3.751,-3.7569,-3.7716,-3.7772,-3.7889,-3.8008,-3.818,-3.8266,-3.8266,-3.8408,-3.8544,-3.9799,-3.9886,-4.0108,-4.0441,-4.0155,-3.9865,-4.0032,-4.0694,-4.1302,-4.1434,-4.2268,-4.3079,-4.3536,-4.3996,-4.4228,-4.4143,-4.422,-4.4258,-4.4143,-4.4305,-4.4381,-4.4297,-4.4297,-4.4297,-4.4297,-4.4297,-4.4572,-4.521,-4.5614,-4.5941,-4.6187,-4.6474,-4.6547,-4.6439,-4.6754,-4.6892,-4.6892,-4.6823,-4.6823,-4.6892,-4.581,-4.5511,-4.5864,-4.4603,-4.3888,-4.3654,0.0,-4.2542,-4.2031,-4.1715,-4.1588,-4.1588,-4.1588,-4.1588,-4.1588,-4.1588,-4.1588,-4.1588,-4.1588,-4.1588,-4.1366,-4.0132,-3.9405,-3.8744,-3.753,-3.6878,-3.6507,-3.6507,-3.6507,-3.6507,-3.6507,-3.6507,-3.6507,-3.6507,-3.6693,-3.6877,-3.6847,-3.721,-3.7567,-3.7537,-3.7655,-3.7655,-3.73,-3.7359,-3.748,-3.7359,-3.7359,-3.7389,-3.748,-3.751,-3.748,-3.7359,-3.745,-3.7421,-3.715,-3.7119,-3.7119,-3.715,-3.7119,-3.721,-3.748,-3.751,-3.7569,-3.7716,-3.7743,-3.786,-3.8004,-3.8237,-3.8323,-3.8294,-3.8379,-3.8492,-4.0009,-3.9608,-3.9436,-3.9064,-3.8638,-3.8224,-3.7965,-3.8925,-3.9989,-4.0539,-4.1331,-4.2315,-4.3598,-4.399,-4.4174,-4.4266,-4.4458,-4.4534,-4.4305,-4.4458,-4.461,-4.461,-4.4419,-4.4305,-4.4297,-4.4297,-4.4419,-4.4874,-4.521,-4.5651,-4.6191,-4.6439,-4.6582,-4.6617,-4.6823,-4.6892,-4.6858,-4.6687,-4.6652,-4.6823,-4.6247,-4.6103,-4.623,-4.5257,-4.4732,-4.4527,-4.3327,-4.2663,-4.2378,-4.181,-4.1525,-4.1462,-4.1557,-4.1588,-4.1588,-4.1555,-4.1588,-4.1588,-4.1555,-4.1555,-4.1396,-4.0572,-3.9654,-3.8709,-3.7995,-3.7188,-3.6507,-3.6507,-3.6476,-3.6445,-3.6383,-3.6352,-3.632,-3.6289,-3.6445,-3.6631,-3.6816,-3.7119,-3.7417,-3.7596,-3.7743,-3.7714,-3.727,-3.7359,-3.745,-3.7208,-3.7208,-3.73,-3.745,-3.748,-3.7389,-3.721,-3.7329,-3.7241,-3.6723,-3.6816,-3.6847,-3.6693,-3.6847,-3.706,-3.7361,-3.7391,-3.745,-3.7569,-3.7567,-3.7743,-3.8091,-3.8123,-3.8209,-3.8351,-3.8351,-3.8408,-4.0545,-4.0124,-3.9912,-4.0637,-3.989,-3.9062,-3.954,-3.9791,-3.991,-3.996,-4.052,-4.1406,-4.2711,-4.3099,-4.3472,-4.4174,-4.4458,-4.4534,-4.4305,-4.4458,-4.461,-4.461,-4.4572,-4.4458,-4.4335,-4.4143,-4.4297,-4.4874,-4.4918,-4.5216,-4.5828,-4.6156,-4.6509,-4.6858,-4.6892,-4.6823,-4.6652,-4.6617,-4.6512,-4.6404,-4.5046,-4.5005,-4.6084,-4.457,-4.3895,-4.3861,-4.3608,0.0,-4.0988,-4.1399,-4.1272,-4.083,-4.1203,-4.1456,-4.1588,-4.1423,-4.1456,-4.1588,-4.1423,-4.1357,-4.1231,-4.0507,-3.9718,-3.8901,-3.7995,-3.7156,-3.6507,-3.6507,-3.6289,-3.6068,-3.5879,-3.5623,-3.5397,-3.5234,-3.5625,-3.6038,-3.5943,-3.6631,-3.7238,-3.7268,-3.7537,-3.7599,-3.7121,-3.7301,-3.745,-3.7208,-3.7329,-3.7389,-3.727,-3.727,-3.721,-3.706,-3.706,-3.6938,-3.66,-3.6414,-3.6414,-3.6507,-3.6569,-3.6631,-3.6662,-3.6785,-3.6846,-3.6877,-3.6997,-3.7177,-3.7535,-3.7714,-3.7863,-3.7976,-3.7976,-3.7976,-4.0228,-3.9612,-3.9068,-3.9577,-3.9172,-3.8626,-3.8505,-3.8848,-3.9233,-3.9458,-3.9896,-4.066,-4.1939,-4.2458,-4.2938,-4.3797,-4.4112,-4.4266,-4.4297,-4.4458,-4.461,-4.461,-4.4496,-4.4343,-4.4181,-4.4065,-4.422,-4.4685,-4.4805,-4.5173,-4.5932,-4.6262,-4.6512,-4.6754,-4.6722,-4.6617,-4.6474,-4.6369,-4.6298,-4.6298,-4.538,-4.5338,-4.6048,-4.444,-4.3861,-4.418,-4.3105,-4.2252,-4.1683,-4.162,-4.1333,-4.0982,-4.1031,-4.1156,-4.1321,-4.1021,-4.1088,-4.1321,-4.0987,-4.0888,-4.0789,-4.0177,-3.9753,-3.9334,-3.8522,-3.7491,-3.6558,-3.6286,-3.5941,-3.5591,-3.5688,-3.5462,-3.5201,-3.5172,-3.5625,-3.6133,-3.6352,-3.6846,-3.7268,-3.7208,-3.7389,-3.7419,-3.706,-3.7211,-3.727,-3.7119,-3.7089,-3.7089,-3.7089,-3.7089,-3.709,-3.6999,-3.6999,-3.6877,-3.6538,-3.6414,-3.6383,-3.6476,-3.6507,-3.66,-3.6754,-3.6723,-3.6693,-3.6693,-3.6877,-3.7089,-3.7298,-3.7567,-3.7775,-3.7889,-3.7889,-3.786,-3.9872,-3.9103,-3.8478,-3.8173,-3.8062,-3.7923,-3.7349,-3.777,-3.8417,-3.8832,-3.9148,-3.9833,-4.1244,-4.1822,-4.2402,-4.3416,-4.3883,-4.4139,-4.422,-4.4504,-4.468,-4.4488,-4.4381,-4.4228,-4.3949,-4.3988,-4.4143,-4.4458,-4.4761,-4.5284,-4.6076,-4.6333,-4.6509,-4.6512,-4.6512,-4.6474,-4.6227,-4.6152,-4.6116,-4.6191,-4.5778,-4.5737,-4.5977,-4.4405,-4.405,-4.4591,-4.2663,-4.2062,-4.241,-4.1775,-4.1295,-4.0937,-4.0687,-4.078,-4.0916,-4.0509,-4.0646,-4.1049,-4.0612,-4.0443,-4.0339,-3.9879,-3.9634,-3.9403,-3.8758,-3.7656,-3.6466,-3.6027,-3.5527,-3.5234,-3.5429,-3.5299,-3.5169,-3.5299,-3.5655,-3.6133,-3.6724,-3.7089,-3.7268,-3.718,-3.7268,-3.7268,-3.6999,-3.7059,-3.7119,-3.6969,-3.6846,-3.6846,-3.6969,-3.703,-3.703,-3.6999,-3.6999,-3.6877,-3.6538,-3.6507,-3.6507,-3.6507,-3.6507,-3.6569,-3.6724,-3.66,-3.6507,-3.6383,-3.6662,-3.6846,-3.7028,-3.7389,-3.7658,-3.7801,-3.7772,-3.7714,-3.9887,-3.9578,-3.9341,-3.8158,-3.7758,-3.7668,-3.7798,-3.7731,-3.7749,-3.7978,-3.8054,-3.862,-4.0547,-4.0938,-4.1516,-4.3317,-4.4127,-4.4418,-4.4079,-4.4739,-4.493,-4.4126,-4.4343,-4.4343,-4.3754,-4.391,-4.4026,-4.4065,-4.4761,-4.5431,-4.6076,-4.6148,-4.6187,-4.6333,-4.6333,-4.6259,-4.6112,-4.6112,-4.6004,-4.5828,-4.5128,-4.5159,-4.576,-4.4369,-4.405,-4.4622,-4.32,-4.2252,0.0,-4.1288,-4.0647,-3.9851,-3.9952,-4.0231,-4.0478,-3.995,-4.0331,-4.1016,-4.0439,-4.0235,-4.0231,-4.0016,-3.942,-3.859,-3.799,-3.7023,-3.6067,-3.5579,-3.5332,-3.5136,-3.481,-3.4806,-3.4935,-3.4935,-3.5103,-3.5462,-3.6133,-3.6662,-3.703,-3.703,-3.7119,-3.7088,-3.6785,-3.6908,-3.6969,-3.6754,-3.6968,-3.7119,-3.6999,-3.7089,-3.715,-3.6999,-3.6999,-3.6877,-3.6538,-3.6507,-3.6507,-3.6507,-3.6507,-3.6289,-3.5847,-3.6005,-3.5846,-3.5329,-3.5814,-3.6258,-3.66,-3.6908,-3.7241,-3.7539,-3.7359,-3.7359,-3.973,-3.9324,-3.8686,-3.8144,-3.8172,-3.819,-3.7659,-3.7758,-3.7976,-3.8052,-3.8194,-3.8722,-4.0343,-4.0733,-4.1418,-4.3286,-4.3935,-4.4261,-4.4366,-4.4665,-4.4726,-4.4374,-4.4496,-4.4228,-4.3364,-4.3706,-4.3988,-4.3988,-4.461,-4.5136,-4.5358,-4.5828,-4.6148,-4.6187,-4.6187,-4.608,-4.5932,-4.5932,-4.5896,-4.5823,-4.5507,-4.5539,-4.5792,-4.478,-4.4464,-4.4654,-4.3706,-4.2848,0.0,-4.1679,-4.0935,-4.0006,-3.9859,-3.995,-4.0191,-3.9945,-4.0226,-4.0677,-4.0226,-3.9985,-3.9809,-3.9271,-3.8839,-3.8424,-3.7734,-3.7157,-3.6539,-3.54,-3.4905,-3.4769,-3.4905,-3.507,-3.5201,-3.5201,-3.5365,-3.5655,-3.6258,-3.6538,-3.6693,-3.6693,-3.6816,-3.6846,-3.66,-3.6693,-3.6785,-3.6723,-3.6816,-3.6907,-3.6999,-3.7119,-3.7178,-3.7119,-3.706,-3.6969,-3.6938,-3.6877,-3.6847,-3.6938,-3.6723,-3.6292,-3.5614,-3.546,-3.5241,-3.4925,-3.5209,-3.5673,-3.6195,-3.66,-3.6969,-3.7181,-3.6998,-3.7059,-3.9409,-3.9005,-3.8297,-3.8297,-3.8447,-3.8448,-3.7809,-3.793,-3.8202,-3.8277,-3.8352,-3.8777,-3.9993,-4.0538,-4.1359,-4.2968,-4.3754,-4.4278,-4.4488,-4.4526,-4.4488,-4.4419,-4.4195,-4.3768,-4.3251,-4.3559,-4.3832,-4.391,-4.4343,-4.4648,-4.4723,-4.5315,-4.5719,-4.5932,-4.5864,-4.5828,-4.5823,-4.5823,-4.5719,-4.5609,-4.5609,-4.5573,-4.5395,-4.4673,-4.4396,-4.4405,-4.3455,-4.2667,0.0,-4.1426,-4.0611,-3.9716,-3.9606,-3.9661,-3.9803,-3.9803,-4.0121,-4.0436,-4.0051,-3.9803,-3.9625,-3.8973,-3.8752,-3.8488,-3.7545,-3.7243,-3.6856,-3.5146,-3.4568,-3.4664,-3.5532,-3.5612,-3.5497,-3.5497,-3.5655,-3.5879,-3.632,-3.6476,-3.6538,-3.6538,-3.6631,-3.6662,-3.6507,-3.66,-3.6693,-3.6693,-3.6785,-3.6877,-3.6969,-3.715,-3.727,-3.7208,-3.715,-3.7181,-3.727,-3.7211,-3.7181,-3.7178,-3.6938,-3.6415,-3.5585,-3.5217,-3.4817,-3.441,-3.4573,-3.497,-3.5607,-3.6168,-3.6629,-3.6999,-3.6907,-3.6968,-3.8874,-3.8669,-3.8476,-3.8476,-3.8355,-3.8263,-3.846,-3.8361,-3.824,-3.8456,-3.8315,-3.8481,-3.9379,-4.0215,-4.1133,-4.2213,-4.3647,-4.4558,-4.4319,-4.4297,-4.425,-4.4026,-4.3172,-4.2897,-4.3633,-4.3448,-4.3438,-4.3675,-4.391,-4.4104,-4.4297,-4.4496,-4.4905,-4.5463,-4.5284,-4.5426,-4.5823,-4.5823,-4.5609,-4.521,-4.521,-4.4986,-4.461,-4.3826,-4.3667,-4.3826,-4.2212,-4.1365,0.0,-4.0121,-3.9274,-3.8662,-3.8967,-3.9235,-3.9415,-3.9415,-3.9879,-4.0436,-3.991,-3.9696,-3.9661,-3.9445,-3.9265,-3.8816,-3.7364,-3.7103,-3.6838,-3.4715,-3.4337,-3.4957,-3.6595,-3.633,-3.5688,-3.5688,-3.5847,-3.6037,-3.6164,-3.6445,-3.6693,-3.6693,-3.6693,-3.6662,-3.6507,-3.66,-3.6693,-3.6693,-3.6967,-3.715,-3.6999,-3.7301,-3.7419,-3.7208,-3.7359,-3.751,-3.751,-3.751,-3.7389,-3.7208,-3.7059,-3.66,-3.5752,-3.5273,-3.4598,-3.3735,-3.3781,-3.4121,-3.4723,-3.5399,-3.6162,-3.6999,-3.715,-3.7119,-3.9121,-3.924,-3.9086,-3.862,-3.8905,-3.9047,-3.811,-3.8121,-3.8306,-3.7967,-3.8165,-3.8593,-3.9197,-4.0338,-4.1526,-4.2445,-4.3723,-4.4435,-4.3912,-4.4219,-4.4304,-4.3806,-4.2829,-4.2605,-4.3594,-4.2668,-4.241,-4.3349,-4.3675,-4.3832,-4.3871,-4.3949,-4.4258,-4.4867,-4.4799,-4.4836,-4.498,-4.498,-4.4911,-4.4799,-4.4799,-4.4723,-4.461,-4.4356,-4.4302,-4.4315,-4.3205,-4.2473,-4.2005,-4.0722,-3.9932,-3.9536,-3.9535,-3.9625,-3.9839,-4.0056,-4.0301,-4.047,-4.0191,-4.0016,-3.9803,-3.9337,-3.8973,-3.8539,-3.7644,-3.7605,-3.7535,-3.5991,-3.5389,-3.5356,-3.5959,-3.6093,-3.6038,-3.6038,-3.6195,-3.6352,-3.6383,-3.6569,-3.6662,-3.6569,-3.6631,-3.6693,-3.6631,-3.6662,-3.6785,-3.7029,-3.7059,-3.7151,-3.7331,-3.73,-3.7329,-3.7389,-3.748,-3.751,-3.751,-3.751,-3.748,-3.7389,-3.7151,-3.6629,-3.5738,-3.4911,-3.4152,-3.3566,-3.3216,-3.3276,-3.3752,-3.482,-3.586,-3.6785,-3.721,-3.718,-3.9011,-3.9179,-3.9082,-3.8928,-3.9143,-3.9186,-3.8255,-3.8149,-3.8231,-3.8089,-3.824,-3.8573,-3.9178,-4.0293,-4.1393,-4.2206,-4.3252,-4.3914,-4.3799,-4.3853,-4.3738,-4.3205,-4.2833,-4.2833,-4.3223,-4.2578,-4.2462,-4.323,-4.3478,-4.3557,-4.3557,-4.3557,-4.3754,-4.4112,-4.4266,-4.4458,-4.461,-4.461,-4.4534,-4.4343,-4.4266,-4.4189,-4.4112,-4.3957,-4.3723,-4.332,-4.2667,-4.1893,0.0,-4.0104,-3.9619,-3.9506,-3.9469,-3.9661,-3.991,-4.0191,-4.0296,-4.0296,-4.0121,-3.998,-3.9803,-3.9373,-3.8759,-3.8231,-3.8193,-3.7889,-3.7523,-3.7436,-3.679,-3.6204,-3.6441,-3.6552,-3.6532,-3.6382,-3.6414,-3.6507,-3.6507,-3.6569,-3.66,-3.6569,-3.6631,-3.6723,-3.6785,-3.6846,-3.6938,-3.7089,-3.7089,-3.7151,-3.7301,-3.724,-3.727,-3.7359,-3.745,-3.751,-3.751,-3.751,-3.748,-3.7389,-3.718,-3.6751,-3.6012,-3.4907,-3.406,-3.3515,-3.2735,-3.2556,-3.2911,-3.4516,-3.5706,-3.6473,-3.7175,-3.727,0.0,-3.8667,-3.8642,-3.9253,-3.9057,-3.8783,-3.8687,-3.8256,0.0,-3.8575,-3.8427,-3.8418,-3.9215,-4.0051,-4.0902,-4.1625,-4.238,-4.3138,-4.3745,-4.3289,-4.2758,-4.2389,-4.3122,-4.3374,-4.2694,-4.295,-4.323,-4.329,-4.329,-4.329,-4.329,-4.329,-4.329,-4.329,-4.3754,-4.4112,-4.4496,-4.4496,-4.4305,-4.3888,-4.3654,-4.3457,-4.323,-4.2831,-4.2219,0.0,-4.0935,-3.9988,-3.8777,-3.8627,-3.8625,-3.8787,-3.9026,-3.9373,-3.9732,-3.994,-4.0011,-3.9975,-3.9768,-3.9696,-3.9661,-3.9409,-3.8703,-3.8037,-3.8839,-3.7919,-3.7011,-3.8847,-3.8286,-3.7272,-3.7718,-3.7469,-3.7022,-3.6599,-3.6507,-3.6476,-3.6445,-3.6538,-3.66,-3.6631,-3.6724,-3.6847,-3.6938,-3.7089,-3.715,-3.703,-3.7089,-3.7119,-3.6999,-3.7089,-3.7148,-3.7178,-3.7359,-3.748,-3.748,-3.748,-3.7419,-3.7208,-3.7208,-3.6997,-3.6569,-3.5305,-3.4299,-3.3637,-3.2493,-3.2075,-3.2467,-3.4455,-3.564,-3.5998,-3.7014,-3.7389,-3.8185,0.0,-3.8716,-3.8361,-3.8466,-3.8464,0.0,-3.7672,-3.7625,-3.7481,-3.7711,-3.8149,-3.8717,-3.9576,-4.0606,-4.1799,-4.2674,-4.3023,-4.2538,-4.2467,-4.2605,-4.2995,-4.3089,-4.3081,-4.2942,-4.2525,-4.2564,-4.326,-4.317,-4.317,-4.329,-4.329,-4.329,-4.329,-4.3409,-4.3448,-4.3379,-4.3527,-4.3326,-4.2698,-4.3169,-4.306,-4.2542,-4.2337,-4.2001,-4.1568,-4.0677,-4.0077,-3.9742,-3.9165,-3.9145,-3.9485,-3.9349,-3.9589,-3.994,-3.9975,-4.0011,-3.9975,-3.9768,-3.9696,-3.9625,-3.909,-3.8964,-3.8984,-3.8884,-3.7883,-3.7028,-3.8286,-3.7773,-3.6887,-3.7119,-3.6831,-3.6441,-3.6507,-3.6507,-3.6383,-3.5975,-3.6813,-3.7312,-3.6161,-3.6876,-3.7499,-3.6878,-3.6785,-3.6846,-3.6969,-3.6908,-3.6846,-3.6969,-3.6877,-3.6877,-3.703,-3.718,-3.727,-3.727,-3.7389,-3.748,-3.745,-3.73,-3.7148,-3.7059,-3.6127,-3.5454,-3.5033,-3.3423,-3.303,-3.3993,-3.4477,-3.5174,-3.5998,-3.7014,-3.748,-3.7794,-3.7958,-3.8016,-3.792,-3.8036,-3.8025,-3.7528,-3.7471,-3.7443,-3.7404,-3.7596,-3.7988,-3.8813,-3.958,-4.0434,-4.1436,-4.197,-4.2115,-4.1784,-4.1873,-4.2304,-4.3072,-4.2968,-4.2922,-4.315,-4.2803,-4.2783,-4.326,-4.321,-4.321,-4.329,-4.321,-4.3021,-4.2753,-4.2942,-4.301,-4.2981,-4.313,-4.2952,-4.2476,-4.2782,-4.2604,-4.1991,-4.1784,-4.1302,-4.0685,-4.017,-3.9697,-3.9223,-3.9128,-3.9199,-3.9409,-3.9301,-3.9409,-3.9589,-3.9661,-3.9589,-3.9481,-3.9553,-3.9553,-3.9517,-3.9192,-3.909,-3.909,-3.909,-3.844,-3.7895,-3.8644,-3.8262,-3.759,-3.7455,-3.7042,-3.6686,-3.6812,-3.6875,-3.6842,-3.6396,-3.7301,-3.7806,-3.6346,-3.7031,-3.7655,-3.694,-3.6847,-3.6847,-3.6877,-3.6754,-3.6723,-3.6754,-3.6723,-3.6723,-3.6877,-3.7059,-3.7178,-3.7178,-3.7359,-3.751,-3.751,-3.7389,-3.7329,-3.7329,-3.6521,-3.5658,-3.4684,-3.3318,-3.2922,-3.3547,-3.3999,-3.467,-3.55,-3.6513,-3.7164,-3.7424,-3.7195,-3.7011,-3.7604,-3.7596,-3.7482,-3.7482,-3.73,-3.7291,-3.7682,-3.7634,-3.794,-3.9246,-3.9665,-4.021,-4.1198,-4.1258,-4.1313,-4.161,-4.1723,-4.2108,-4.2962,-4.2878,-4.2857,-4.319,-4.325,-4.325,-4.325,-4.325,-4.325,-4.329,-4.313,-4.2743,-4.2277,-4.2543,-4.2769,-4.29,-4.2941,-4.2831,-4.2541,-4.2496,-4.2162,-4.1676,-4.123,-4.0469,-3.9613,0.0,0.0,-3.824,-3.876,-3.9017,-3.9053,-3.9017,-3.9053,-3.9192,-3.9337,-3.9192,-3.8943,-3.9265,-3.9373,-3.9373,-3.9337,-3.9156,-3.8943,-3.9265,-3.9066,-3.8868,-3.9188,-3.8958,-3.8469,-3.8065,-3.7593,-3.7237,-3.7237,-3.7425,-3.7517,-3.7124,-3.7905,-3.8229,-3.6813,-3.7247,-3.7685,-3.7063,-3.6938,-3.6877,-3.6693,-3.6662,-3.6631,-3.6507,-3.66,-3.6662,-3.6662,-3.6968,-3.718,-3.718,-3.7359,-3.751,-3.751,-3.751,-3.751,-3.751,-3.6792,-3.5707,-3.4265,-3.329,-3.2777,-3.2777,-3.3519,-3.4223,-3.4909,-3.5917,-3.6817,-3.709,-3.6768,-3.6307,-3.688,-3.6908,-3.6759,-3.6759,-3.6759,-3.6788,-3.706,-3.725,-3.7851,-3.9535,-3.9255,-3.9673,-4.2485,-4.2512,-4.2338,-4.2682,-4.2491,-4.2539,-4.3199,-4.3446,-4.3319,-4.285,-4.297,-4.3021,-4.3021,-4.3021,-4.313,-4.329,-4.313,-4.2951,-4.2862,-4.275,-4.2607,-4.2514,-4.2648,-4.2463,-4.1852,-4.2383,-4.2324,-4.1676,-4.0949,-4.0373,-3.9964,0.0,-3.8663,-3.8202,-3.8464,-3.8686,-3.8833,-3.8649,-3.89,-3.9337,-3.9373,-3.9337,-3.9301,-3.9373,-3.9373,-3.9373,-3.9192,-3.9228,-3.9301,-3.9192,-3.8919,-3.8747,-3.8782,-3.8439,-3.8034,-3.8144,-3.7789,-3.746,-3.746,-3.7793,-3.7961,-3.7425,-3.8409,-3.8836,-3.7033,-3.7732,-3.8243,-3.6971,-3.6631,-3.6569,-3.6569,-3.6507,-3.6507,-3.6507,-3.6507,-3.6507,-3.6507,-3.6847,-3.703,-3.703,-3.7331,-3.751,-3.751,-3.751,-3.751,-3.751,-3.7354,-3.7107,-3.6648,-3.525,-3.4483,-3.4339,-3.4042,-3.4223,-3.4909,-3.5917,-3.6817,-3.6585,-3.6751,-3.6664,-3.6589,-3.6684,-3.6864,-3.6978,-3.6978,-3.7025,-3.7116,-3.7211,-3.7689,-3.9071,-3.8977,-3.9363,-4.1312,-4.1252,-4.1105,-4.14,-4.137,-4.1534,-4.2124,-4.2436,-4.2698,-4.2841,-4.305,-4.317,-4.317,-4.3061,-4.3021,-4.313,-4.285,-4.2511,-4.2158,-4.2268,-4.196,-4.1179,-4.196,-4.2205,-4.1913,-4.2205,-4.2,-4.1357,-4.0635,-4.0061,-3.9605,0.0,-3.8464,-3.7901,-3.8427,-3.8464,-3.8165,-3.8277,-3.8501,-3.876,-3.898,-3.9228,-3.9373,-3.9373,-3.9337,-3.9228,-3.9156,-3.9156,-3.9228,-3.9156,-3.92,-3.928,-3.9385,-3.8493,-3.759,-3.7956,-3.7691,-3.7483,-3.8019,-3.8382,-3.8523,-3.8047,-3.9005,-3.9317,-3.7276,-3.7818,-3.8206,-3.6847,-3.6538,-3.6507,-3.6507,-3.6507,-3.6507,-3.6507,-3.6507,-3.6507,-3.66,-3.6847,-3.703,-3.7089,-3.7361,-3.751,-3.751,-3.751,-3.751,-3.751,-3.7101,-3.6882,-3.6762,-3.5729,-3.508,-3.4938,-3.4767,-3.5043,-3.5618,-3.6164,-3.6817,-3.5881,-3.6495,-3.69,-3.6495,-3.6608,-3.6859,-3.6936,-3.7024,-3.7119,-3.7095,-3.7314,-3.7774,-3.8658,-3.9305,-3.9751,-4.0042,-4.0314,-4.0465,-4.0434,-4.0569,-4.0912,-4.1542,-4.1708,-4.2073,-4.2852,-4.309,-4.313,-4.309,-4.301,-4.29,-4.29,-4.2566,-4.2158,-4.1631,-4.1954,-4.1541,-4.035,-4.1512,-4.2005,-4.186,-4.2005,-4.1831,-4.1308,-4.0466,-3.9857,-3.9363,-3.8814,-3.824,-3.7701,-3.824,-3.8127,-3.7739,-3.8052,-3.8315,-3.8501,-3.8833,-3.9156,-3.9373,-3.9373,-3.9301,-3.9156,-3.909,-3.9156,-3.9156,-3.909,-3.929,-3.9561,-3.9733,-3.8659,-3.7569,-3.8074,-3.7928,-3.7839,-3.8599,-3.8962,-3.9083,-3.8808,-3.939,-3.939,-3.7618,-3.7907,-3.8044,-3.6722,-3.663,-3.6661,-3.6507,-3.6507,-3.6507,-3.6507,-3.6507,-3.6569,-3.6693,-3.6907,-3.7089,-3.727,-3.7389,-3.751,-3.751,-3.751,-3.751,-3.751,-3.6943,-3.6629,-3.66,-3.5966,-3.5531,-3.5357,-3.5401,-3.5685,-3.6263,-3.635,-3.6817,-3.4911,-3.5467,-3.6212,-3.657,-3.6486,-3.625,-3.5906,-3.6259,-3.6618,-3.6503,-3.7338,-3.8285,-3.8773,-4.05,-4.1439,-4.0064,-4.1332,-4.2228,-4.1398,-4.1486,-4.1833,-4.2543,-4.2243,-4.2199,-4.267,-4.2729,-4.2648,-4.2474,-4.2607,-4.2729,-4.2729,-4.2514,-4.2363,-4.2333,-4.2187,-4.1744,-4.1047,-4.1744,-4.1773,-4.1163,-4.1802,-4.2063,-4.1976,-4.0699,-4.0089,-3.9973,-3.8563,-3.7929,-3.7853,-3.7548,-3.7596,-3.7901,-3.8127,-3.8649,-3.9301,-3.9337,-3.9373,-3.9373,-3.9373,-3.9373,-3.9337,-3.9156,-3.9228,-3.9337,-3.9156,-3.9097,-3.9035,-3.907,-3.8629,-3.8305,-3.8944,-3.9066,-3.9032,-3.8979,-3.9325,-3.9707,-3.9849,-3.9325,-3.8689,-3.8205,-3.8213,-3.7945,-3.6691,-3.6999,-3.7215,-3.6569,-3.6507,-3.6507,-3.6507,-3.66,-3.6693,-3.6693,-3.6998,-3.727,-3.748,-3.748,-3.751,-3.751,-3.751,-3.751,-3.751,-3.7447,-3.7326,-3.7145,-3.6603,-3.6256,-3.6111,-3.5654,-3.5742,-3.6408,-3.6408,-3.6817,-3.4569,-3.5226,-3.5917,-3.6107,-3.6117,-3.6164,-3.6441,-3.6652,-3.6852,-3.695,-3.7409,-3.7967,-3.839,-3.9033,-3.9585,-3.9945,-4.039,-4.071,-4.0763,-4.1067,-4.1291,-4.1272,-4.1597,-4.202,-4.2496,-4.2607,-4.2648,-4.2566,-4.2555,-4.2514,-4.2514,-4.193,-4.1575,-4.1575,-4.1116,-4.0554,-3.9915,-4.0839,-4.0839,-3.9944,-4.1395,-4.1889,-4.1453,-4.0525,-3.9886,-3.9479,-3.838,-3.7815,-3.7701,-3.7433,-3.7327,-3.7404,-3.7976,-3.8538,-3.9053,-3.9301,-3.9373,-3.9373,-3.9373,-3.9301,-3.9192,-3.909,-3.9156,-3.9192,-3.909,-3.9337,-3.9581,-3.9476,-3.9473,-3.9467,-3.9146,-3.8979,-3.8931,-3.9209,-3.9373,-3.9517,-3.9589,-3.9551,-3.9334,-3.8804,-3.8549,-3.8165,-3.7277,-3.6999,-3.6784,-3.6538,-3.6507,-3.6507,-3.66,-3.6662,-3.6785,-3.6998,-3.724,-3.7419,-3.748,-3.751,-3.751,-3.751,-3.751,-3.751,-3.751,-3.751,-3.748,-3.7389,-3.7166,-3.701,-3.6801,-3.6758,-3.6787,-3.689,-3.704,-3.7227,-3.4369,-3.5057,-3.5855,-3.5975,-3.6079,-3.6334,-3.6954,-3.6993,-3.6947,-3.7067,-3.725,-3.7615,-3.8274,-3.8189,-3.8428,-3.9566,-3.983,-3.9974,-4.012,-4.0752,-4.1033,-4.0598,-4.1175,-4.1781,-4.2333,-4.2474,-4.2514,-4.2514,-4.2392,-4.2339,-4.2339,-4.1738,-4.1308,-4.1105,-4.0641,-3.9992,-3.9112,-4.0307,-4.0267,-3.9141,-4.0879,-4.1384,-4.0757,-4.0321,-3.9809,-3.9237,-3.8256,-3.7777,-3.7672,-3.7327,-3.725,-3.7366,-3.7976,-3.8501,-3.8943,-3.9265,-3.9373,-3.9373,-3.9373,-3.9301,-3.9192,-3.9192,-3.9192,-3.9228,-3.9271,-3.9589,-3.9874,-3.9803,-3.9945,-3.9995,-3.9399,-3.9138,-3.9088,-3.9356,-3.9445,-3.9517,-3.9553,-3.9652,-3.9555,-3.907,-3.8699,-3.8194,-3.7454,-3.7059,-3.6722,-3.6538,-3.6569,-3.66,-3.6693,-3.6816,-3.6968,-3.727,-3.7419,-3.751,-3.751,-3.751,-3.751,-3.751,-3.751,-3.751,-3.751,-3.751,-3.751,-3.751,-3.751,-3.745,-3.73,-3.745,-3.745,-3.73,-3.745,-3.751,-3.4133,-3.4872,-3.5963,-3.6324,-3.6504,-3.6721,-3.7185,-3.6959,-3.6637,-3.6682,-3.6861,-3.737,-3.8591,-3.85,-3.841,-3.8841,-3.9956,-4.0452,-3.9633,-4.0607,-4.1232,-4.0831,-4.1135,-4.165,-4.2333,-4.2216,-4.2092,-4.2092,-4.2092,-4.2092,-4.2092,-4.2092,-4.1773,-4.1105,-4.1076,-4.0387,-3.8919,-4.0358,-4.0358,-3.8919,-4.0187,-4.0527,-4.0089,-4.0089,-3.9858,-3.9437,-3.815,-3.7711,-3.7863,-3.725,-3.7366,-3.7938,-3.8127,-3.8575,-3.9156,-3.9337,-3.9373,-3.9373,-3.9373,-3.9373,-3.9373,-3.9373,-3.9373,-3.9445,-3.9661,-3.9696,-3.9732,-3.994,-3.9839,-3.9696,-3.9696,-3.9696,-3.9661,-3.9445,-3.9553,-3.9768,-3.9975,-3.9499,-3.9013,-3.9013,-3.8632,-3.8027,-3.716,-3.7298,-3.7277,-3.6599,-3.66,-3.6693,-3.6693,-3.6998,-3.73,-3.748,-3.751,-3.751,-3.751,-3.751,-3.751,-3.751,-3.751,-3.751,-3.751,-3.751,-3.751,-3.751,-3.751,-3.751,-3.751,-3.751,-3.751,-3.751,-3.751,-3.751,-3.3362,-3.4015,-3.5232,-3.5963,-3.6033,-3.6134,-3.6908,-3.707,-3.7215,-3.7653,-3.7711,-3.7844,-3.8501,-3.8379,-3.8438,-3.9016,-3.9246,-3.9322,-3.9102,-3.965,-3.9899,-3.9499,-4.0358,-4.1123,-4.1448,-4.1691,-4.1827,-4.1827,-4.1689,-4.1606,-4.1606,-4.0744,-4.017,-3.9969,-3.9108,-3.8437,-3.7987,-3.9167,-3.9447,-3.888,-3.9853,-4.0003,-3.945,-3.9295,-3.9102,-3.8756,-3.8092,-3.7929,-3.8089,-3.7787,-3.7985,-3.8538,-3.8612,-3.8907,-3.9301,-3.9373,-3.9373,-3.9373,-3.9373,-3.9373,-3.9373,-3.9373,-3.9373,-3.9445,-3.9661,-3.9803,-3.991,-3.9975,-3.9975,-3.9874,-3.9732,-3.9696,-3.9661,-3.9445,-3.9553,-3.9732,-3.9768,-3.9864,-3.9921,-3.9921,-3.9504,-3.89,-3.8159,-3.7766,-3.7277,-3.6599,-3.6507,-3.6631,-3.6877,-3.7211,-3.745,-3.748,-3.751,-3.751,-3.751,-3.751,-3.751,-3.751,-3.751,-3.751,-3.751,-3.751,-3.751,-3.751,-3.751,-3.751,-3.751,-3.7599,-3.7599,-3.751,-3.7716,-3.7714,-3.3485,-3.41,-3.5245,-3.6064,-3.6184,-3.6359,-3.7253,-3.7366,-3.7519,-3.8277,-3.8165,-3.8052,-3.8538,-3.8202,-3.8083,-3.883,-3.8823,-3.8687,-3.865,-3.9293,-3.9492,-3.8859,-3.9963,-4.0862,-4.0955,-4.1328,-4.1619,-4.1702,-4.1493,-4.1281,-4.1053,-4.0281,-3.9693,-3.9179,-3.8396,-3.7957,-3.7841,-3.8837,-3.927,-3.9136,-3.9548,-3.9498,-3.9074,-3.8957,-3.8803,-3.8612,-3.8352,-3.824,-3.8202,-3.8089,-3.8277,-3.8686,-3.876,-3.898,-3.9301,-3.9373,-3.9373,-3.9409,-3.9481,-3.9517,-3.9517,-3.9589,-3.9589,-3.9553,-3.9839,-3.991,-3.9874,-3.9975,-3.994,-3.9839,-3.9625,-3.9661,-3.9661,-3.9553,-3.9732,-3.9945,-3.9945,-4.0156,-4.0274,-3.9929,-3.963,-3.9082,-3.8096,-3.7608,-3.715,-3.6475,-3.6538,-3.6816,-3.7151,-3.7391,-3.751,-3.751,-3.751,-3.751,-3.751,-3.751,-3.751,-3.751,-3.751,-3.751,-3.751,-3.751,-3.751,-3.751,-3.751,-3.7539,-3.7599,-3.7658,-3.7687,-3.7658,-3.7801,-3.786,-3.3926,-3.4558,-3.5572,-3.6466,-3.6719,-3.7023,-3.8011,-3.7787,-3.7672,-3.8649,-3.8389,-3.8136,-3.8657,-3.8052,-3.7634,-3.8306,-3.8467,-3.8447,-3.8176,-3.9112,-3.9516,-3.8578,-3.9728,-4.0596,-4.0665,-4.1063,-4.1352,-4.1619,-4.1451,-4.1097,-4.0554,-4.0383,-3.9812,-3.8682,-3.851,-3.8336,-3.8099,-3.8979,-3.9441,-3.9482,-3.9268,-3.9105,-3.8966,-3.8851,-3.8754,-3.8797,-3.8833,-3.8612,-3.8277,-3.8277,-3.8389,-3.8575,-3.8797,-3.898,-3.9156,-3.9337,-3.9373,-3.9409,-3.9625,-3.9661,-3.9696,-3.9905,-3.9839,-3.9768,-4.0121,-4.0016,-3.9803,-3.9945,-3.9874,-3.9696,-3.9481,-3.9589,-3.9732,-3.9732,-4.0016,-4.0296,-4.0296,-4.0401,-4.0286,-3.947,-3.9253,-3.8791,-3.7466,-3.7262,-3.7022,-3.6381,-3.6693,-3.7121,-3.745,-3.748,-3.751,-3.751,-3.751,-3.751,-3.751,-3.751,-3.751,-3.751,-3.751,-3.751,-3.751,-3.751,-3.751,-3.751,-3.751,-3.7569,-3.7716,-3.7716,-3.7804,-3.7889,-3.7918,-3.7918,-3.2609,-3.3062,-3.4187,-3.6154,-3.7016,-3.7577,-3.8285,-3.8202,-3.8202,-3.8907,-3.8797,-3.8612,-3.8575,-3.8538,-3.8315,-3.7891,-3.794,-3.793,-3.7548,-3.7709,-3.7813,-3.7593,-3.8314,-3.9088,-3.9734,-4.0158,-4.0603,-4.1099,-4.0944,-4.0802,-4.0689,-3.9758,-3.9109,-3.8827,-3.7868,-3.7292,-3.7253,-3.842,-3.9106,-3.9268,-3.9065,-3.9183,-3.9571,-3.8437,-3.8121,-3.8575,-3.8907,-3.898,-3.8907,-3.8907,-3.9046,-3.9192,-3.9265,-3.9301,-3.9337,-3.9373,-3.9373,-3.9409,-3.9445,-3.9445,-3.9445,-3.9517,-3.9589,-3.9732,-3.9803,-3.998,-4.0121,-4.0046,-3.9975,-3.9874,-3.9696,-3.9768,-3.994,-3.994,-4.0121,-4.0296,-4.0296,-4.0401,-4.0443,-4.0255,-3.9794,-3.933,-3.902,-3.82,-3.7404,-3.6909,-3.7029,-3.718,-3.727,-3.7389,-3.751,-3.751,-3.751,-3.751,-3.751,-3.751,-3.751,-3.751,-3.751,-3.751,-3.751,-3.751,-3.751,-3.751,-3.751,-3.7569,-3.7716,-3.7833,-3.786,-3.7889,-3.8148,-3.8237,-3.1864,-3.2526,-3.3943,-3.6067,-3.678,-3.7139,-3.7791,-3.8069,-3.8216,-3.8361,-3.8773,-3.9017,-3.8797,-3.8723,-3.8538,-3.824,-3.8014,-3.7825,-3.7634,-3.7596,-3.7471,-3.7173,-3.7777,-3.8433,-3.8865,-3.93,-3.9687,-4.0122,-3.9942,-3.9676,-3.9367,-3.8749,-3.8271,-3.803,-3.7344,-3.7288,-3.7878,-3.8364,-3.9065,-4.0066,-3.9037,-3.8604,-3.8724,-3.8256,-3.824,-3.8679,-3.9336,-3.946,-3.9294,-3.9593,-3.9599,-3.9373,-3.9373,-3.9373,-3.9373,-3.9373,-3.9373,-3.9409,-3.9625,-3.9625,-3.9589,-3.9768,-3.9768,-3.9732,-3.9803,-3.991,-3.998,-3.9874,-3.9839,-3.9839,-3.9732,-3.9839,-4.0046,-4.0117,-4.0261,-4.0401,-4.0401,-4.047,-4.0413,-4.0074,-3.9637,-3.914,-3.843,-3.758,-3.697,-3.7001,-3.7119,-3.7208,-3.7329,-3.745,-3.751,-3.751,-3.751,-3.751,-3.751,-3.751,-3.751,-3.751,-3.751,-3.751,-3.751,-3.751,-3.751,-3.751,-3.751,-3.7599,-3.7804,-3.786,-3.7976,-3.8119,-3.8323,-3.8379,-3.1341,-3.2478,-3.4193,-3.5985,-3.6412,-3.6603,-3.7288,-3.7895,-3.821,-3.7824,-3.8608,-3.9337,-3.9156,-3.8723,-3.8501,-3.8686,-3.8165,-3.7815,-3.7787,-3.7815,-3.7625,-3.7056,-3.7585,-3.8031,-3.8212,-3.8533,-3.883,-3.9106,-3.8984,-3.8677,-3.8102,-3.7962,-3.7653,-3.7147,-3.7035,-3.758,-3.8774,-3.8427,-3.9102,-4.0831,-3.9187,-3.8143,-3.7625,-3.8156,-3.8538,-3.8863,-3.9647,-3.9771,-3.9469,-4.0008,-3.9918,-3.9373,-3.9373,-3.9373,-3.9373,-3.9373,-3.9373,-3.9445,-3.9798,-3.9768,-3.9696,-4.0016,-3.9945,-3.9732,-3.9869,-3.9803,-3.9732,-3.9661,-3.9696,-3.9762,-3.9853,-4.0056,-4.0269,-4.0445,-4.0585,-4.0659,-4.0536,-4.0505,-4.032,-3.9767,-3.945,-3.8794,-3.7351,-3.6746,-3.6599,-3.6969,-3.7119,-3.727,-3.748,-3.751,-3.751,-3.751,-3.751,-3.751,-3.751,-3.751,-3.751,-3.751,-3.751,-3.7539,-3.751,-3.7539,-3.7569,-3.7539,-3.751,-3.7628,-3.786,-3.7889,-3.8033,-3.8379,-3.8408,-3.8408,-3.082,-3.2467,-3.439,-3.5477,-3.6374,-3.7173,-3.7825,-3.8322,-3.8597,-3.8357,-3.8859,-3.9337,-3.9156,-3.8612,-3.824,-3.8277,-3.7749,-3.7394,-3.7366,-3.7366,-3.7289,-3.7017,-3.7102,-3.7355,-3.7889,-3.799,-3.8311,-3.8915,-3.8902,-3.8874,-3.879,-3.8215,-3.785,-3.7765,-3.7259,-3.7462,-3.8354,-3.8241,-3.8863,-4.0194,-3.9605,-3.8728,-3.7625,-3.7853,-3.8277,-3.8833,-3.9281,-3.9463,-3.9403,-3.9529,-3.9499,-3.9373,-3.9373,-3.9373,-3.9373,-3.9373,-3.9373,-3.9409,-3.9445,-3.9445,-3.9445,-3.9481,-3.9589,-3.9661,-3.9517,-3.9696,-3.9905,-3.9517,-3.9696,-4.0061,-4.0462,-4.083,-4.1148,-4.1184,-4.129,-4.1278,-4.0628,-4.0505,-4.0474,-4.0382,-3.989,-3.9093,-3.7804,-3.7558,-3.7437,-3.7213,-3.7178,-3.727,-3.748,-3.751,-3.751,-3.751,-3.751,-3.751,-3.751,-3.751,-3.751,-3.751,-3.7628,-3.7628,-3.751,-3.7746,-3.7772,-3.7687,-3.7569,-3.7569,-3.7746,-3.7831,-3.8004,-3.8237,-3.8351,-3.8408,-3.0882,-3.1492,-3.2435,-3.4191,-3.4719,-3.5141,-3.6373,-3.7193,-3.7629,-3.7484,-3.8289,-3.8928,-3.85,-3.8488,-3.8501,-3.8389,-3.7967,-3.7625,-3.7471,-3.725,-3.7095,-3.7017,-3.6889,-3.7001,-3.7372,-3.74,-3.7512,-3.7833,-3.7861,-3.7861,-3.7861,-3.754,-3.754,-3.7878,-3.7625,-3.7941,-3.879,-3.8502,-3.8614,-3.905,-3.935,-3.8893,-3.7787,-3.7976,-3.8315,-3.8797,-3.9284,-3.9409,-3.9439,-3.9828,-3.9738,-3.9409,-3.9517,-3.9553,-3.9553,-3.9553,-3.9553,-3.9553,-3.9553,-3.9481,-3.9409,-3.9517,-3.9553,-3.9517,-3.9409,-3.9517,-3.9655,-3.9445,-3.9517,-3.9751,-4.0058,-4.0262,-4.0405,-4.0543,-4.072,-4.08,-4.0462,-4.047,-4.0382,-4.0013,-3.9708,-3.9128,-3.7899,-3.7746,-3.7623,-3.7274,-3.7178,-3.727,-3.748,-3.751,-3.751,-3.751,-3.751,-3.7698,-3.8167,-3.8229,-3.8229,-3.8229,-3.8348,-3.8189,-3.7628,-3.7772,-3.786,-3.7801,-3.7743,-3.7833,-3.7979,-3.8065,-3.8151,-3.8323,-3.8379,-3.8408,-3.0917,-3.0627,-3.0749,-3.2911,-3.2987,-3.304,-3.4961,-3.6025,-3.6617,-3.6583,-3.7689,-3.8391,-3.7592,-3.8048,-3.8538,-3.8427,-3.8118,-3.7853,-3.7701,-3.7327,-3.7056,-3.7017,-3.6772,-3.6721,-3.6889,-3.6929,-3.694,-3.6978,-3.6978,-3.6978,-3.6978,-3.7147,-3.7428,-3.7878,-3.7906,-3.842,-3.9414,-3.9121,-3.8734,-3.8277,-3.8974,-3.8839,-3.7976,-3.8127,-3.8427,-3.8826,-3.9354,-3.949,-3.9433,-4.0127,-4.0008,-3.9409,-3.9553,-3.9625,-3.9625,-3.9805,-3.9866,-3.9866,-3.9866,-3.9793,-3.9757,-3.9721,-3.9625,-3.9517,-3.9481,-3.9481,-3.9445,-3.9409,-3.9445,-3.9547,-3.9871,-3.9973,-4.0081,-4.0289,-4.0395,-4.044,-4.0362,-4.0436,-4.0351,-3.9828,-3.9804,-3.9504,-3.8427,-3.8118,-3.7935,-3.7525,-3.7274,-3.724,-3.748,-3.751,-3.751,-3.751,-3.7539,-3.7884,-3.8732,-3.8826,-3.892,-3.9111,-3.9262,-3.8942,-3.8062,-3.8366,-3.8453,-3.8203,-3.8453,-3.8447,-3.8123,-3.818,-3.8266,-3.8351,-3.8379,-3.8408,-3.0637,-3.0472,-3.0423,-3.1775,-3.1731,-3.2032,-3.4571,-3.5432,-3.5878,-3.6241,-3.734,-3.7783,-3.6353,-3.7102,-3.8014,-3.8202,-3.8043,-3.7891,-3.7891,-3.7548,-3.7211,-3.7017,-3.6654,-3.6484,-3.6721,-3.6721,-3.6772,-3.6978,-3.6978,-3.6978,-3.6978,-3.754,-3.7878,-3.7906,-3.7906,-3.8577,-4.0024,-4.0215,-3.9675,-3.8493,-3.8717,-3.8611,-3.8165,-3.8202,-3.8427,-3.8826,-3.9504,-3.9669,-3.9433,-4.0127,-4.0008,-3.9373,-3.9409,-3.9409,-3.9499,-4.0127,-4.0337,-4.0337,-4.0337,-4.0484,-4.051,-3.9877,-3.9803,-3.994,-3.9732,-3.9696,-3.9661,-3.9445,-3.9553,-3.9817,-4.0486,-4.0777,-4.0988,-4.1173,-4.1096,-4.0878,-4.0558,-4.0505,-4.0474,-4.0443,-4.0615,-4.0504,-3.9792,-3.9173,-3.865,-3.8278,-3.7559,-3.7121,-3.745,-3.751,-3.751,-3.751,-3.7628,-3.8003,-3.8732,-3.8916,-3.9294,-3.9996,-4.015,-3.9829,-3.8974,-3.9849,-3.9971,-3.9146,-3.9938,-3.9559,-3.7918,-3.8123,-3.8209,-3.8209,-3.8351,-3.8408,-2.9527,-2.8977,-2.8596,-2.9795,-2.9785,-3.0111,-3.2489,-3.3675,-3.4467,-3.5088,-3.6164,-3.6684,-3.5768,-3.6866,-3.7923,-3.7994,-3.8052,-3.7901,-3.7394,-3.7173,-3.7056,-3.7017,-3.6654,-3.6536,-3.685,-3.68,-3.6721,-3.6811,-3.6929,-3.7147,-3.754,-3.7765,-3.8102,-3.8524,-3.8524,-3.8965,-3.9905,-4.0227,-4.0032,-3.9333,-3.8967,-3.8544,-3.8014,-3.8014,-3.8165,-3.8456,-3.9392,-3.9669,-3.9433,-4.0127,-4.0277,-4.0038,-4.0184,-4.022,-4.025,-4.0528,-4.0618,-4.0618,-4.0618,-4.0654,-4.0667,-4.0565,-4.0612,-4.0612,-4.0402,-4.0366,-4.0203,-3.9565,-3.9445,-3.9577,-3.9817,-3.9914,-4.0058,-4.038,-4.0487,-4.0532,-4.0532,-4.0505,-4.0628,-4.1124,-4.143,-4.1355,-4.06,-4.036,-3.993,-3.8872,-3.8466,-3.8372,-3.8622,-3.8367,-3.8144,-3.8144,-3.7793,-3.8134,-3.9521,-3.9678,-3.9866,-4.0182,-4.0815,-4.0331,-3.8573,-3.9389,-3.9735,-3.9418,-3.9641,-3.9709,-3.9559,-3.9647,-3.9677,-3.9677,-3.9282,-3.9088,-2.8721,-2.7923,-2.7353,-2.8198,-2.8127,-2.8388,-3.0477,-3.1716,-3.2691,-3.3424,-3.4682,-3.5453,-3.4896,-3.6057,-3.7178,-3.744,-3.7757,-3.7825,-3.7394,-3.7134,-3.6978,-3.69,-3.6536,-3.6377,-3.6693,-3.6615,-3.6642,-3.6682,-3.6889,0.0,-3.7878,-3.7906,-3.8143,-3.8645,-3.8871,-3.911,-3.9246,-3.9644,-3.975,-3.9475,-3.8879,-3.8457,-3.8173,-3.8173,-3.8315,-3.853,-3.9306,-3.9572,-3.9463,-4.0367,-4.0606,-4.0427,-4.0785,-4.0986,-4.1059,-4.1264,-4.1428,-4.1465,-4.1391,-4.1465,-4.1546,-4.1407,-4.1456,-4.1431,-4.0934,-4.0801,-4.0577,-3.9661,-3.9373,-3.9373,-3.9373,-3.9445,-3.9553,-3.9762,-4.0081,-4.0296,-4.0331,-4.0624,-4.1071,-4.1564,-4.235,-4.2653,-4.1797,-4.1738,-4.1338,-3.9966,-3.9462,-3.9308,-3.9313,-3.8999,-3.8714,-3.8584,-3.8453,-3.8858,-4.0057,-4.0214,-4.0401,-4.0718,-4.1065,-4.045,-3.8714,-3.9415,-3.9732,-3.9505,-3.9671,-4.0124,-4.0899,-4.061,-4.048,-4.048,-3.9829,-3.9534,0.0,0.0,0.0,-2.7185,-2.688,-2.6909,-2.8675,-2.9724,-3.0569,-3.1406,-3.2958,-3.4002,-3.364,-3.4562,-3.5658,-3.6433,-3.7139,-3.7606,-3.7758,-3.7337,-3.6911,-3.6677,-3.6338,-3.6086,-3.6126,-3.6286,-3.6484,-3.6682,-3.6889,-3.7259,-3.7878,-3.7906,-3.7986,-3.8184,-3.8847,-3.8842,-3.8194,-3.8611,-3.8812,-3.8826,-3.8389,-3.8427,-3.8797,-3.8797,-3.8907,-3.909,-3.9301,-3.9373,-3.9529,-4.0846,-4.1025,-4.0516,-4.1175,-4.1565,-4.1814,-4.2439,-4.2795,-4.2948,-4.2757,-4.2948,-4.3128,-4.2301,-4.234,-4.2437,-4.1401,-4.1043,-4.0819,-3.9757,-3.9439,-3.9439,-3.9439,-3.9613,-3.9721,-3.9541,-3.9935,-4.0288,-4.0112,-4.1019,-4.1802,-4.1802,-4.3274,-4.4275,-4.3553,-4.3318,-4.281,-4.1539,-4.0489,-3.9736,-3.9438,-3.9376,-3.922,-3.8831,-3.9555,-4.0123,-4.0337,-4.0455,-4.0836,-4.1547,-4.0931,-4.0221,-3.9538,-4.0124,-4.0156,-3.9505,-4.0124,-4.0804,-4.1579,-4.0869,-4.0545,-4.0545,-3.9894,-3.9657,-2.7898,0.0,0.0,0.0,0.0,0.0,-2.7603,-2.838,-2.9213,-3.0721,-3.2054,-3.2914,-3.2736,-3.3959,-3.4768,-3.4164,-3.543,-3.6319,-3.5733,-3.6051,-3.6266,-3.6102,-3.6089,-3.6166,-3.6286,-3.6246,-3.6286,0.0,-3.6654,-3.713,-3.7878,-3.7906,-3.7946,-3.7986,-3.8473,-3.8692,-3.8476,-3.9035,-3.9226,-3.906,-3.8481,-3.8277,-3.8389,-3.8501,-3.8686,-3.8907,-3.9265,-3.9373,-3.9529,-4.0846,-4.1602,-4.1871,-4.2051,-4.2256,-4.2439,-4.2466,-4.2604,-4.2826,-4.2872,-4.2986,-4.3107,-4.3149,-4.3236,-4.3242,-4.2768,-4.2217,-4.1522,-4.0601,-3.9877,-3.9565,-4.019,-4.0964,-4.1584,-4.1511,-4.1224,-4.1184,-4.1745,-4.2135,-4.2402,-4.2366,-4.3402,-4.4143,-4.364,-4.3749,-4.3541,-4.2421,-4.1678,-4.151,-4.22,-4.1386,-4.0859,-4.1215,-4.131,-4.131,-4.111,-4.159,-4.1781,-4.1612,-4.1417,-4.0769,-3.957,-3.97,-3.97,-3.9505,-3.97,-4.0121,-4.0834,-4.1158,-4.1549,-4.2004,-4.1443,-4.1268,-2.7727,-2.6435,-2.5521,-2.6022,0.0,0.0,-2.6407,-2.7,-2.7734,-2.8809,-2.9935,-3.0711,-3.0616,-3.1646,-3.236,-3.1736,-3.2666,-3.384,-3.4918,-3.5611,-3.5889,-3.5631,-3.59,-3.6166,-3.6246,-3.6246,-3.6325,-3.6524,-3.6693,-3.7029,-3.7484,-3.7765,-3.7833,-3.7631,-3.7934,-3.8129,-3.8322,-3.8668,-3.8821,-3.8792,-3.8376,-3.8277,-3.8464,-3.8575,-3.876,-3.9053,-3.9301,-3.9589,-3.9888,-4.0666,-4.1205,-4.1602,-4.1871,-4.2106,-4.2289,-4.2475,-4.2719,-4.3008,-4.332,-4.3526,-4.3685,-4.3837,-4.3949,-4.3925,-4.3455,-4.2687,-4.1886,-4.1388,-4.0878,-4.0594,-4.1103,-4.168,-4.2108,-4.1833,-4.1754,-4.1765,-4.1996,-4.2565,-4.3039,-4.3142,-4.3998,-4.4648,-4.4316,-4.4464,-4.4283,-4.3308,-4.2881,-4.2847,-4.3361,-4.2742,-4.2414,-4.2718,-4.2878,-4.2815,-4.2396,-4.2718,-4.2814,-4.2488,-4.1936,-4.1223,-4.0413,-4.038,-4.0251,-3.9897,-3.9927,-3.9962,-4.0059,-4.0802,-4.1385,-4.1868,-4.2274,-4.2389,-2.7712,-2.6233,-2.5244,-2.5411,-2.555,0.0,-2.53,-2.5825,-2.6374,-2.6535,-2.7382,-2.8085,-2.7911,-2.8588,-2.9156,-2.9253,-2.9455,-3.092,-3.4602,-3.5237,-3.5287,-3.5206,-3.5546,-3.5879,-3.6016,-3.6175,-3.6401,-3.6682,-3.6889,-3.6978,-3.6978,-3.7512,-3.7619,-3.7278,-3.725,-3.7471,-3.7815,-3.7853,-3.7967,-3.8165,-3.8202,-3.8427,-3.8797,-3.8833,-3.9076,-3.9493,-3.9403,-3.9798,-4.0397,-4.0337,-4.0367,-4.0576,-4.1145,-4.1535,-4.1784,-4.2349,-4.2849,-4.3342,-4.3731,-4.4197,-4.4534,-4.4381,-4.4458,-4.4479,-4.3676,-4.2846,-4.2112,-4.2014,-4.2021,-4.2051,-4.2112,-4.2241,-4.2149,-4.1505,-4.1894,-4.2285,-4.1765,-4.2677,-4.3624,-4.3932,-4.4798,-4.542,-4.5167,-4.5167,-4.4943,-4.4099,-4.3907,-4.3842,-4.3674,-4.3728,-4.382,-4.3716,-4.4329,-4.4492,-4.3848,-4.3913,-4.3913,-4.3848,-4.2553,-4.1839,-4.1839,-4.1774,-4.1385,-4.0642,-4.0575,-4.0218,-3.9635,-4.0316,-4.0761,-4.0975,-4.2643,-4.3056,-2.72,-2.5855,-2.5048,-2.5244,-2.53,0.0,-2.555,-2.5827,-2.6134,-2.6721,-2.6917,-2.6884,-2.6464,-2.7023,-2.7437,-2.7081,-2.7826,-2.9444,-3.2367,-3.2526,-3.2753,-3.3817,-3.4038,-3.4431,-3.5304,-3.5503,-3.5892,-3.6626,-3.6889,-3.6978,-3.6978,-3.7091,-3.7158,-3.7056,-3.7056,-3.7173,-3.7433,-3.7586,-3.7777,-3.7967,-3.8306,-3.8575,-3.8833,-3.898,-3.946,-4.0187,-3.9649,-3.9798,-4.0367,-3.9828,-4.0217,-4.1205,-4.1324,-4.1535,-4.1686,-4.1686,-4.2266,-4.3092,-4.3176,-4.3724,-4.4412,-4.4496,-4.4572,-4.4541,-4.438,-4.3738,-4.2908,-4.2173,-4.2132,-4.2365,-4.2914,-4.3547,-4.399,-4.3716,-4.338,-4.3234,-4.3631,-4.3509,-4.3591,-4.4332,-4.4887,-4.5129,-4.4792,-4.498,-4.5024,-4.4531,-4.4143,-4.4184,-4.4992,-4.4768,-4.4741,-4.5164,-4.5778,-4.5749,-4.469,-4.5079,-4.5176,-4.4625,-4.3783,-4.3298,-4.3298,-4.2747,-4.2099,-4.1417,-4.0986,-4.0688,-4.0557,-4.1211,-4.1659,-4.1871,-4.2933,-4.332,-2.7209,-2.6199,-2.5718,-2.5651,-2.5653,0.0,0.0,-2.555,-2.5271,-2.555,-2.5273,-2.4806,-2.4306,-2.4662,-2.5015,-2.4874,-2.5762,-2.7215,-2.9406,-3.0853,-3.2156,-3.3578,-3.3643,-3.3965,-3.4903,-3.4899,-3.5282,-3.6434,-3.681,-3.6978,-3.6978,-3.6978,-3.6978,-3.6978,-3.7095,-3.7173,-3.7289,-3.7672,-3.7853,-3.7777,-3.8352,-3.8649,-3.8649,-3.8943,-3.9586,-4.0367,-3.9709,-3.9798,-4.0337,-3.9679,-3.9798,-4.0397,-4.0397,-4.0471,-4.0604,-4.1302,-4.1972,-4.2629,-4.3373,-4.3991,-4.4458,-4.4572,-4.461,-4.461,-4.461,-4.4318,-4.3775,-4.2877,-4.3013,-4.3536,-4.3874,-4.4288,-4.451,-4.4028,-4.3966,-4.3966,-4.3966,-4.3966,-4.4058,-4.451,-4.4942,-4.5055,-4.4648,-4.5017,-4.5167,-4.4685,-4.4663,-4.4903,-4.5437,-4.5476,-4.5607,-4.6033,-4.6389,-4.6429,-4.5888,-4.6147,-4.6212,-4.5856,-4.5144,-4.4755,-4.4755,-4.4399,-4.3881,-4.3232,-4.2582,-4.2093,-4.1673,-4.251,-4.2633,-4.2127,-4.2999,-4.3616,-2.7346,-2.6585,-2.6425,-2.6606,-2.6335,-2.6087,0.0,0.0,0.0,-2.4203,-2.3633,-2.2962,-2.2273,-2.2379,-2.2671,-2.2901,-2.3681,-2.4907,-2.6729,-2.9132,-3.1274,-3.2841,-3.2818,-3.3032,-3.4074,-3.4088,-3.4643,-3.5929,-3.6429,-3.6718,-3.6718,-3.6905,-3.6978,-3.6978,-3.7134,-3.725,-3.7289,-3.7863,-3.7938,-3.7625,-3.8464,-3.8723,-3.853,-3.9091,-3.9742,-4.0367,-3.9828,-3.9918,-4.0337,-3.9679,-3.9373,-3.9373,-3.9373,-3.9373,-3.9559,-4.1016,-4.1714,-4.2203,-4.3647,-4.4327,-4.4572,-4.4534,-4.4534,-4.4534,-4.4572,-4.4517,-4.4295,-4.3707,-4.3966,-4.4456,-4.4579,-4.461,-4.4449,-4.3857,-4.4172,-4.4418,-4.3857,-4.4202,-4.461,-4.461,-4.4905,-4.5055,-4.4685,-4.5129,-4.5315,-4.4723,-4.5129,-4.5463,-4.5431,-4.5828,-4.6223,-4.6512,-4.6582,-4.6687,-4.6892,-4.6892,-4.6892,-4.6892,-4.6342,-4.6018,-4.6018,-4.5888,-4.5532,-4.4982,-4.4302,-4.3654,-4.307,-4.3813,-4.3581,-4.2493,-4.3366,-4.4083,-2.7085,-2.628,-2.6342,-2.8188,-2.7142,-2.6099,-2.7825,0.0,-2.4833,-2.3792,0.0,-2.2746,-2.1544,0.0,0.0,-2.1642,-2.2087,-2.3205,-2.5466,-2.6412,-2.7621,-2.9743,-2.9457,-2.9792,-3.1629,-3.2923,-3.3967,-3.4646,-3.5232,-3.56,-3.56,-3.6465,-3.6978,-3.6978,-3.7017,-3.7095,-3.7289,-3.7711,-3.7825,-3.7625,-3.8575,-3.887,-3.853,-3.9713,-4.0337,-4.0397,-4.0337,-4.0337,-4.0337,-3.9679,-3.9373,-3.9373,-3.9373,-3.9373,-3.9499,-4.0437,-4.1321,-4.2143,-4.3098,-4.3929,-4.4572,-4.4381,-4.4305,-4.4343,-4.4534,-4.4209,-4.384,-4.4326,-4.4079,-4.387,-4.4456,-4.461,-4.4534,-4.4289,-4.4396,-4.4534,-4.4251,-4.4396,-4.461,-4.461,-4.4761,-4.4911,-4.4874,-4.5241,-4.5352,-4.4911,-4.5241,-4.5426,-4.5241,-4.5719,-4.6152,-4.6298,-4.6477,-4.6687,-4.6892,-4.6892,-4.6892,-4.6892,-4.6795,-4.6763,-4.6763,-4.6147,-4.5759,-4.5694,-4.5114,-4.4821,-4.4724,-4.4821,-4.4496,-4.381,-4.4687,-4.5144,-3.0726,-3.0361,-3.0325,-3.005,-2.9067,-2.812,-2.7721,-2.6257,-2.4721,-2.3709,0.0,0.0,0.0,0.0,0.0,0.0,-2.1711,-2.2478,-2.3582,-2.4096,-2.56,-2.9038,0.0,0.0,-3.0035,-3.1318,-3.2378,-3.2976,-3.3636,-3.4427,-3.5354,-3.5845,-3.6362,-3.695,-3.7095,-3.7134,-3.7134,-3.7634,-3.7787,-3.7625,-3.8501,-3.8833,-3.8716,-3.9587,-4.0144,-4.0397,-4.0107,-4.0144,-4.0337,-3.9679,-3.9373,-3.9469,-3.9828,-3.9738,-3.9529,-4.0835,-4.1593,-4.2173,-4.3464,-4.4205,-4.4572,-4.4343,-4.4381,-4.4458,-4.4419,-4.4311,-4.424,-4.4548,-4.4425,-4.4271,-4.4548,-4.461,-4.4572,-4.4496,-4.4534,-4.4572,-4.4496,-4.4534,-4.461,-4.461,-4.4761,-4.4949,-4.5055,-4.5315,-4.5352,-4.4949,-4.5352,-4.5568,-4.5272,-4.5609,-4.6004,-4.6152,-4.6333,-4.6509,-4.6687,-4.6858,-4.6892,-4.6892,-4.6892,-4.6892,-4.6892,-4.6601,-4.6439,-4.6439,-4.6215,-4.6087,-4.6087,-4.6087,-4.5958,-4.5666,-4.5277,-4.5375,-3.3599,-3.3569,-3.3461,-3.208,-3.0922,-2.9706,-2.8075,-2.6318,-2.4741,-2.3743,-2.3093,0.0,0.0,0.0,-2.1282,-2.0947,0.0,-2.1891,-2.2103,-2.2531,-2.4123,-2.7692,-2.824,0.0,0.0,-2.9772,-3.069,-3.1524,-3.2048,-3.2954,-3.4448,-3.4909,-3.5563,-3.6521,-3.7003,-3.7134,-3.6978,-3.7558,-3.7749,-3.7625,-3.8427,-3.8797,-3.8826,-3.9764,-4.0167,-4.0231,-4.0189,-4.0167,-4.0171,-3.9619,-3.9493,-3.9738,-4.0217,-4.0217,-4.0098,-4.146,-4.207,-4.2402,-4.3747,-4.4297,-4.4343,-4.4412,-4.4381,-4.4419,-4.4381,-4.4458,-4.461,-4.461,-4.461,-4.461,-4.461,-4.461,-4.461,-4.461,-4.461,-4.461,-4.461,-4.461,-4.461,-4.461,-4.4723,-4.4874,-4.5092,-4.5278,-4.5315,-4.5055,-4.5352,-4.5531,-4.5272,-4.5499,-4.5823,-4.6076,-4.6223,-4.6404,-4.6582,-4.6756,-4.6892,-4.6892,-4.6892,-4.6892,-4.6892,-4.6892,-4.6892,-4.6892,-4.6892,-4.6892,-4.6892,-4.6892,-4.6892,-4.6894,-4.5958,-4.583,0.0,0.0,0.0,-3.4203,0.0,0.0,0.0,0.0,-2.5069,0.0,0.0,0.0,-2.2085,-2.1872,-2.1609,-2.0751,-2.0848,0.0,0.0,-2.2002,-2.3,-2.4714,-2.638,-2.7569,0.0,-2.8511,-2.9204,0.0,-3.0564,-3.1081,-3.222,-3.3652,-3.4751,-3.5402,-3.6437,-3.7017,-3.6978,-3.7433,-3.7625,-3.7625,-3.8427,-3.8797,-3.8863,-4.0569,-4.0748,-3.9787,-4.086,-4.0718,-3.9727,-3.9481,-3.9798,-4.0367,-4.0397,-4.0786,-4.1452,-4.2333,-4.268,-4.2809,-4.3706,-4.3871,-4.3832,-4.4381,-4.4305,-4.4104,-4.4458,-4.4572,-4.461,-4.461,-4.461,-4.461,-4.461,-4.461,-4.461,-4.461,-4.461,-4.461,-4.461,-4.461,-4.461,-4.461,-4.461,-4.4685,-4.4874,-4.5092,-4.5235,-4.5167,-4.5235,-4.5204,-4.5167,-4.5352,-4.5677,-4.6076,-4.6223,-4.6404,-4.6582,-4.6756,-4.6892,-4.6892,-4.6892,-4.6892,-4.6892,-4.6892,-4.6892,-4.6892,-4.6892,-4.6892,-4.6892,-4.6892,-4.6892,-4.6892,-4.6862,-4.6862,0.0,0.0,-3.8025,-3.7466,0.0,0.0,0.0,0.0,0.0,0.0,0.0,0.0,0.0,-2.3581,-2.3474,-2.1742,-2.1211,-2.1234,0.0,-2.271,-2.334,-2.3644,-2.4677,-2.5509,-2.5787,0.0,0.0,0.0,-2.8391,0.0,-3.1633,-3.213,-3.3334,-3.5472,-3.5852,-3.6363,-3.6978,-3.7134,-3.7443,-3.8014,-3.8277,-3.8921,-3.9884,-4.0588,-4.0964,-4.1053,-4.1433,-4.1352,-4.0992,-4.0838,-4.1115,-4.1782,-4.2162,-4.2731,-4.324,-4.2728,-4.2565,-4.2839,-4.3667,-4.3949,-4.3949,-4.4143,-4.422,-4.4189,-4.4343,-4.4496,-4.461,-4.461,-4.461,-4.461,-4.461,-4.461,-4.461,-4.461,-4.461,-4.461,-4.461,-4.461,-4.461,-4.461,-4.461,-4.4648,-4.4874,-4.4836,-4.4867,-4.498,-4.5241,-4.5352,-4.5235,-4.5463,-4.575,-4.5896,-4.6044,-4.6223,-4.6404,-4.6719,-4.6892,-4.6892,-4.6892,-4.6892,-4.6892,-4.6892,-4.6892,-4.6892,-4.6892,-4.6892,-4.6892,-4.6892,-4.6892,-4.6892,-4.6892,-4.6892,-4.1005,-4.0813,0.0,-3.878,-3.7747,0.0,-3.4656,0.0,-3.1929,0.0,0.0,0.0,0.0,-2.5587,-2.4928,-2.3151,-2.1902,-2.1344,0.0,-2.256,-2.2967,-2.2792,-2.3765,-2.4504,-2.4648,-2.5271,0.0,0.0,0.0,0.0,0.0,-3.137,-3.261,-3.4897,-3.5691,-3.6467,-3.7211,-3.7211,-3.7558,-3.8202,-3.8585,-3.9274,-4.0204,-4.0982,-4.1441,-4.1716,-4.1611,-4.1778,-4.1987,-4.1588,-4.2081,-4.309,-4.3509,-4.4077,-4.4556,-4.3718,-4.3498,-4.3687,-4.4182,-4.4282,-4.4213,-4.4126,-4.422,-4.4297,-4.4297,-4.4419,-4.461,-4.461,-4.461,-4.461,-4.461,-4.461,-4.461,-4.461,-4.461,-4.461,-4.461,-4.461,-4.461,-4.461,-4.4648,-4.4723,-4.4761,-4.4761,-4.4761,-4.498,-4.5167,-4.5278,-4.5278,-4.5531,-4.5714,-4.5787,-4.6004,-4.6187,-4.6404,-4.6719,-4.6892,-4.6892,-4.6892,-4.6892,-4.6892,-4.6892,-4.6892,-4.6892,-4.6892,-4.6892,-4.6892,-4.6892,-4.6892,-4.6892,-4.6892,-4.6892]},{"header":{"parameterUnit":"m.s-1","parameterCategory":1,"la1":30.6,"la2":29.2853,"lo1":-89.7004,"lo2":-87.6739,"dy":0.0162,"dx":0.0183,"nx":112,"ny":82,"refTime":"2024-04-15T06:00:00:Z","depth":0,"parameterNumber":3,"parameterNumberName":"V-component_of_WINDS"},"data":[0.0,0.0,0.0,0.0,0.0,0.0,0.0,0.0,0.0,0.0,0.0,0.0,0.0,0.0,0.0,0.0,0.0,0.0,0.0,0.0,0.0,0.0,0.0,0.0,0.0,0.0,0.0,0.0,0.0,0.0,0.0,0.0,0.0,0.0,0.0,0.0,0.0,0.0,0.0,0.0,0.0,0.0,0.0,0.0,0.0,0.0,0.0,0.0,0.0,0.0,0.0,0.0,0.0,0.0,0.0,0.0,0.0,0.0,0.0,0.0,0.0,0.0,0.0,0.0,0.0,0.0,0.0,0.0,0.0,0.0,0.0,0.0,0.0,0.0,0.0,0.0,0.0,0.0,0.0,0.0,0.0,0.0,0.0,0.0,0.0,0.0,0.0,0.0,0.0,0.0,1.312,1.4019,1.5413,1.6353,1.6683,1.6299,1.5637,1.4546,0.0,0.0,0.0,0.0,0.0,0.0,0.0,0.0,0.0,0.0,0.0,0.0,0.0,0.0,0.0,0.0,0.0,0.0,0.0,0.0,0.0,0.0,0.0,0.0,0.0,0.0,0.0,0.0,0.0,0.0,0.0,0.0,0.0,0.0,0.0,0.0,0.0,0.0,0.0,0.0,0.0,0.0,0.0,0.0,0.0,0.0,0.0,0.0,0.0,0.0,0.0,0.0,0.0,0.0,0.0,0.0,0.0,0.0,0.0,0.0,0.0,0.0,0.0,0.0,0.0,0.0,0.0,0.0,0.0,0.0,0.0,0.0,0.0,0.0,0.0,0.0,0.0,0.0,0.0,0.0,0.0,0.0,0.0,0.0,0.0,0.0,0.0,0.0,0.0,0.0,0.0,0.0,0.0,0.0,0.0,0.0,0.0,0.0,0.0,0.0,0.0,0.0,0.0,0.0,1.4227,1.6253,1.6495,1.673,1.7138,1.6481,1.549,1.4334,0.0,0.0,0.0,0.0,0.0,0.0,0.0,0.0,0.0,0.0,0.0,0.0,0.0,0.0,0.0,0.0,0.0,0.0,0.0,0.0,0.0,0.0,0.0,0.0,0.0,0.0,0.0,0.0,0.0,0.0,0.0,0.0,0.0,0.0,0.0,0.0,0.0,0.0,0.0,0.0,0.0,0.0,0.0,0.0,0.0,0.0,0.0,0.0,0.0,0.0,0.0,0.0,0.0,0.0,0.0,0.0,0.0,0.0,0.0,0.0,0.0,0.0,0.0,0.0,0.0,0.0,0.0,0.0,0.0,0.0,0.0,0.0,0.0,0.0,0.0,0.0,0.0,0.0,0.0,0.0,0.0,0.0,0.0,0.0,0.0,0.0,0.0,0.0,0.0,0.0,0.0,0.0,0.0,0.0,0.0,0.0,0.0,0.0,0.0,0.0,0.0,0.0,0.0,1.3738,1.5519,1.7194,1.7246,1.734,1.7699,1.7175,1.6373,1.5246,1.3503,0.0,0.0,0.0,0.0,0.0,0.0,0.0,0.0,0.0,0.0,0.0,0.0,0.0,0.0,0.0,0.0,0.0,0.0,0.0,0.0,0.0,0.0,0.0,0.0,0.0,0.0,0.0,0.0,0.0,0.0,0.0,0.0,0.0,0.0,0.0,0.0,0.0,0.0,0.0,0.0,0.0,0.0,0.0,0.0,0.0,0.0,0.0,0.0,0.0,0.0,0.0,0.0,0.0,0.0,0.0,0.0,0.0,0.0,0.0,0.0,0.0,0.0,0.0,0.0,0.0,0.0,0.0,0.0,0.0,0.0,0.0,0.0,0.0,0.0,0.0,0.0,0.0,0.0,0.0,0.0,0.0,0.0,0.0,0.0,0.0,0.0,0.0,0.0,0.0,0.0,0.0,0.0,0.0,0.0,0.0,0.0,0.0,0.0,0.0,0.0,0.0,0.0,1.5267,1.6566,1.7671,1.7807,1.7854,1.8087,1.7552,1.6746,1.5701,1.3842,0.0,0.0,0.0,0.0,0.0,0.0,0.0,0.0,0.0,0.0,0.0,0.0,0.0,0.0,0.0,0.0,0.0,0.0,0.0,0.0,0.0,0.0,0.0,0.0,0.0,0.0,0.0,0.0,0.0,0.0,0.0,0.0,0.0,0.0,0.0,0.0,0.0,0.0,0.0,0.0,0.0,0.0,0.0,0.0,0.0,0.0,0.0,0.0,0.0,0.0,0.0,0.0,0.0,0.0,0.0,0.0,0.0,0.0,0.0,0.0,0.0,0.0,0.0,0.0,0.0,0.0,0.0,0.0,0.0,0.0,0.0,0.0,0.0,0.0,0.0,0.0,0.0,0.0,0.0,0.0,0.0,0.0,0.0,0.0,0.0,0.0,0.0,0.0,0.0,0.0,0.0,0.0,0.0,0.0,0.0,0.0,0.0,0.0,0.0,0.0,0.0,0.0,1.5917,1.707,1.7964,1.8087,1.8087,1.8087,1.6868,1.567,1.4691,1.2912,0.0,0.0,0.0,0.0,0.0,0.0,0.0,0.0,0.0,0.0,0.0,0.0,0.0,0.0,0.0,0.0,0.0,0.0,0.0,0.0,0.0,0.0,0.0,0.0,0.0,0.0,0.0,0.0,0.0,0.0,0.0,0.0,0.0,0.0,0.0,0.0,0.0,0.0,0.0,0.0,0.0,0.0,0.0,0.0,0.0,0.0,0.0,0.0,0.0,0.0,0.0,0.0,0.0,0.0,0.0,0.0,0.0,0.0,0.0,0.0,0.0,0.0,0.0,0.0,0.0,0.0,0.0,0.0,0.0,0.0,0.0,0.0,0.0,0.0,0.0,0.0,0.0,0.0,0.0,0.0,0.0,0.0,0.0,0.0,0.0,0.0,0.0,0.0,0.0,0.0,0.0,0.0,0.0,0.0,0.0,0.0,0.0,0.0,0.0,0.0,0.0,0.0,1.6592,1.7883,1.8334,1.8458,1.8596,1.8781,1.7894,1.6705,1.5365,0.0,0.0,0.0,0.0,0.0,0.0,0.0,0.0,0.0,0.0,0.0,0.0,0.0,0.0,0.0,0.0,0.0,0.0,0.0,0.0,0.0,0.0,0.0,0.0,0.0,0.0,0.0,0.0,0.0,0.0,0.0,0.0,0.0,0.0,0.0,0.0,0.0,0.0,0.0,0.0,0.0,0.0,0.0,0.0,0.0,0.0,0.0,0.0,0.0,0.0,0.0,0.0,0.0,0.0,0.0,0.0,0.0,0.0,0.0,0.0,0.0,0.0,0.0,0.0,0.0,0.0,0.0,0.0,0.0,0.0,0.0,0.0,0.0,0.0,0.0,0.0,0.0,0.0,0.0,0.0,0.0,0.0,0.0,0.0,0.0,0.0,0.0,0.0,0.0,0.0,0.0,0.0,0.0,0.0,0.0,0.0,0.0,0.0,0.0,0.0,0.0,0.0,1.5127,1.7191,1.8603,1.8719,1.8827,1.9058,1.9288,1.8567,1.7417,1.5902,0.0,0.0,0.0,0.0,0.0,0.0,0.0,0.0,0.0,0.0,0.0,0.0,0.0,0.0,0.0,0.0,0.0,0.0,0.0,0.0,0.0,0.0,0.0,0.0,0.0,0.0,0.0,0.0,0.0,0.0,0.0,0.0,0.0,0.0,0.0,0.0,0.0,0.0,0.0,0.0,0.0,0.0,0.0,0.0,0.0,0.0,0.0,0.0,0.0,0.0,0.0,0.0,0.0,0.0,0.0,0.0,0.0,0.0,0.0,0.0,0.0,0.0,0.0,0.0,0.0,0.0,0.0,0.0,0.0,0.0,0.0,0.0,0.0,0.0,0.0,0.0,0.0,0.0,0.0,0.0,0.0,0.0,0.0,0.0,0.0,0.0,0.0,0.0,0.0,0.0,0.0,0.0,0.0,0.0,0.0,0.0,0.0,0.0,0.0,0.0,0.0,0.0,1.5389,1.761,1.9196,1.9196,1.9196,1.9288,1.9579,1.8615,1.7439,0.0,0.0,0.0,0.0,0.0,0.0,0.0,0.0,0.0,0.0,0.0,0.0,0.0,0.0,0.0,0.0,0.0,0.0,0.0,0.0,0.0,0.0,0.0,0.0,0.0,0.0,0.0,0.0,0.0,0.0,0.0,0.0,0.0,0.0,0.0,0.0,0.0,0.0,0.0,0.0,0.0,0.0,0.0,0.0,0.0,0.0,0.0,0.0,0.0,0.0,0.0,0.0,0.0,0.0,0.0,0.0,0.0,0.0,0.0,0.0,0.0,0.0,0.0,0.0,0.0,0.0,0.0,0.0,0.0,0.0,0.0,0.0,0.0,0.0,0.0,0.0,0.0,0.0,0.0,0.0,0.0,0.0,0.0,0.0,0.0,0.0,0.0,0.0,0.0,0.0,0.0,0.0,0.0,0.0,0.0,0.0,0.0,0.0,0.0,0.0,0.0,0.0,0.0,1.5966,1.8055,1.9487,1.9487,1.9487,1.9671,2.0081,1.955,1.8733,1.7628,0.0,0.0,0.0,0.0,0.0,0.0,0.0,0.0,0.0,0.0,0.0,0.0,0.0,0.0,0.0,0.0,0.0,0.0,0.0,0.0,0.0,0.0,0.0,0.0,0.0,0.0,0.0,0.0,0.0,0.0,0.0,0.0,0.0,0.0,0.0,0.0,0.0,0.0,0.0,0.0,0.0,0.0,0.0,0.0,0.0,0.0,0.0,0.0,0.0,0.0,0.0,0.0,0.0,0.0,0.0,0.0,0.0,0.0,0.0,0.0,0.0,0.0,0.0,0.0,0.0,0.0,0.0,0.0,0.0,0.0,0.0,0.0,0.0,0.0,0.0,0.0,0.0,0.0,0.0,0.0,0.0,0.0,0.0,0.0,0.0,0.0,0.0,0.0,0.0,0.0,0.0,0.0,0.0,0.0,0.0,0.0,0.0,0.0,0.0,0.0,0.0,0.0,1.6158,1.8268,1.9762,1.9853,1.9899,2.0065,2.0546,2.0383,1.9799,1.8834,0.0,0.0,0.0,0.0,0.0,0.0,0.0,0.0,0.0,0.0,0.0,0.0,0.0,0.0,0.0,0.0,0.0,0.0,0.0,0.0,0.0,0.0,0.0,0.0,0.0,0.0,0.0,0.0,0.0,0.0,0.0,0.0,0.0,0.0,0.0,0.0,0.0,0.0,0.0,0.0,0.0,0.0,0.0,0.0,0.0,0.0,0.0,0.0,0.0,0.0,0.0,0.0,0.0,0.0,0.0,0.0,0.0,0.0,0.0,0.0,0.0,0.0,0.0,0.0,0.0,0.0,0.0,0.0,0.0,0.0,0.0,0.0,0.0,0.0,0.0,0.0,0.0,0.0,0.0,0.0,0.0,0.0,0.0,0.0,0.0,0.0,0.0,0.0,0.0,0.0,0.0,0.0,0.0,0.0,0.0,0.0,0.0,0.0,0.0,0.0,0.0,0.0,1.6212,1.8438,2.011,2.0292,2.0337,2.0564,2.1042,2.1042,2.0712,1.9846,0.0,0.0,0.0,0.0,0.0,0.0,0.0,0.0,0.0,0.0,0.0,0.0,0.0,0.0,0.0,0.0,0.0,0.0,0.0,0.0,0.0,0.0,0.0,0.0,0.0,0.0,0.0,0.0,0.0,0.0,0.0,0.0,0.0,0.0,0.0,0.0,0.0,0.0,0.0,0.0,0.0,0.0,0.0,0.0,0.0,0.0,0.0,0.0,0.0,0.0,0.0,0.0,0.0,0.0,0.0,0.0,0.0,0.0,0.0,0.0,1.7693,1.6879,0.0,0.0,0.0,0.0,0.0,0.0,0.0,0.0,0.0,0.0,0.0,0.0,0.0,0.0,0.0,0.0,0.0,0.0,0.0,0.0,0.0,0.0,0.0,0.0,0.0,0.0,0.0,0.0,0.0,0.0,0.0,0.0,0.0,0.0,0.0,0.0,0.0,0.0,0.0,0.0,1.6935,1.9183,2.0727,2.0654,2.0772,2.1042,2.1508,2.1553,2.1493,2.1352,2.0149,0.0,0.0,0.0,0.0,0.0,0.0,0.0,0.0,0.0,0.0,0.0,0.0,0.0,0.0,0.0,0.0,0.0,0.0,0.0,0.0,0.0,0.0,0.0,0.0,0.0,0.0,0.0,0.0,0.0,0.0,0.0,0.0,0.0,0.0,0.0,0.0,0.0,0.0,0.0,0.0,0.0,0.0,0.0,0.0,0.0,0.0,0.0,0.0,0.0,0.0,0.0,0.0,0.0,0.0,0.0,0.0,0.0,0.0,0.0,2.0356,1.9275,0.0,0.0,0.0,0.0,0.0,0.0,0.0,0.0,0.0,0.0,0.0,0.0,0.0,0.0,0.0,0.0,0.0,0.0,0.0,0.0,0.0,0.0,0.0,0.0,0.0,0.0,0.0,0.0,0.0,0.0,0.0,0.0,0.0,0.0,0.0,0.0,0.0,0.0,0.0,0.0,1.7296,1.9477,2.0997,2.1015,2.1239,2.1508,2.1865,2.1998,2.2038,2.2095,2.1033,0.0,0.0,0.0,0.0,0.0,0.0,0.0,0.0,0.0,0.0,0.0,0.0,0.0,0.0,0.0,0.0,0.0,0.0,0.0,0.0,0.0,0.0,0.0,0.0,0.0,0.0,0.0,0.0,0.0,0.0,0.0,0.0,0.0,0.0,0.0,0.0,0.0,0.0,0.0,0.0,0.0,0.0,0.0,0.0,0.0,0.0,0.0,0.0,0.0,0.0,0.0,0.0,0.0,2.516,2.5544,2.5462,2.5735,2.553,2.4836,2.2952,2.1769,2.1173,2.0647,0.0,0.0,0.0,0.0,0.0,0.0,0.0,0.0,0.0,0.0,0.0,0.0,0.0,0.0,0.0,0.0,0.0,0.0,0.0,0.0,0.0,0.0,0.0,0.0,2.2994,2.2796,1.9605,0.0,0.0,0.0,0.0,0.0,0.0,0.0,0.0,0.0,0.0,0.0,1.7685,1.9722,2.1284,2.1437,2.166,2.1865,2.2176,2.2397,2.253,2.253,2.1892,2.1208,0.0,0.0,0.0,0.0,0.0,0.0,0.0,0.0,0.0,0.0,0.0,0.0,0.0,0.0,0.0,0.0,0.0,0.0,0.0,0.0,0.0,0.0,0.0,0.0,0.0,0.0,0.0,0.0,0.0,0.0,0.0,0.0,2.1052,2.1947,0.0,0.0,0.0,0.0,0.0,0.0,0.0,0.0,0.0,0.0,0.0,0.0,0.0,2.4676,2.5201,2.5526,2.593,2.6328,2.6462,2.6483,2.6502,2.6704,2.6683,2.6396,2.6297,0.0,2.3227,2.3309,0.0,0.0,0.0,0.0,0.0,0.0,0.0,0.0,0.0,0.0,0.0,0.0,0.0,0.0,0.0,0.0,0.0,0.0,0.0,0.0,0.0,0.0,2.302,2.3928,2.4277,2.4119,0.0,2.1648,2.0305,1.9979,1.8738,0.0,0.0,0.0,0.0,0.0,0.0,0.0,1.8463,2.049,2.1865,2.1687,2.1883,2.222,2.2662,2.2882,2.3013,2.3013,2.2781,2.251,2.2181,2.1221,0.0,0.0,0.0,0.0,0.0,0.0,0.0,0.0,0.0,0.0,0.0,0.0,0.0,0.0,0.0,0.0,0.0,0.0,0.0,0.0,0.0,0.0,0.0,0.0,0.0,0.0,0.0,0.0,0.0,2.145,2.2822,2.3772,2.3637,2.3536,0.0,0.0,0.0,0.0,0.0,0.0,0.0,0.0,0.0,2.4989,2.5719,2.64,2.6992,2.7204,2.7483,2.7806,2.7736,2.7607,2.7448,2.7519,2.7519,2.7448,2.7678,2.7117,2.604,2.5337,2.4851,2.4363,0.0,0.0,0.0,0.0,2.0133,2.049,2.0702,2.1247,2.1861,2.2039,0.0,0.0,0.0,0.0,0.0,0.0,0.0,0.0,0.0,0.0,2.4491,2.481,2.5076,2.5191,2.4882,2.3932,2.2916,0.0,2.1357,2.0578,1.9893,0.0,0.0,0.0,0.0,1.9867,1.9762,2.1226,2.222,2.2087,2.2309,2.2618,2.2925,2.3188,2.3363,2.3493,2.3225,2.3028,2.2901,2.2079,2.1095,0.0,0.0,0.0,0.0,0.0,0.0,0.0,0.0,0.0,0.0,0.0,0.0,0.0,0.0,0.0,0.0,0.0,0.0,0.0,0.0,0.0,0.0,0.0,0.0,0.0,0.0,0.0,0.0,2.3205,2.437,2.5516,2.5417,2.5273,0.0,0.0,0.0,0.0,0.0,0.0,2.5303,2.5774,2.6159,2.6391,2.7204,2.7917,2.8502,2.8666,2.8886,2.9085,2.8934,2.8761,2.855,2.8421,2.8357,2.8404,2.8484,2.8432,2.8202,2.706,2.639,2.5936,2.5111,2.4273,2.3526,2.3129,2.3107,2.3361,2.3505,2.4097,2.4737,2.4792,2.4665,2.4418,2.3885,0.0,0.0,0.0,0.0,2.3135,2.3771,2.4709,2.5492,2.5398,2.5644,2.5864,2.5696,2.5415,2.4839,0.0,2.3306,2.2894,2.2185,0.0,0.0,0.0,2.076,2.117,2.0962,2.1892,2.2574,2.253,2.2706,2.2969,2.3276,2.358,2.3797,2.397,2.3752,2.3612,2.3527,2.2874,2.213,2.1217,0.0,0.0,0.0,0.0,0.0,0.0,0.0,0.0,0.0,0.0,0.0,0.0,0.0,0.0,0.0,0.0,0.0,0.0,0.0,0.0,0.0,0.0,0.0,0.0,0.0,0.0,0.0,0.0,0.0,2.6755,2.7481,0.0,0.0,0.0,0.0,2.7348,2.7148,2.7371,2.8253,2.8087,2.8145,2.853,2.8615,2.8994,2.971,2.971,2.9829,3.0117,3.0095,3.0095,3.0073,2.9615,2.9397,2.9423,2.8964,2.8885,2.9004,2.8496,2.8166,2.7917,2.7357,2.711,2.6979,2.6302,2.5754,2.547,2.6229,2.638,2.6349,2.7193,2.7032,2.6386,2.5805,2.512,0.0,0.0,2.5074,2.4755,2.547,2.5583,2.558,2.5795,2.5884,2.5906,2.5906,2.5884,2.5585,0.0,2.4083,2.3557,2.2856,0.0,2.1738,2.1451,2.1644,2.183,2.1838,2.2555,2.3013,2.2794,2.2969,2.3276,2.3711,2.4186,2.4444,2.4466,2.4659,2.4701,2.4467,2.378,2.3227,2.2778,2.213,0.0,0.0,0.0,0.0,0.0,0.0,0.0,0.0,0.0,0.0,0.0,0.0,0.0,0.0,0.0,0.0,0.0,0.0,0.0,0.0,0.0,0.0,0.0,0.0,0.0,0.0,0.0,0.0,2.8383,2.898,0.0,2.9059,2.9083,2.9081,2.9083,2.9556,2.9959,3.0144,3.0222,3.0125,2.9952,3.0071,3.0312,3.0497,3.0193,3.0264,3.0646,3.0362,3.0209,3.0209,3.0229,2.9965,2.9514,2.9811,2.973,2.9393,2.9511,2.9173,2.8544,2.8364,2.8095,2.7781,2.7581,2.7178,2.6883,2.7235,2.7275,2.7192,2.7509,2.7567,2.7341,2.6655,2.6255,2.607,2.6123,2.6001,2.5936,2.62,2.6219,2.6225,2.6321,2.624,2.6115,2.6115,2.6115,2.5966,2.55,2.5161,2.4823,2.4405,2.4072,2.3721,2.3288,2.3328,2.3323,2.3145,2.3381,2.3537,2.345,2.3667,2.3927,2.4229,2.4572,2.4577,2.4093,2.4577,2.4556,2.3825,2.3885,2.3597,2.2849,2.2287,2.125,0.0,0.0,0.0,0.0,0.0,0.0,0.0,0.0,0.0,0.0,0.0,0.0,0.0,0.0,0.0,0.0,0.0,0.0,0.0,0.0,0.0,0.0,0.0,0.0,0.0,2.793,2.9338,3.0192,3.0613,3.0901,3.1043,3.1089,3.118,3.1275,3.1668,3.1895,3.1817,3.1823,3.1513,3.0994,3.1005,3.1034,3.1127,3.0668,3.069,3.1149,3.0843,3.069,3.069,3.0712,3.0361,2.9777,3.0078,2.9933,2.9531,2.9852,2.9716,2.9263,2.9194,2.8875,2.8485,2.8411,2.8065,2.7698,2.7978,2.8203,2.8398,2.8345,2.8428,2.8418,2.7935,2.7736,2.7666,2.7474,2.7479,2.7412,2.7249,2.7099,2.6922,2.6838,2.6601,2.6279,2.6102,2.6191,2.6216,2.5854,2.5603,2.546,2.5359,2.5041,2.4703,2.4551,2.4421,2.4249,2.4057,2.397,2.3884,2.3797,2.4034,2.4335,2.4615,2.4619,2.4466,2.4129,2.4626,2.4459,2.3399,2.3946,2.3697,2.2543,2.2178,2.137,2.0126,0.0,0.0,0.0,0.0,0.0,0.0,0.0,0.0,0.0,0.0,0.0,0.0,0.0,0.0,0.0,0.0,0.0,0.0,0.0,0.0,0.0,0.0,0.0,2.9165,2.976,3.0629,3.2065,3.2441,3.2771,3.3262,3.2864,3.2984,3.3911,3.3338,3.3078,3.3361,3.2842,3.2319,3.1753,3.1304,3.1212,3.1586,3.1149,3.1149,3.1578,3.1607,3.1607,3.1556,3.1105,3.0624,3.0188,2.9733,2.9534,2.9485,2.9531,2.9806,3.017,2.9887,2.9619,2.93,2.9059,2.8457,2.797,2.853,2.9212,2.9875,2.9796,2.9635,2.9498,2.9635,2.9555,2.9404,2.9616,2.9508,2.9253,2.876,2.8094,2.7541,2.731,2.6951,2.6479,2.5945,2.6214,2.6375,2.5662,2.5348,2.5276,2.5568,2.5016,2.4659,2.5126,2.4786,0.0,2.4507,2.4335,2.41,2.3884,2.4057,2.4401,2.4871,2.4401,2.4227,2.4662,2.4898,2.4492,2.3386,2.404,2.3672,2.2092,2.1846,2.1339,2.0624,0.0,0.0,0.0,0.0,0.0,0.0,0.0,0.0,0.0,0.0,0.0,0.0,0.0,0.0,0.0,0.0,0.0,0.0,0.0,0.0,0.0,2.8899,3.017,3.0537,3.1622,3.2674,3.3498,3.3763,3.3814,3.3601,3.3743,3.391,3.4006,3.415,3.4318,3.4413,3.4221,3.3596,3.2293,3.2472,3.2094,3.1105,3.1302,3.1396,3.1322,3.133,3.1352,3.13,3.1053,3.071,3.0188,3.0259,2.998,2.9531,2.9852,3.008,3.0193,3.01,3.0007,2.9913,2.9864,2.9616,2.9324,2.932,2.9325,2.9329,2.9265,2.9167,2.914,2.9153,2.9136,2.9024,2.8889,2.8688,2.8349,2.7713,2.7458,2.7309,2.7231,2.7035,2.6775,2.664,2.6707,2.6652,2.6105,2.5713,2.5461,2.5568,2.542,2.5251,2.502,2.4871,0.0,2.455,2.4615,2.47,2.4615,2.4956,2.5274,2.538,2.5395,2.5126,2.4609,2.512,2.4973,2.3937,2.4602,2.443,2.3237,2.2158,2.1403,0.0,0.0,0.0,0.0,0.0,0.0,0.0,0.0,0.0,0.0,0.0,0.0,0.0,0.0,0.0,0.0,0.0,0.0,0.0,0.0,0.0,0.0,3.0374,3.1576,3.223,3.3078,3.379,3.4337,3.4506,3.446,3.4174,3.4412,3.4509,3.4342,3.4607,3.4677,3.4482,3.4482,3.3805,3.2365,3.2491,3.2094,3.1058,3.1243,3.1331,3.1373,3.1396,3.1469,3.1505,3.1142,3.0838,3.0668,3.0418,3.0115,2.9823,2.9988,3.0125,0.0,0.0,0.0,0.0,0.0,2.9633,2.964,2.9637,2.9619,2.96,2.9656,2.9468,2.9236,2.9447,2.9253,2.8934,2.8816,2.8781,2.8751,2.8244,2.799,2.7828,2.7851,2.7405,2.6958,2.6793,2.6867,2.6835,2.6181,2.5987,0.0,2.5757,2.5481,2.527,2.5316,2.5168,2.4999,2.4977,2.4999,2.5041,2.5041,2.5253,2.5464,2.5612,2.5494,0.0,0.0,0.0,2.5315,2.4662,2.4596,0.0,0.0,0.0,2.2218,2.2015,0.0,0.0,0.0,2.0307,2.0046,0.0,0.0,0.0,0.0,0.0,0.0,0.0,0.0,0.0,0.0,0.0,0.0,0.0,0.0,0.0,0.0,3.1576,3.2818,3.3959,3.4078,3.4246,3.4727,3.4775,3.4775,3.4775,3.4775,3.4775,3.4775,3.4726,3.4482,3.404,3.3941,0.0,0.0,0.0,3.1622,3.128,3.1124,3.1192,3.1578,3.1564,3.1666,3.1891,3.1212,3.097,3.1147,3.0289,2.9989,3.0113,2.9986,3.0011,3.0125,2.9956,2.9669,2.9355,2.914,2.9197,2.9429,2.9741,0.0,0.0,3.0347,2.9933,2.9496,2.991,2.9605,2.906,2.9013,2.9316,2.9599,2.9291,2.8925,2.8625,2.8582,2.7874,2.7116,2.6657,2.6909,2.693,2.6071,2.63,2.6467,2.6032,2.537,2.5135,2.5799,2.5506,2.5338,2.5528,2.538,2.5253,2.5253,0.0,0.0,2.5612,2.5161,2.4975,2.5127,2.5564,2.5721,2.5486,2.4536,2.4003,2.3958,2.3713,2.3534,2.3423,2.3238,2.3104,2.2979,2.1934,2.1688,0.0,0.0,0.0,0.0,0.0,0.0,0.0,0.0,0.0,0.0,0.0,0.0,0.0,0.0,0.0,3.1247,3.2437,3.348,3.4486,3.4631,3.4655,3.4775,3.4775,3.4775,3.4775,3.4775,3.4775,3.4775,3.4384,3.4089,3.3991,3.3595,3.2967,3.212,3.2234,3.1957,3.1329,3.1403,3.1389,3.127,0.0,0.0,3.1351,3.0883,3.0585,3.0417,3.0208,2.9954,2.9666,2.9828,2.9943,2.9966,3.0079,3.0099,3.0007,2.996,2.9983,3.003,3.0077,2.9729,2.9259,2.9303,2.9083,2.8831,2.9124,2.9118,0.0,2.8485,2.8559,2.8576,2.777,2.783,2.8,2.7772,2.7469,2.7167,2.7052,2.7121,2.7126,2.6767,2.6629,2.6509,2.6199,2.5902,2.565,2.5675,2.557,2.5464,2.5295,2.5422,2.5506,2.5506,2.5675,2.578,2.5864,2.5898,2.5912,2.5994,2.6281,2.6322,2.6076,2.6061,2.5851,2.5408,2.5368,2.4943,2.4198,2.3993,2.3583,2.3001,2.2583,2.2381,0.0,0.0,0.0,0.0,0.0,0.0,0.0,0.0,0.0,0.0,0.0,2.9796,3.0355,0.0,3.2337,3.2861,3.3693,3.4389,3.4751,3.4775,3.4775,3.4775,3.4775,3.4775,3.4775,3.4775,3.4677,3.4433,3.4139,3.3793,3.3224,3.2924,3.2497,3.1923,3.1973,3.1844,3.1478,3.1592,3.1527,3.1424,3.144,3.1381,3.1207,3.0685,3.0405,3.0361,2.985,2.968,2.9726,2.985,2.9897,2.9943,3.0125,3.0216,3.0216,3.0216,3.0216,3.0216,3.0352,2.9912,2.9332,2.9656,2.9141,2.8509,2.8881,2.8692,2.842,2.842,2.8692,2.8851,2.8369,2.8363,2.8379,2.7975,2.7538,2.719,2.719,2.719,2.7108,2.682,2.6674,2.6467,2.6115,2.6074,2.599,2.578,2.5738,2.5675,2.5549,2.5759,2.5906,2.5906,2.599,2.6074,2.6074,2.6282,2.649,2.6697,2.682,2.6862,2.6697,2.682,2.6767,2.6499,2.6187,2.5706,2.5111,2.4654,2.4084,2.3372,2.3145,2.2993,0.0,0.0,0.0,0.0,0.0,0.0,0.0,3.0834,3.094,3.1437,3.1888,3.2381,3.2897,3.3863,3.4499,3.4195,3.463,3.5017,3.4823,3.4775,3.4823,3.4872,3.4823,3.4775,3.4775,3.4726,3.4482,3.404,3.3793,3.3323,3.2471,3.237,3.2141,3.1761,3.1737,3.1686,3.1761,3.1636,3.1629,3.1629,3.152,3.1381,3.1208,3.0526,3.0263,3.0352,2.9468,2.936,2.9761,2.9872,2.9897,2.9829,3.008,3.0216,3.0216,3.0216,3.0216,3.0216,3.0442,3.0072,2.9563,3.0064,2.9381,2.841,2.8739,2.8431,2.8096,2.8498,2.8923,2.923,2.9188,2.9019,2.878,2.8319,2.7694,2.719,2.719,2.719,2.7108,2.6779,2.6674,2.6531,2.6115,2.6115,2.6157,2.599,2.599,2.6032,2.6032,2.6199,2.6282,2.6282,2.624,2.6155,2.6066,2.6203,2.649,2.6907,2.6989,2.7075,2.7108,2.7149,2.719,2.7149,2.6656,2.6245,2.5874,2.5328,2.4687,2.3991,2.3698,2.35,3.0429,3.0829,3.2225,3.251,3.2516,3.2377,0.0,3.2056,3.2055,3.2216,3.2494,3.2897,3.3503,3.3722,3.3966,3.4288,3.4434,3.4581,3.4775,3.4775,3.4872,3.5114,3.492,3.4775,3.4775,3.4384,3.404,3.3991,3.3124,3.2521,3.242,3.2167,3.2044,3.1999,3.1942,3.1942,3.1999,3.1739,3.1629,3.1556,3.1192,3.0952,3.0937,3.0428,2.9969,2.958,2.9267,2.9115,2.9205,2.9714,2.9737,2.9577,3.0034,3.0216,3.0216,3.0216,3.0216,3.0216,3.0216,2.9885,2.9398,2.9246,2.8857,2.8435,2.8354,2.8347,2.8403,2.829,2.8442,2.857,2.8386,2.8167,2.8005,2.7958,2.7563,2.719,2.719,2.719,2.719,2.7149,2.6985,2.6798,2.655,2.6365,2.6199,2.6157,2.6365,2.6509,2.6509,2.655,2.655,2.655,2.6365,2.6022,2.5621,2.5378,2.547,2.5918,2.6342,2.6628,2.6674,2.7026,2.7108,2.6944,2.704,2.6788,2.6172,2.6086,2.5673,2.4926,2.4491,2.3881,3.2744,3.308,3.3732,3.348,3.3509,3.3595,3.3632,3.3709,3.3862,3.4073,3.4539,3.4856,3.4944,3.513,3.5241,3.5132,3.5086,3.5016,3.4848,3.492,3.5066,3.5187,3.4969,3.492,3.5235,3.4237,3.3595,3.377,3.2924,3.2269,3.1964,3.1964,3.2066,3.2291,3.2117,3.2066,3.2291,3.1834,3.1629,3.1629,3.1411,3.104,3.0493,3.0297,2.9794,2.9099,2.9088,2.9024,2.8978,2.9646,2.9737,2.9531,3.0034,3.0216,3.0216,3.0216,3.0216,3.0216,3.0397,2.9979,2.9442,2.9417,2.9041,2.8543,2.8394,2.8419,2.8531,2.8802,2.8793,2.8793,2.8834,2.8468,2.807,2.7951,2.7557,2.719,2.719,2.719,2.719,2.7067,2.6985,2.6862,2.6633,2.6614,2.6614,2.6614,2.649,2.6426,2.655,2.6674,2.6757,2.6757,2.6404,2.6053,2.5851,2.5521,2.5531,2.6149,2.6394,2.6663,2.6962,2.7108,2.7149,2.7067,2.7149,2.6953,2.6422,2.6422,2.599,2.5161,2.4697,2.4266,3.3967,3.4389,3.4485,3.3998,3.4277,3.4743,3.4942,3.5063,3.5244,3.559,3.5981,3.6268,3.6054,3.6222,3.6263,3.5812,3.5572,3.538,3.5066,3.5114,3.5259,3.5428,3.492,3.492,3.5764,3.4237,3.3247,3.325,3.265,3.2117,3.171,3.1964,3.224,3.2493,3.2291,3.2218,3.2342,3.1885,3.1629,3.1629,3.1476,3.0996,3.0209,2.9925,2.9471,2.8885,2.9024,2.9071,2.9024,2.9646,2.9783,2.9646,3.0034,3.0216,3.0216,3.0216,3.0216,3.0216,3.0442,3.0074,2.9565,2.9531,2.914,2.8663,2.8466,2.8459,2.8595,2.8979,2.8954,2.8831,2.9035,2.8627,2.8163,2.7934,2.7598,2.7272,2.7231,2.719,2.7149,2.7026,2.6985,2.6944,2.6715,2.6798,2.6903,2.6903,2.6614,2.649,2.6715,2.688,2.6985,2.6903,2.6426,2.6109,2.6029,2.5503,2.5529,2.6268,2.6296,2.6542,2.7085,2.719,2.719,2.719,2.719,2.7026,2.6674,2.6738,2.6371,2.5565,2.4962,2.4632,3.2898,3.3664,3.4131,3.4105,3.5063,3.6044,3.607,3.5921,3.5856,3.6225,3.6308,3.6305,3.6373,3.6405,3.631,3.6003,3.5572,3.5284,3.5524,3.538,3.538,3.5908,3.4823,3.4628,3.6216,3.4531,3.3069,3.2471,3.2167,3.2015,3.1964,3.2291,3.2493,3.2493,3.2493,3.2342,3.2015,3.1732,3.1629,3.1556,3.1149,3.0668,3.0188,2.9274,2.8929,2.9093,2.9071,2.9255,2.9485,2.9783,2.9897,2.9897,3.0125,3.0216,3.0216,3.0216,3.0216,3.0216,3.0216,3.0029,2.9697,2.9187,2.8972,2.8827,2.8345,2.8339,2.8522,2.8522,2.8363,2.8283,2.8443,2.8226,2.7904,2.7904,2.7696,2.7452,2.7231,2.719,2.719,2.719,2.719,2.7149,2.6944,2.6903,2.6903,2.6903,2.6903,2.6944,2.7149,2.719,2.7108,2.6944,2.649,2.6092,2.5811,2.5147,2.505,2.5766,2.5779,2.6057,2.6899,2.7108,2.719,2.719,2.719,2.7108,2.6903,2.7108,2.6962,2.6528,2.5524,2.4979,3.3716,3.4762,3.5634,3.5053,3.5818,3.6653,3.6449,3.6519,3.6701,3.7045,3.6826,3.6646,3.6849,3.6477,3.6098,3.6003,3.586,3.5716,3.562,3.5524,3.562,3.5955,3.5284,3.492,3.5307,3.3572,3.2723,3.34,3.242,3.1812,3.1964,3.2117,3.2291,3.2493,3.2291,3.2117,3.2015,3.171,3.1629,3.1556,3.0821,3.0362,3.0188,2.9252,2.8885,2.9117,2.9301,2.9439,2.9531,2.9943,3.0011,2.9943,3.0125,3.0216,3.0216,3.0216,3.0216,3.0216,3.0216,3.0146,2.996,2.9433,2.9272,2.9135,2.8586,2.8443,2.8522,2.8522,2.8339,2.8259,2.8459,2.8203,2.7921,2.8059,2.7777,2.747,2.7412,2.729,2.719,2.719,2.719,2.719,2.7108,2.7108,2.7067,2.6944,2.7026,2.7108,2.719,2.719,2.719,2.7108,2.6691,2.6371,2.6251,2.5714,2.5622,2.6229,2.6233,2.6479,2.7085,2.7149,2.719,2.719,2.7067,2.6985,2.6903,2.6655,2.649,2.6302,2.5543,2.5123,3.4617,3.5548,3.6215,3.5478,3.5992,3.6627,3.6449,3.6694,3.6981,3.6934,3.698,3.6922,3.6593,3.6263,3.5955,3.586,3.5716,3.5572,3.562,3.5524,3.5572,3.5812,3.538,3.5066,3.5066,3.3572,3.2823,3.34,3.2471,3.1986,3.219,3.2066,3.219,3.2617,3.224,3.2015,3.2015,3.171,3.1629,3.1556,3.0843,3.0499,3.0597,2.9785,2.9512,2.9661,2.9801,2.9827,2.976,3.008,3.0125,3.0011,3.0125,3.0216,3.0216,3.0216,3.0216,3.0216,3.0216,3.0261,3.0235,2.9589,2.9432,2.939,2.8714,2.8522,2.8522,2.8522,2.8339,2.8259,2.8459,2.8243,2.8042,2.8179,2.7898,2.7655,2.7655,2.7412,2.719,2.7208,2.7231,2.719,2.7108,2.7149,2.719,2.7126,2.719,2.719,2.7108,2.7149,2.719,2.719,2.6932,2.6726,2.6726,2.6267,2.6198,2.6703,2.6605,2.6703,2.7167,2.719,2.719,2.7108,2.6985,2.682,2.6655,2.6448,2.6282,2.6074,2.5549,2.5232,3.5384,3.5851,3.5948,3.5452,3.5713,3.6149,3.6201,3.6645,3.6812,3.6157,3.6749,3.7087,3.586,3.5835,3.5883,3.5668,3.5163,3.5017,3.5524,3.538,3.5284,3.5572,3.5138,3.5017,3.5524,3.4433,3.3346,3.2521,3.2493,3.2493,3.2493,3.219,3.2291,3.2891,3.2291,3.1964,3.1964,3.171,3.1629,3.1556,3.1105,3.1036,3.1257,3.0798,3.0577,3.06,3.06,3.0467,3.0216,3.0216,3.0216,3.0216,3.0216,3.0216,3.0216,3.0216,3.0216,3.0216,3.0216,3.0352,3.046,2.9632,2.9518,2.9516,2.8754,2.8483,2.8522,2.8522,2.8339,2.8259,2.8459,2.8339,2.8219,2.8219,2.8042,2.7881,2.7921,2.7516,2.719,2.7185,2.7208,2.7149,2.6985,2.7067,2.7272,2.7429,2.733,2.7149,2.6944,2.7067,2.719,2.719,2.719,2.719,2.719,2.6772,2.6743,2.7167,2.6812,2.6766,2.7167,2.719,2.7108,2.6903,2.6903,2.6655,2.624,2.6426,2.6365,2.5906,2.5633,2.5316,3.4891,3.5357,3.5875,3.5776,3.6244,3.6881,3.7344,3.7397,3.739,3.741,3.6866,3.6358,3.6216,3.574,3.5452,3.5572,3.5476,3.5428,3.5572,3.538,3.5284,3.5572,3.5307,3.5138,3.5284,3.4969,3.4384,3.3396,3.2946,3.2768,3.2768,3.2291,3.2167,3.2617,3.2037,3.171,3.171,3.1629,3.1629,3.1607,3.0976,3.0926,3.1307,3.0637,3.0454,3.06,3.06,3.0467,3.0216,3.0216,3.0216,3.0216,3.0216,3.0216,3.0216,3.0216,3.0216,3.0216,3.0216,3.0261,3.019,2.9349,2.9281,2.9329,2.8512,2.8379,2.8522,2.8522,2.8459,2.8419,2.8483,2.8459,2.8419,2.8419,2.8163,2.7921,2.8099,2.7493,2.7003,2.7185,2.7085,2.7067,2.733,2.7249,2.7231,2.7272,2.7231,2.719,2.7149,2.719,2.719,2.719,2.719,2.719,2.719,2.7215,2.7233,2.7231,2.7215,2.7233,2.719,2.719,2.7108,2.6903,2.6757,2.6592,2.649,2.624,2.6115,2.6115,2.5906,2.5633,3.56,3.5913,3.6192,3.5937,3.6315,3.669,3.6682,3.6883,3.7026,3.6819,3.634,3.5987,3.6048,3.5548,3.5259,3.5428,3.5332,3.5284,3.5428,3.5163,3.5066,3.5235,3.5235,3.5235,3.5235,3.5235,3.4823,3.3991,3.3446,3.2996,3.2718,3.224,3.2066,3.2291,3.1834,3.1629,3.1629,3.1732,3.1732,3.1629,3.1484,3.1572,3.1817,3.1304,3.1233,3.1426,0.0,3.0697,3.0537,3.0308,3.0216,3.0216,3.0216,3.0216,3.0216,3.0216,3.0216,3.0216,3.0216,3.0216,3.0123,2.9561,2.9425,2.9395,2.8733,2.849,2.8522,2.8522,2.8522,2.8522,2.8522,2.8522,2.8522,2.8522,2.8283,2.8042,2.8082,2.7534,2.7044,2.7085,2.6921,2.6921,2.7412,2.733,2.7231,2.733,2.733,2.729,2.7231,2.719,2.7231,2.733,2.7272,2.7313,2.7615,2.7655,2.7655,2.7615,2.7655,2.7534,2.7231,2.719,2.7108,2.6903,2.6798,2.6633,2.6426,2.6157,2.6032,2.6074,2.5948,2.578,3.6823,3.6854,3.6694,3.6348,3.6347,3.6273,3.5636,3.5982,3.6323,3.5709,3.5692,3.5743,3.5542,3.5306,3.5138,3.5211,3.4969,3.4872,3.5163,3.4969,3.4775,3.4775,3.5017,3.5163,3.5235,3.5235,3.5017,3.4433,3.3991,3.3396,3.2645,3.2291,3.2015,3.1964,3.1732,3.1629,3.168,3.1863,3.1913,3.1732,3.2157,3.2431,3.2521,3.2207,3.2202,3.2351,3.1479,3.0996,3.079,3.0376,3.017,3.0124,3.0193,3.0216,3.0216,3.0261,3.0216,3.0216,3.0261,3.0261,3.0214,2.9885,2.9746,2.9569,2.9089,2.8729,2.8522,2.8522,2.8562,2.8602,2.8618,2.8657,2.8697,2.8736,2.8538,2.8299,2.8122,2.7655,2.7185,2.7003,2.6798,2.6839,2.7452,2.733,2.7272,2.747,2.747,2.7412,2.7272,2.7231,2.729,2.7534,2.7371,2.7557,2.8179,2.8122,2.8082,2.8219,2.8082,2.78,2.7394,2.7353,2.7272,2.7108,2.7044,2.6798,2.6302,2.6324,2.6199,2.599,2.599,2.5906,3.699,3.6928,3.6813,3.7812,3.7524,3.7149,3.744,3.6944,3.6411,3.6297,3.5849,3.5364,3.5208,3.4979,3.489,3.5138,3.4969,3.4872,3.5163,3.4969,3.4775,3.4775,3.4823,3.4969,3.5187,3.5428,3.5235,3.4433,3.4311,3.3918,3.322,3.2695,3.219,3.168,3.1629,3.1732,3.1913,3.1964,3.2117,3.2342,3.1761,3.1954,3.2796,3.2159,3.1892,3.194,3.1756,0.0,2.978,3.0078,2.9986,2.9665,3.028,3.0397,3.0216,3.0442,3.0397,3.0216,3.0442,3.0532,3.044,2.9973,2.9659,2.9381,2.9089,2.8769,2.8522,2.8522,2.8736,2.9013,2.9184,2.9496,2.9767,2.996,2.9433,2.8988,2.9106,2.8235,2.7429,2.7389,2.7085,2.7067,2.7719,2.7476,2.7272,2.747,2.7371,2.729,2.7452,2.7452,2.7534,2.78,2.78,2.7962,2.8403,2.8578,2.8578,2.8459,2.8443,2.8363,2.8259,2.8099,2.8018,2.7978,2.7753,2.7447,2.7021,2.6839,2.6697,2.6467,2.6467,2.6467,3.7678,3.7591,3.7482,3.8136,3.7993,3.7546,3.6941,3.6465,3.6108,3.592,3.5375,3.5035,3.5583,3.539,3.5238,3.5545,3.5404,3.5211,3.5235,3.4969,3.4775,3.4775,3.492,3.5114,3.538,3.5524,3.5332,3.4677,3.4458,3.404,3.3142,3.2544,3.2117,3.1834,3.1812,3.1964,3.224,3.2392,3.2493,3.2493,3.237,3.2563,3.2846,3.2139,3.194,3.2099,3.1318,3.0698,3.0285,3.0239,3.0168,3.0118,3.0709,3.0802,3.0646,3.0982,3.0892,3.0646,3.1026,3.1092,3.1158,3.1249,3.0711,2.991,2.9492,2.9357,2.9276,2.8928,2.917,2.9535,2.9419,2.969,2.9999,2.9973,2.9433,2.887,2.8657,2.7955,2.7389,2.747,2.729,2.7249,2.78,2.7598,2.7452,2.7655,2.7696,2.7696,2.7696,2.7696,2.776,2.7881,2.7881,2.8042,2.8483,2.8578,2.8618,2.8498,2.8522,2.8403,2.8203,2.8179,2.8219,2.8219,2.7978,2.7696,2.7348,2.7044,2.682,2.6592,2.6592,2.6633,3.8336,3.8343,3.8143,3.8173,3.8062,3.7593,3.6225,3.5843,3.5668,3.5273,3.4864,3.4855,3.5853,3.572,3.5579,3.5949,3.5934,3.5743,3.5332,3.5163,3.5065,3.4993,3.5066,3.5259,3.5668,3.562,3.5428,3.4969,3.458,3.3892,3.2942,3.2443,3.219,3.2117,3.2117,3.224,3.2594,3.2768,3.2818,3.2645,3.2955,3.3078,3.2946,3.2188,3.2078,3.2397,3.0996,3.056,3.0813,3.0491,3.0418,3.0639,3.1291,3.1362,3.1184,3.1649,3.1472,3.1074,3.1516,3.1669,3.1801,3.2438,3.181,3.0716,3.0145,3.0155,3.0194,2.9436,2.9613,2.996,2.9729,2.9883,3.0037,2.9883,2.9457,2.887,2.8243,2.7696,2.7389,2.7574,2.7389,2.7389,2.7881,2.7736,2.7655,2.7921,2.8018,2.8018,2.7921,2.7841,2.7841,2.7881,2.7881,2.8042,2.8483,2.8522,2.8522,2.8522,2.8522,2.8443,2.8243,2.8339,2.8459,2.8618,2.8323,2.8018,2.7713,2.729,2.6985,2.6715,2.6757,2.6839,3.8602,3.8472,3.8324,3.8408,3.7758,3.7017,3.6661,3.5884,3.5124,3.4876,3.4794,3.4926,3.5403,3.543,3.5537,3.5946,3.6376,3.6453,3.5694,3.5746,3.5819,3.5573,3.5114,3.5114,3.5908,3.5716,3.5572,3.5524,3.458,3.3694,3.2942,3.2841,3.2718,3.2443,3.2443,3.2617,3.2891,3.2891,3.3042,3.322,3.2787,3.281,3.3247,3.2236,3.2078,3.242,3.1387,3.0698,0.0,3.0691,3.0699,3.0648,3.185,3.2001,3.1625,3.2351,3.1937,3.1118,3.1737,3.1933,3.2001,3.2332,3.2136,3.167,3.1108,3.0929,3.0669,2.9854,2.9845,3.0075,3.0393,3.0457,3.0368,3.0368,3.0114,2.969,2.887,2.8259,2.7841,2.7841,2.7655,2.7632,2.8099,2.8002,2.7921,2.8139,2.7857,2.7655,2.7881,2.7696,2.7615,2.7881,2.7881,2.8042,2.8483,2.8522,2.8522,2.8522,2.8522,2.8736,2.9223,2.9091,2.9287,2.9908,2.9326,2.8776,2.8403,2.8002,2.7557,2.7149,2.733,2.733,3.9043,3.8898,3.8266,3.8311,3.7841,3.7041,3.6129,3.5287,3.4647,3.4564,3.4465,3.4637,3.5458,3.5487,3.5531,3.5921,3.6056,3.5842,3.5211,3.5211,3.5259,3.5138,3.492,3.4945,3.5273,3.5471,3.562,3.562,3.4775,3.4089,3.3793,3.322,3.2841,3.2718,3.2718,3.2869,3.3142,3.3142,3.3192,3.3292,3.3063,3.3086,3.3269,3.2535,3.2305,3.2443,3.1754,3.1274,0.0,3.1407,3.1481,3.1467,3.2277,3.2351,3.2113,3.2419,3.2069,3.1496,3.2069,3.2307,3.2525,3.3172,3.3318,3.2962,3.1662,3.1317,3.1139,3.0368,3.0343,3.0558,3.0343,3.0152,2.9999,2.9999,2.9806,2.9457,2.8776,2.8419,2.8283,2.8283,2.8059,2.8018,2.8339,2.8219,2.8099,2.8179,2.8059,2.7938,2.7881,2.7655,2.751,2.7655,2.78,2.7921,2.7898,2.8042,2.8082,2.7898,2.8179,2.8354,2.8392,2.8523,2.8793,2.9176,2.8831,2.8694,2.8855,2.8339,2.7921,2.7638,2.7817,2.7736,3.8812,3.8666,3.8048,3.8048,3.7617,3.6887,3.5802,3.4986,3.4397,3.4314,3.423,3.4458,3.5383,3.5473,3.548,3.5815,3.5908,3.5696,3.4993,3.4945,3.4993,3.5017,3.4607,3.4582,3.5102,3.559,3.5812,3.5716,3.5114,3.4726,3.4628,3.3915,3.3369,3.3142,3.317,3.322,3.3292,3.3292,3.3369,3.3519,3.3519,3.3568,3.3744,3.3208,3.2926,3.2783,3.2228,3.1716,0.0,3.1931,3.2087,3.2019,3.2649,3.2766,3.2593,3.2593,3.2201,3.1805,3.2288,3.2593,3.281,3.3581,3.3836,3.3604,3.2066,3.1879,3.1968,3.0958,3.0785,3.0736,3.0213,2.9816,2.9588,2.9588,2.9457,2.9184,2.8697,2.8498,2.8419,2.8419,2.8299,2.8259,2.8459,2.8339,2.8219,2.8219,2.8099,2.7978,2.7921,2.7615,2.7452,2.747,2.7615,2.7638,2.7452,2.7598,2.7638,2.751,2.7898,2.8132,2.8179,2.8264,2.851,2.8938,2.8437,2.8445,2.8963,2.8258,2.7917,2.7881,2.7938,2.7857,3.7458,3.767,3.7811,3.7811,3.7039,3.6231,3.6022,3.5152,3.4356,3.4173,3.4272,3.4497,3.4839,3.519,3.5443,3.55,3.6221,3.6405,3.5332,3.5235,3.5356,3.5572,3.4264,3.4046,3.5808,3.6216,3.6288,3.6003,3.5716,3.5476,3.5235,3.492,3.4457,3.3717,3.3892,3.3767,3.3292,3.3292,3.3519,3.3991,3.3991,3.4286,3.4775,3.4318,3.3887,3.3553,3.2831,3.1884,0.0,3.2201,3.2375,3.2012,3.2988,3.3215,3.3,3.3,3.2438,3.1805,3.2463,3.2723,3.2766,3.3025,3.324,3.3225,3.2337,3.2754,3.3169,3.1672,3.0985,3.0522,3.0099,2.9683,2.9419,2.9419,2.9223,2.9052,2.8831,2.8474,2.8219,2.8219,2.8219,2.8259,2.8459,2.8339,2.8219,2.8219,2.7794,2.7615,2.7881,2.7476,2.7249,2.747,2.733,2.719,2.719,2.719,2.729,2.747,2.7736,2.8339,2.9341,2.8691,2.8775,2.9781,2.8472,2.8064,2.8623,2.7719,2.7498,2.7881,2.7615,2.7655,3.6802,3.7075,3.701,3.6649,3.6518,3.6253,3.5538,3.4778,3.434,3.4714,3.4439,3.437,3.4985,3.4988,3.4921,3.5223,3.5327,3.5187,3.4462,3.4703,3.4848,3.4534,3.4068,3.4348,3.5856,3.5565,3.5508,3.6213,3.6003,3.5812,3.5764,3.5668,3.5284,3.4506,3.4531,3.4482,3.4359,3.4359,3.4384,3.4531,3.4531,3.4628,3.4775,3.4655,3.4534,3.439,3.3908,3.3258,3.2524,3.3197,3.299,3.2302,3.2735,3.281,3.255,3.222,3.1913,3.1761,3.2113,3.2332,3.2593,3.3154,3.3581,3.3724,3.3086,3.2834,3.2557,3.1356,3.056,2.9997,2.9642,2.9293,2.8988,2.8988,2.8855,2.8657,2.8618,2.8379,2.8259,2.8379,2.8299,2.8219,2.8299,2.8259,2.8099,2.7777,2.7736,2.7679,2.7435,2.7412,2.7371,2.729,2.7231,2.719,2.719,2.719,2.7231,2.729,2.7679,2.7917,2.7984,2.7708,2.7903,2.8605,2.7748,2.7676,2.8447,2.8009,2.7891,2.8099,2.7534,2.7574,3.6061,3.6455,3.6444,3.638,3.6263,3.5986,3.544,3.4805,3.4424,3.4522,3.4356,3.4276,3.4358,3.4262,3.435,3.4715,3.4791,3.4775,3.4606,3.4726,3.4557,3.3908,3.4377,3.4996,3.563,3.549,3.5629,3.6355,3.6241,3.6146,3.6146,3.6146,3.5908,3.5404,3.5211,3.4969,3.4775,3.4775,3.4872,3.5114,3.5211,3.5307,3.5404,3.5596,3.5327,3.4768,3.4706,3.3924,0.0,3.3577,3.3244,3.2278,3.2753,3.2766,3.2463,3.2113,3.1981,3.1981,3.2201,3.2376,3.2593,3.3111,3.3471,3.3601,3.3348,3.2864,3.2332,3.1833,3.1145,3.0446,3.004,2.9533,2.9059,2.8745,2.8578,2.8522,2.8522,2.8379,2.8339,2.8379,2.8299,2.8179,2.8099,2.8018,2.7898,2.7696,2.7696,2.7679,2.7476,2.7493,2.7452,2.733,2.7272,2.719,2.719,2.719,2.7231,2.729,2.7574,2.7756,2.7758,2.7334,2.7397,2.806,2.7165,2.7137,2.8109,2.7951,2.7834,2.7735,2.7383,2.7452,0.0,3.5743,3.6113,3.6604,3.6183,3.5616,3.5606,3.5209,0.0,3.3979,3.4147,3.4215,3.3419,3.3458,3.3717,3.4313,3.4626,3.4932,3.5424,3.5055,3.447,3.3869,3.5075,3.5754,3.5351,3.5959,3.6355,3.6405,3.6405,3.6405,3.6405,3.6405,3.6405,3.6405,3.5908,3.5404,3.492,3.492,3.5163,3.5619,3.5906,3.6143,3.6355,3.6824,3.6218,0.0,3.5194,3.4078,3.2179,3.3504,3.3208,3.2045,3.3038,3.3111,3.268,3.2487,3.24,3.2444,3.2636,3.2723,3.2766,3.3068,3.3056,3.2992,3.3318,3.289,3.2386,3.2887,3.234,3.1483,3.0885,3.0139,2.9383,2.8659,2.8522,2.8498,2.8538,2.8546,2.8467,2.8299,2.8243,2.8146,2.7962,2.7696,2.7615,2.7841,2.7696,2.7655,2.7881,2.7696,2.7551,2.751,2.733,2.7231,2.7231,2.7231,2.7249,2.747,2.747,2.7753,2.8379,2.7459,2.7222,2.7975,2.6845,2.6677,2.7546,2.7591,2.7409,2.7003,2.714,2.729,3.4533,0.0,3.5632,3.5383,3.5557,3.579,0.0,3.5207,3.5086,3.5182,3.4936,3.4805,3.5168,3.4555,3.4376,3.5385,3.4944,3.4452,3.4369,3.4083,3.4348,3.56,3.5362,3.5434,3.6272,3.616,3.6113,3.638,3.6546,3.6546,3.6405,3.6405,3.6405,3.6405,3.6263,3.6216,3.6238,3.6121,3.5874,3.559,3.6063,3.6132,3.5776,3.6079,3.6111,3.5896,3.4895,3.4154,3.3644,3.3598,3.3139,3.2549,3.3018,3.2853,3.2487,3.2444,3.24,3.2444,3.2636,3.2723,3.281,3.3386,3.3352,3.3148,3.3505,3.2931,3.2188,3.234,3.1555,3.0543,3.026,2.956,2.8922,2.8586,2.8522,2.8618,2.9067,2.8891,2.8695,2.9022,2.8811,2.845,2.817,2.8099,2.8018,2.7921,2.8002,2.8018,2.7921,2.7978,2.7978,2.7841,2.7574,2.7452,2.7452,2.729,2.7231,2.7272,2.7412,2.7551,2.7736,2.7286,2.7266,2.768,2.7066,2.6807,2.6979,2.6997,2.699,2.7003,2.714,2.7231,3.4556,3.4782,3.4835,3.4824,3.516,3.5459,3.5303,3.5249,3.5223,3.5263,3.5059,3.5039,3.541,3.4788,3.4458,3.539,3.5061,3.464,3.4367,3.4135,3.441,3.5506,3.5263,3.5382,3.6449,3.6315,3.6218,3.638,3.6499,3.6499,3.6405,3.6499,3.642,3.6193,3.6514,3.6734,3.6709,3.6593,3.6442,3.6278,3.6701,3.6548,3.5943,3.6243,3.6142,3.5601,3.4765,3.4356,3.4247,3.3641,3.3258,3.3068,3.3197,3.3068,3.2853,3.2766,3.2853,3.2982,3.2896,3.2896,3.2939,3.3326,3.3386,3.3386,3.3386,3.3122,3.2797,3.2643,3.1822,3.0918,3.0466,2.9796,2.9116,2.902,2.894,2.9044,2.9539,2.9472,2.9206,2.9041,2.8867,2.8633,2.8153,2.8082,2.8082,2.8042,2.8139,2.8179,2.8203,2.8179,2.8179,2.8042,2.7736,2.751,2.751,2.733,2.719,2.719,2.729,2.7371,2.7371,2.7086,2.687,2.6794,2.6384,2.6129,2.6092,2.6147,2.6363,2.669,2.6834,2.7001,3.467,3.4458,3.4138,3.4533,3.4829,3.4952,3.4952,3.5089,3.5156,3.4909,3.5018,3.5148,3.5106,3.4632,3.4419,3.5187,3.5238,3.5052,3.476,3.4624,3.4711,3.5024,3.5189,3.5644,3.6402,3.6452,3.6452,3.6452,3.6452,3.6452,3.6405,3.6593,3.6506,3.6029,3.6739,3.7015,3.6803,3.6756,3.6824,3.698,3.7268,3.7057,3.6308,3.6638,3.6199,3.5046,0.0,0.0,3.4356,3.3768,3.3471,3.3428,3.3471,3.3428,3.3326,3.3154,3.3326,3.3556,3.324,3.3111,3.3111,3.3154,3.3368,3.3556,3.324,3.3292,3.3344,3.3028,3.2329,3.1571,3.0893,3.0171,2.9553,2.9553,2.9504,2.9576,3.013,3.0219,2.9935,2.8956,2.897,2.8851,2.8056,2.7962,2.8042,2.8219,2.8259,2.8299,2.8459,2.8339,2.8259,2.8259,2.7857,2.7574,2.7574,2.733,2.719,2.719,2.719,2.719,2.719,2.6915,2.6543,2.6056,2.566,2.5493,2.5493,2.5488,2.5789,2.6306,2.6456,2.6749,3.3764,3.4286,3.4604,3.4166,3.4192,3.4353,3.4353,3.4353,3.4607,3.54,3.5426,3.5529,3.6068,3.5037,3.4563,3.5966,3.5751,3.529,3.4873,3.5105,3.5537,3.6088,3.5974,3.6188,3.6922,3.6781,3.6662,3.6662,3.6662,3.6593,3.6405,3.6593,3.6684,3.6607,3.6917,3.7201,3.7366,3.7155,3.6831,3.6462,3.6924,3.6873,3.6308,3.607,3.5955,3.5826,0.0,3.4056,3.4397,3.4105,3.3852,3.3683,3.3894,3.3666,3.3154,3.3111,3.3154,3.3197,3.3111,3.3111,3.3111,3.3326,3.3283,3.3197,3.3326,3.2802,3.2154,3.2112,3.1546,3.0868,3.0545,2.9925,2.9333,2.9333,2.9794,3.0399,3.1057,3.0964,3.0616,3.0056,2.9745,2.9279,2.8305,2.8299,2.8443,2.8443,2.8459,2.8459,2.8522,2.8459,2.8459,2.8459,2.8082,2.7841,2.7841,2.7435,2.719,2.719,2.719,2.719,2.719,2.7139,2.7146,2.7242,2.6502,2.6221,2.6409,2.5769,2.5789,2.6306,2.6456,2.6749,3.3967,3.4647,3.5022,3.442,3.466,3.4982,3.4861,3.4861,3.4982,3.5454,3.5467,3.5531,3.5881,3.5404,3.521,3.6071,3.5545,3.4875,3.4585,3.456,3.4851,3.5424,3.5294,3.559,3.6752,3.6687,3.6546,3.6546,3.6615,3.6662,3.6593,3.6922,3.6954,3.6647,3.7232,3.7286,3.6753,3.7286,3.7422,3.7163,3.7422,3.724,3.667,3.6189,3.5835,3.5583,0.0,3.4105,3.4729,3.4147,3.4105,3.4439,3.4314,3.4063,3.3768,3.3513,3.3283,3.3111,3.3111,3.3154,3.3283,3.3368,3.3368,3.3283,3.3368,3.2893,3.2308,3.2179,3.1171,3.0237,3.0531,3.0048,2.9682,3.0514,3.0873,3.1196,3.1714,3.1656,3.1204,3.0253,3.0014,2.9582,2.853,2.8419,2.8522,2.8522,2.8522,2.8522,2.8522,2.8522,2.8459,2.8339,2.8082,2.7841,2.7696,2.7394,2.719,2.719,2.719,2.719,2.719,2.6955,2.6858,2.6955,2.6317,2.6077,2.6268,2.5844,2.593,2.6597,2.6516,2.6749,3.3975,3.4633,3.517,3.4633,3.4968,3.5439,3.5359,3.5211,3.5224,3.5588,3.5642,3.5612,3.5579,3.5624,3.5713,3.5739,3.5432,3.5021,3.4458,3.442,3.4558,3.4781,3.4765,3.5303,3.668,3.664,3.6593,3.664,3.6734,3.6803,3.6803,3.7248,3.7298,3.6832,3.7528,3.7403,3.6332,3.7377,3.7821,3.7691,3.7821,3.7665,3.7194,3.6436,3.5887,3.5443,3.4416,3.4356,3.5003,3.4356,3.4481,3.4962,3.4564,3.4272,3.4063,3.3683,3.3368,3.3111,3.3111,3.3197,3.3368,3.3386,3.3368,3.3368,3.3386,3.2968,3.2395,3.2247,3.1027,2.9951,3.0695,3.044,3.0301,3.1536,3.1833,3.1932,3.2204,3.2111,3.1614,3.0327,3.0153,2.979,2.8691,2.8619,2.8643,2.8522,2.8522,2.8522,2.8522,2.8459,2.8379,2.8219,2.7938,2.7696,2.7452,2.729,2.719,2.719,2.719,2.719,2.719,2.6841,2.6674,2.6714,2.6191,2.5993,2.6163,2.5839,2.6046,2.6711,2.6592,2.6749,3.2841,3.373,3.4817,3.4326,3.4473,3.4777,3.5131,3.4711,3.4674,3.6029,3.6293,3.6094,3.5685,3.5753,3.5627,3.4827,3.5929,3.6386,3.4891,3.5511,3.5887,3.5226,3.5525,3.6121,3.701,3.7062,3.7155,3.7413,3.7201,3.7062,3.7062,3.7366,3.7479,3.7453,3.7736,3.7586,3.6959,3.7586,3.7612,3.7063,3.7639,3.7874,3.7795,3.6645,3.6096,3.5992,3.5105,3.4756,3.4839,3.5168,3.5059,3.4729,3.4481,3.3894,3.3197,3.3154,3.3111,3.3111,3.3111,3.3111,3.3154,3.3368,3.3283,3.3154,3.3368,3.2589,3.1681,3.1638,3.1003,3.0469,3.1047,3.1144,3.1187,3.1564,3.2129,3.2587,3.2413,3.2129,3.161,3.0594,3.0396,2.998,2.8731,2.8907,2.9076,2.857,2.8522,2.8522,2.8522,2.8339,2.8219,2.8219,2.7817,2.7452,2.7231,2.7231,2.719,2.719,2.719,2.719,2.719,2.7144,2.7244,2.7424,2.6777,2.6523,2.672,2.6023,2.5968,2.6513,2.6513,2.6749,3.2804,3.3869,3.5065,3.4869,3.4802,3.4923,3.5422,3.5317,3.5278,3.5683,3.5656,3.5405,3.4947,3.4992,3.5254,3.5496,3.6288,3.6575,3.5513,3.6173,3.6451,3.5641,3.5922,3.6447,3.7268,3.7201,3.7155,3.7248,3.732,3.7366,3.7366,3.726,3.7189,3.7189,3.694,3.6515,3.594,3.7014,3.7014,3.5966,3.7273,3.7717,3.7325,3.6488,3.5913,3.5547,3.5015,3.488,3.5003,3.529,3.5345,3.5263,3.4647,3.4021,3.3428,3.3197,3.3111,3.3111,3.3111,3.3197,3.3326,3.3386,3.3368,3.3326,3.3386,3.2789,3.2124,3.2253,3.1822,3.1393,3.1418,3.1564,3.1808,3.2393,3.2746,3.2939,3.2853,3.2531,3.1994,3.1283,3.0664,2.9952,2.9124,2.8907,2.8739,2.8546,2.8522,2.8459,2.8339,2.8259,2.8099,2.7817,2.7493,2.7249,2.7231,2.719,2.719,2.719,2.719,2.719,2.719,2.719,2.7231,2.729,2.7065,2.7013,2.7232,2.6829,2.6789,2.7111,2.6973,2.7047,3.2901,3.3707,3.4624,3.4893,3.4841,3.4858,3.5453,3.5413,3.5292,3.5561,3.5426,3.5153,3.4842,3.4993,3.5368,3.586,3.6498,3.663,3.5652,3.6293,3.6623,3.576,3.6109,3.6722,3.7453,3.7413,3.7366,3.7366,3.7505,3.7624,3.7624,3.7417,3.7194,3.7011,3.6593,3.6088,3.5372,3.6612,3.6656,3.5398,3.697,3.7344,3.6698,3.6305,3.5765,3.5174,3.4978,3.4921,3.4977,3.5345,3.5426,3.5304,3.4647,3.4063,3.3556,3.324,3.3111,3.3111,3.3111,3.3197,3.3326,3.3326,3.3326,3.3283,3.3172,3.2853,3.2506,3.2593,3.2419,3.2171,3.1976,3.2049,3.2294,3.295,3.3025,3.2939,3.2896,3.2469,3.2031,3.1638,3.0852,3.0042,2.9593,2.9084,2.8691,2.8546,2.8443,2.8339,2.8219,2.8059,2.7857,2.7452,2.7249,2.719,2.719,2.719,2.719,2.719,2.719,2.719,2.719,2.719,2.719,2.719,2.719,2.7272,2.7412,2.7272,2.7272,2.7412,2.7272,2.719,3.3033,3.3165,3.3316,3.4245,3.4339,3.4393,3.5211,3.4768,3.454,3.5734,3.5831,3.5696,3.5595,3.598,3.6133,3.5669,3.6533,3.6744,3.5141,3.5926,3.6399,3.5494,3.6154,3.6929,3.7453,3.7762,3.79,3.79,3.79,3.79,3.79,3.79,3.7612,3.7011,3.6985,3.6524,3.5584,3.6498,3.6498,3.5584,3.6744,3.6893,3.6096,3.6096,3.5652,3.4891,3.5035,3.4936,3.4771,3.5426,3.5304,3.4688,3.4481,3.3979,3.3368,3.3154,3.3111,3.3111,3.3111,3.3111,3.3111,3.3111,3.3111,3.3025,3.2766,3.2723,3.268,3.2487,3.255,3.2723,3.2723,3.2723,3.2766,3.3025,3.2896,3.2636,3.2444,3.1915,3.1522,3.1522,3.0936,3.0316,3.0024,2.9602,2.9124,2.8595,2.8339,2.8219,2.8219,2.7817,2.7412,2.7231,2.719,2.719,2.719,2.719,2.719,2.719,2.719,2.719,2.719,2.719,2.719,2.719,2.719,2.719,2.719,2.719,2.719,2.719,2.719,2.719,3.1522,3.2139,3.2783,3.3316,3.3528,3.3991,3.5332,3.5332,3.5008,3.4883,3.4936,3.4906,3.4591,3.4785,3.5068,3.5362,3.5805,3.5953,3.544,3.6174,3.6481,3.5643,3.6498,3.7108,3.7156,3.7703,3.8076,3.8076,3.8285,3.8376,3.8376,3.7581,3.7052,3.6866,3.6072,3.5531,3.5269,3.6524,3.6625,3.5627,3.7163,3.7059,3.5521,3.5693,3.5208,3.4364,3.4752,3.4756,3.4522,3.4853,3.4579,3.4021,3.3937,3.3598,3.3197,3.3111,3.3111,3.3111,3.3111,3.3111,3.3111,3.3111,3.3111,3.3025,3.2766,3.2593,3.2463,3.2444,3.2444,3.2506,3.268,3.2723,3.2766,3.3025,3.2896,3.268,3.2636,3.2209,3.1826,3.1826,3.1283,3.0598,3.015,2.9639,2.9124,2.8595,2.8459,2.8299,2.8042,2.7598,2.7272,2.7231,2.719,2.719,2.719,2.719,2.719,2.719,2.719,2.719,2.719,2.719,2.719,2.719,2.719,2.719,2.719,2.7067,2.7067,2.719,2.6903,2.6839,3.0818,3.1591,3.2366,3.3264,3.3595,3.398,3.4968,3.5304,3.5141,3.4314,3.4439,3.4564,3.4021,3.4397,3.482,3.4809,3.5342,3.5606,3.5184,3.5927,3.6346,3.5764,3.67,3.7279,3.7119,3.787,3.8304,3.8213,3.844,3.8496,3.8282,3.7563,3.6934,3.6455,3.5805,3.5473,3.5597,3.6534,3.67,3.6098,3.7203,3.6914,3.5414,3.5542,3.5015,3.3937,3.423,3.4356,3.4397,3.4522,3.4314,3.3852,3.3768,3.3513,3.3197,3.3111,3.3111,3.3068,3.2982,3.2939,3.2939,3.2853,3.2853,3.2896,3.255,3.2463,3.2506,3.2444,3.2487,3.255,3.281,3.2766,3.2766,3.2896,3.268,3.2419,3.2419,3.2157,3.1821,3.169,3.1312,3.081,3.0167,2.9714,2.9221,2.869,2.8419,2.8122,2.7679,2.7353,2.719,2.719,2.719,2.719,2.719,2.719,2.719,2.719,2.719,2.719,2.719,2.719,2.719,2.719,2.719,2.7149,2.7067,2.6985,2.6944,2.6985,2.6715,2.6633,3.0682,3.1322,3.1889,3.3635,3.4166,3.4299,3.4376,3.4853,3.4977,3.3894,3.4189,3.4413,3.3827,3.4564,3.5018,3.434,3.5094,3.5462,3.4601,3.5372,3.5973,3.5896,3.6724,3.7281,3.7263,3.8042,3.8477,3.8304,3.8485,3.8407,3.79,3.774,3.7207,3.6071,3.5911,3.5984,3.6234,3.6668,3.686,3.6817,3.7102,3.6706,3.5706,3.56,3.4894,3.3725,3.3683,3.3937,3.4314,3.4314,3.4189,3.3979,3.3725,3.3513,3.3368,3.3154,3.3111,3.3068,3.281,3.2766,3.2723,3.2531,3.255,3.2636,3.2201,3.2332,3.2593,3.2419,3.2506,3.2723,3.2982,3.2853,3.268,3.268,3.2332,3.1981,3.1981,3.1849,3.1616,3.1326,3.1223,3.0925,3.0204,2.9772,2.9383,2.8809,2.8219,2.7719,2.7272,2.7231,2.719,2.719,2.719,2.719,2.719,2.719,2.719,2.719,2.719,2.719,2.719,2.719,2.719,2.719,2.719,2.7108,2.6903,2.6903,2.6779,2.6592,2.655,2.655,2.975,3.0296,3.0917,3.2411,3.3845,3.4735,3.4246,3.4397,3.4397,3.3598,3.3725,3.3937,3.3979,3.4021,3.4272,3.4797,3.4918,3.4986,3.5168,3.5396,3.5571,3.5519,3.6121,3.6609,3.689,3.7695,3.8362,3.8747,3.9024,3.906,3.8952,3.806,3.7439,3.7169,3.625,3.5778,3.5818,3.686,3.7273,3.7102,3.7315,3.7021,3.626,3.5531,3.4778,3.3979,3.3598,3.3513,3.3598,3.3598,3.3496,3.3326,3.324,3.3197,3.3154,3.3111,3.3111,3.3068,3.3025,3.3025,3.3025,3.2939,3.2853,3.268,3.2593,3.2376,3.2201,3.2356,3.2444,3.2506,3.2723,3.2636,3.2487,3.2487,3.2201,3.1981,3.1981,3.1849,3.1669,3.1592,3.1231,3.0936,3.0761,2.9845,2.8896,2.8194,2.7777,2.7574,2.7452,2.729,2.719,2.719,2.719,2.719,2.719,2.719,2.719,2.719,2.719,2.719,2.719,2.719,2.719,2.719,2.719,2.7108,2.6903,2.6738,2.6633,2.6592,2.6218,2.6157,2.8943,2.9609,3.0429,3.198,3.3117,3.3883,3.3803,3.3607,3.3441,3.3274,3.3335,3.3471,3.3725,3.381,3.4021,3.4356,3.4605,3.4812,3.5018,3.5059,3.5249,3.5507,3.6006,3.6392,3.6561,3.7295,3.7909,3.8075,3.832,3.8315,3.8016,3.7419,3.6958,3.6645,3.6062,3.6008,3.6578,3.6805,3.7315,3.8021,3.7288,3.6554,3.5796,3.4978,3.4356,3.392,3.3819,3.3553,3.3265,3.3518,3.3449,3.3111,3.3111,3.3111,3.3111,3.3111,3.3111,3.3068,3.281,3.281,3.2853,3.2636,3.2636,3.268,3.2593,3.2463,3.2376,3.2506,3.255,3.255,3.268,3.255,3.2356,3.2269,3.2025,3.1849,3.1849,3.1761,3.1645,3.138,3.1177,3.0925,3.05,2.9559,2.869,2.8009,2.7655,2.747,2.7371,2.7272,2.719,2.719,2.719,2.719,2.719,2.719,2.719,2.719,2.719,2.719,2.719,2.719,2.719,2.719,2.719,2.7067,2.6779,2.6633,2.6467,2.626,2.6032,2.5948,2.8531,2.9371,3.0384,3.1837,3.2356,3.267,3.3135,3.2797,3.2491,3.288,3.3047,3.3154,3.3368,3.381,3.4063,3.3852,3.4439,3.488,3.4853,3.488,3.5086,3.5629,3.598,3.6248,3.6342,3.6968,3.7335,3.7273,3.74,3.7268,3.6795,3.6659,3.6361,3.5873,3.5764,3.6211,3.728,3.6626,3.7107,3.8747,3.7187,3.596,3.5086,3.4507,3.4021,3.3709,3.3936,3.3669,3.3119,3.3571,3.3495,3.3111,3.3111,3.3111,3.3111,3.3111,3.3111,3.3025,3.2661,3.2636,3.2723,3.2332,3.2419,3.268,3.2574,3.2593,3.268,3.2766,3.2723,3.2705,3.2779,3.2654,3.2391,3.2171,3.1995,3.1837,3.1741,3.1717,3.1573,3.1139,3.11,3.0858,2.9911,2.9229,2.8595,2.7921,2.7655,2.7452,2.7231,2.719,2.719,2.719,2.719,2.719,2.719,2.719,2.719,2.719,2.719,2.7149,2.719,2.7149,2.7108,2.7149,2.719,2.7026,2.6633,2.6592,2.6385,2.5948,2.5906,2.5906,2.8866,3.0078,3.1101,3.1526,3.1689,3.196,3.252,3.2298,3.203,3.2256,3.2751,3.3154,3.3368,3.3937,3.4356,3.4314,3.4895,3.5331,3.5304,3.5304,3.5386,3.5669,3.5751,3.5995,3.651,3.6687,3.6916,3.7416,3.7485,3.7458,3.7377,3.6904,3.6551,3.6469,3.5981,3.594,3.6476,3.6368,3.6961,3.8226,3.7257,3.6193,3.5086,3.4839,3.4314,3.3683,3.3401,3.3187,3.3136,3.3169,3.3144,3.3111,3.3111,3.3111,3.3111,3.3111,3.3111,3.3068,3.3025,3.3025,3.3025,3.2982,3.2853,3.2766,3.2939,3.2723,3.2531,3.2939,3.2723,3.2586,3.3206,3.3064,3.2731,3.2686,3.2551,3.225,3.1813,3.1717,3.1693,3.1621,3.1235,3.0543,2.9337,2.9015,2.8661,2.7725,2.751,2.7452,2.7231,2.719,2.719,2.719,2.719,2.719,2.719,2.719,2.719,2.719,2.7026,2.7026,2.719,2.6862,2.6757,2.6944,2.7108,2.7108,2.6862,2.6674,2.6426,2.6157,2.599,2.5906,2.8798,2.969,3.0512,3.1261,3.1261,3.1434,3.2751,3.2474,3.2209,3.309,3.3357,3.3395,3.3173,3.3604,3.4063,3.4189,3.4714,3.5086,3.5249,3.5426,3.5588,3.5669,3.5858,3.5967,3.609,3.6117,3.6225,3.6455,3.6482,3.6482,3.6482,3.6252,3.6252,3.6578,3.6334,3.64,3.6811,3.6377,3.6087,3.6019,3.6614,3.6189,3.4853,3.4647,3.4272,3.3725,3.3999,3.3733,3.3093,3.342,3.3345,3.3068,3.2939,3.2896,3.2896,3.2896,3.2896,3.2896,3.2896,3.2982,3.3068,3.2939,3.2896,3.2939,3.3068,3.2939,3.2835,3.3025,3.2939,3.2841,3.3021,3.2896,3.272,3.2612,3.239,3.2164,3.1898,3.1761,3.1621,3.1332,3.1023,3.0433,2.9213,2.8964,2.861,2.7644,2.751,2.7452,2.7231,2.719,2.719,2.719,2.719,2.7264,2.7413,2.7395,2.7395,2.7395,2.7228,2.7114,2.7026,2.6757,2.6633,2.6715,2.6798,2.6738,2.6531,2.6407,2.6282,2.6032,2.5948,2.5906,2.8704,2.9127,2.9564,3.069,3.0493,3.0609,3.2673,3.2437,3.2183,3.3449,3.3565,3.3299,3.2967,3.3514,3.4021,3.4147,3.4548,3.4839,3.5003,3.5345,3.5629,3.5669,3.5978,3.6086,3.5858,3.5817,3.575,3.571,3.571,3.571,3.571,3.5873,3.6144,3.6578,3.6605,3.686,3.7402,3.6802,3.5727,3.4314,3.587,3.5902,3.4647,3.4481,3.4147,3.3751,3.4513,3.4178,3.3162,3.3671,3.3571,3.3068,3.2896,3.281,3.281,3.2959,3.3009,3.3009,3.3009,3.3096,3.3139,3.2816,3.281,3.2939,3.2982,3.2982,3.3025,3.3068,3.3025,3.2964,3.2941,3.2878,3.2747,3.2553,3.2421,3.224,3.1962,3.1805,3.1597,3.1187,3.1028,3.0587,2.9553,2.9249,2.8781,2.783,2.7644,2.7493,2.7231,2.719,2.719,2.719,2.7149,2.7273,2.7564,2.7567,2.757,2.7705,2.7491,2.7267,2.7024,2.6864,2.6738,2.6688,2.6738,2.661,2.6324,2.624,2.6115,2.599,2.5948,2.5906,2.8946,2.8665,2.8432,2.9502,2.9204,2.9223,3.154,3.1694,3.1603,3.2489,3.2603,3.2628,3.2948,3.3924,3.4605,3.4397,3.4632,3.4797,3.4797,3.5168,3.5467,3.5669,3.6098,3.6325,3.6086,3.6086,3.5978,3.571,3.571,3.571,3.571,3.6252,3.6578,3.6605,3.6605,3.7091,3.8064,3.7748,3.6435,3.4131,3.5168,3.5226,3.4439,3.4397,3.4147,3.3751,3.4341,3.403,3.3162,3.3671,3.3571,3.3111,3.3068,3.3068,3.3144,3.3671,3.3847,3.3847,3.3847,3.367,3.3394,3.2872,3.2593,3.2487,3.268,3.2723,3.2766,3.3025,3.2896,3.2823,3.33,3.3316,3.3117,3.2824,3.2983,3.2881,3.1902,3.1717,3.1693,3.1669,3.1448,3.108,3.0533,2.9991,2.9324,2.8389,2.8046,2.7719,2.7272,2.719,2.719,2.719,2.7026,2.7107,2.7564,2.744,2.7514,2.7941,2.7788,2.7566,2.729,2.726,2.7151,2.6904,2.7129,2.7061,2.655,2.6324,2.6199,2.6199,2.599,2.5906,2.7959,2.78,2.7857,2.9089,2.8763,2.8762,3.1306,3.1129,3.0898,3.2364,3.2633,3.2814,3.3354,3.3487,3.3773,3.4511,3.4564,3.4729,3.5331,3.5507,3.5629,3.5669,3.6098,3.6218,3.5898,3.6006,3.6086,3.5938,3.5817,3.5873,3.6252,3.6469,3.6795,3.7202,3.7202,3.7138,3.705,3.67,3.5809,3.4418,3.5241,3.5242,3.4605,3.4605,3.4439,3.4173,3.447,3.403,3.3162,3.3671,3.3796,3.3596,3.3421,3.3377,3.3402,3.3557,3.3632,3.3632,3.3632,3.3587,3.3449,3.3143,3.2961,3.2961,3.3157,3.3201,3.3214,3.3126,3.3025,3.2989,3.3189,3.3196,3.3021,3.2626,3.2494,3.2313,3.1809,3.1717,3.1813,3.213,3.1862,3.1447,3.1083,3.069,3.0158,2.916,2.892,2.8785,2.8449,2.8004,2.7713,2.7713,2.7332,2.7326,2.7802,2.7783,2.7785,2.781,2.7855,2.7525,2.6634,2.6756,2.6802,2.6713,2.6801,2.691,2.7061,2.6932,2.6889,2.6889,2.6496,2.6365,2.7615,2.7261,2.7116,2.826,2.7944,2.7958,3.0345,3.0362,3.0352,3.2136,3.2342,3.2486,3.3479,3.3041,3.2964,3.4307,3.4598,3.4812,3.5331,3.5548,3.571,3.579,3.6218,3.6377,3.6058,3.6138,3.6166,3.6126,3.5858,0.0,3.6578,3.6605,3.6754,3.7076,3.7292,3.6871,3.5805,3.5774,3.5245,3.4315,3.493,3.4931,3.4371,3.4371,3.4272,3.4089,3.4093,3.3723,3.3187,3.3872,3.4073,3.3922,3.392,3.3861,3.3772,3.4015,3.3999,3.3954,3.4045,3.3954,3.3794,3.3531,3.3346,3.3252,3.337,3.341,3.3375,3.3133,3.3111,3.3111,3.3111,3.3025,3.2896,3.2705,3.2313,3.1981,3.1937,3.1882,3.1944,3.2328,3.2203,3.1996,3.1639,3.1523,3.108,2.998,2.9805,2.9621,2.9157,2.8661,2.8257,2.7905,2.7619,2.7589,2.7853,2.7832,2.7767,2.7789,2.7764,2.7348,2.6359,2.6648,2.6737,2.6584,2.6758,2.7064,2.7522,2.7392,2.7304,2.7304,2.6802,2.6541,0.0,0.0,0.0,2.7008,2.6705,2.6675,2.8612,2.9273,2.9974,3.1681,3.155,3.1638,3.3202,3.2584,3.2319,3.39,3.4633,3.4991,3.4827,3.5277,3.5723,3.5964,3.6417,3.6721,3.6682,3.6524,3.6325,3.6126,3.5858,3.5981,3.6578,3.6605,3.6522,3.6315,3.6865,3.63,3.4465,3.5226,3.4946,3.3751,3.4189,3.4147,3.3725,3.3725,3.3598,3.3386,3.3197,3.3111,3.3169,3.4274,3.4424,3.3997,3.455,3.457,3.4392,3.4984,3.5043,3.4856,3.509,3.4856,3.4383,3.4102,3.3679,3.3305,3.3228,3.3236,3.3202,3.3139,3.3093,3.3093,3.3093,3.2946,3.2816,3.3032,3.2556,3.2118,3.2337,3.2264,3.2148,3.2148,3.2535,3.2762,3.2227,3.2347,3.2113,3.0877,3.0649,3.0284,2.9316,2.9137,2.8757,2.7762,2.789,2.7964,2.7723,2.7481,2.7545,2.7958,2.7544,2.713,2.6606,2.7064,2.7086,2.6584,2.7064,2.7523,2.798,2.7566,2.7348,2.7348,2.6846,2.6498,2.7118,0.0,0.0,0.0,0.0,0.0,2.7363,2.7406,2.7722,2.9537,2.9891,3.0226,3.1612,3.2085,3.2421,3.2776,3.3257,3.3794,3.4356,3.4814,3.5098,3.5323,3.6168,3.6642,3.6524,3.6563,3.6524,0.0,3.6098,3.6171,3.6578,3.6605,3.6564,3.6522,3.635,3.6002,3.5489,3.5224,3.5011,3.4786,3.4497,3.4314,3.4189,3.4063,3.3852,3.3598,3.324,3.3111,3.3169,3.4274,3.4831,3.5056,3.5207,3.5144,3.4984,3.5319,3.5276,3.5068,3.495,3.4809,3.4597,3.4168,3.3932,3.386,3.4019,3.3958,3.3699,3.3469,3.3239,3.3126,3.3352,3.3395,3.3374,3.3465,3.3012,3.2686,3.2983,3.2993,3.2905,3.2951,3.3078,3.3264,3.341,3.3267,3.296,3.2624,3.2053,3.1565,3.1297,3.0624,2.989,2.906,2.9195,2.8993,2.8254,2.8451,2.8448,2.8002,2.7871,2.7435,2.6628,2.6715,2.6715,2.6584,2.6715,2.6998,2.7478,2.7696,2.8025,2.8399,2.7692,2.725,2.707,2.6377,2.5633,2.5795,0.0,0.0,2.635,2.6417,2.6782,2.831,2.872,2.9208,3.0482,3.0828,3.1045,3.1461,3.1684,3.2324,3.3794,3.4539,3.5038,3.5244,3.6136,3.6642,3.6563,3.6563,3.6484,3.6286,3.6058,3.5994,3.6198,3.6469,3.6455,3.6102,3.5841,3.5633,3.5425,3.5047,3.4878,3.4852,3.4554,3.4314,3.4105,3.3979,3.3768,3.3428,3.3197,3.3219,3.347,3.4123,3.4575,3.4831,3.5056,3.5019,3.486,3.5248,3.5136,3.4905,3.508,3.5011,3.4749,3.4558,3.4414,3.4318,3.4411,3.4184,3.3995,3.374,3.3623,3.3538,3.3657,3.3752,3.372,3.35,3.3287,3.3147,3.3107,3.3331,3.355,3.348,3.3457,3.3568,3.4005,3.3811,3.3597,3.3457,3.3052,3.2582,3.2158,3.1483,3.0674,2.9773,2.9954,2.9771,2.8934,2.9086,2.9083,2.8659,2.822,2.774,2.7195,2.7173,2.7086,2.6911,2.6868,2.6955,2.702,2.7456,2.7849,2.8041,2.7782,2.7462,2.7531,2.6578,2.5688,2.5578,2.5383,0.0,2.5578,2.5938,2.6548,2.7538,2.7804,2.8207,2.9412,2.9028,2.8903,2.9963,3.0039,3.0786,3.3052,3.4251,3.4981,3.5283,3.5936,3.6431,3.657,3.6413,3.6243,3.6126,3.5858,3.571,3.571,3.6225,3.617,3.5453,3.5426,3.5249,3.488,3.4839,3.4714,3.4439,3.4397,3.4147,3.3725,3.3683,3.3522,3.3212,3.3136,3.3395,3.3897,3.3847,3.3872,3.4048,3.4525,3.4545,3.4367,3.491,3.4854,3.4553,3.5255,3.5235,3.4872,3.5066,3.4969,3.4751,3.4509,3.4235,3.4026,3.4023,3.3952,3.3977,3.4026,3.4053,3.398,3.3535,3.3549,3.356,3.3147,3.3568,3.4006,3.3863,3.3758,3.384,3.4113,3.4113,3.4021,3.3838,3.3768,3.3338,3.2391,3.1989,3.1329,3.0186,3.0466,3.0436,2.9646,2.962,2.962,2.9576,2.8702,2.8154,2.8154,2.8111,2.7849,2.7413,2.7304,2.7064,2.6671,2.7129,2.7236,2.7056,2.7429,2.7364,2.7982,2.6891,2.5825,2.5688,2.5633,0.0,2.5328,2.5269,2.5458,2.6087,2.6278,2.6534,2.7226,2.7499,2.7859,2.8475,2.8626,2.9444,3.1599,3.2384,3.304,3.3965,3.4187,3.4732,3.5847,3.5814,3.5813,3.6071,3.5858,3.571,3.571,3.5818,3.5805,3.5629,3.5629,3.5507,3.529,3.5127,3.4921,3.4714,3.434,3.3979,3.3683,3.3513,3.3553,3.3721,3.3269,3.3395,3.3872,3.342,3.3746,3.4575,3.4675,3.4545,3.4363,3.467,3.4764,3.474,3.4885,3.5014,3.509,3.492,3.4823,3.4799,3.4751,3.4557,3.4283,3.4075,3.3814,3.3774,3.4212,3.4484,3.4679,3.4773,3.4506,3.4313,3.4628,3.4531,3.4364,3.4558,3.4288,3.4162,3.4604,3.4359,3.4237,3.4557,3.4102,3.3598,3.3368,3.275,3.1987,3.1113,3.1462,3.1296,3.0144,3.0406,3.0472,3.01,2.9532,2.9205,2.9205,2.8833,2.8396,2.7871,2.7321,2.6994,2.6908,2.7406,2.7508,2.7256,2.7483,2.7531,2.8299,2.7428,2.6807,2.6274,2.6162,0.0,0.0,2.5328,2.4888,2.5217,2.5108,2.5133,2.567,2.5762,2.6074,2.685,2.7088,2.7694,2.9151,3.0853,3.2367,3.3431,3.3643,3.4039,3.4979,3.4596,3.4596,3.5261,3.5547,3.571,3.571,3.571,3.571,3.571,3.5588,3.5507,3.5386,3.4977,3.4839,3.4921,3.423,3.3894,3.3894,3.3556,3.3586,3.3872,3.3319,3.3395,3.3847,3.3294,3.3395,3.3897,3.3897,3.3809,3.377,3.4275,3.4445,3.4443,3.4889,3.4992,3.4969,3.4823,3.4775,3.4775,3.4775,3.4703,3.451,3.4259,3.4214,3.4244,3.451,3.4679,3.4775,3.4631,3.4583,3.4583,3.4583,3.4583,3.4655,3.4775,3.4408,3.4261,3.4726,3.431,3.4113,3.4677,3.4194,3.3684,3.3621,3.304,3.2456,3.1711,3.1882,3.1686,3.0952,3.1127,3.1171,3.093,3.045,3.0188,3.0188,2.9947,2.9598,2.9092,2.8519,2.8126,2.7911,2.8204,2.8018,2.7292,2.7525,2.772,2.8817,2.8138,2.7968,2.7252,2.6916,2.6721,0.0,0.0,0.0,2.4629,2.4313,2.4091,2.4307,2.4104,2.4258,2.5268,2.5506,2.5961,2.7022,2.9259,3.1206,3.2343,3.2533,3.2817,3.3485,3.3135,3.3236,3.4095,3.4873,3.5304,3.5304,3.5561,3.571,3.571,3.5548,3.5426,3.5386,3.4771,3.4688,3.5086,3.4105,3.381,3.4089,3.3683,3.3644,3.3872,3.342,3.3495,3.3847,3.3294,3.3111,3.3111,3.3111,3.3111,3.3194,3.3886,3.4082,3.4099,3.4797,3.4945,3.4823,3.4872,3.4872,3.4872,3.4823,3.4703,3.4607,3.4533,3.4583,3.4655,3.4751,3.4775,3.4727,3.4342,3.4511,3.4703,3.4342,3.4535,3.4775,3.4775,3.4457,3.4261,3.4677,3.4162,3.3915,3.4628,3.4162,3.3717,3.3694,3.322,3.2667,3.2117,3.2015,3.1863,3.1629,3.1629,3.1629,3.1629,3.1258,3.104,3.104,3.0952,3.0712,3.0341,2.9812,2.9375,2.8983,2.9137,2.8709,2.7661,2.7894,2.8151,3.0016,2.9059,2.8685,2.8873,2.7984,2.7145,2.7583,0.0,2.527,2.4158,0.0,2.3865,2.2852,0.0,0.0,2.3983,2.3841,2.4453,2.6777,2.7113,2.7621,2.8975,2.8821,2.9149,3.0677,3.1586,3.2304,3.295,3.358,3.3931,3.3931,3.506,3.571,3.571,3.5669,3.5588,3.5386,3.4936,3.4812,3.5086,3.3979,3.3641,3.4089,3.3918,3.3847,3.3897,3.3847,3.3847,3.3847,3.3294,3.3111,3.3111,3.3111,3.3111,3.3144,3.3482,3.3761,3.405,3.4358,3.463,3.4823,3.5066,3.5163,3.5114,3.4872,3.4462,3.4174,3.4631,3.4438,3.4198,3.4655,3.4775,3.4872,3.4993,3.4921,3.4872,3.5041,3.4921,3.4775,3.4775,3.458,3.4384,3.4433,3.4014,3.3866,3.4384,3.4014,3.3767,3.4014,3.3369,3.2768,3.2493,3.2167,3.1863,3.1629,3.1629,3.1629,3.1629,3.1564,3.1542,3.1542,3.1127,3.0865,3.0821,3.0144,2.9737,2.9672,2.9737,2.9451,2.8929,2.9159,2.9317,3.2877,3.2416,3.2236,3.0713,3.0034,2.9374,2.7963,2.6719,2.5488,2.4074,0.0,0.0,0.0,0.0,0.0,0.0,2.3231,2.3635,2.4634,2.5006,2.605,2.8411,0.0,0.0,2.8502,2.959,3.0458,3.1021,3.1573,3.2386,3.3623,3.4239,3.4885,3.5683,3.5588,3.5548,3.5548,3.5018,3.4853,3.5086,3.4063,3.3683,3.3878,3.4186,3.4135,3.3897,3.4179,3.4135,3.3847,3.3294,3.3111,3.3119,3.342,3.3345,3.3169,3.3737,3.3983,3.4075,3.465,3.4848,3.4823,3.5114,3.5066,3.4969,3.5017,3.4776,3.4486,3.4727,3.4631,3.451,3.4727,3.4775,3.4823,3.492,3.4872,3.4823,3.492,3.4872,3.4775,3.4775,3.458,3.4335,3.4261,3.3915,3.3866,3.4335,3.3866,3.3641,3.4038,3.3519,3.3042,3.2768,3.2443,3.219,3.1863,3.168,3.1629,3.1629,3.1629,3.1629,3.1629,3.1433,3.1323,3.1323,3.1026,3.0867,3.0867,3.0867,3.0708,3.0513,2.9968,2.982,3.5484,3.5297,3.5184,3.2716,3.1881,3.11,2.882,2.7313,2.5957,2.4533,2.3966,0.0,0.0,0.0,2.2723,2.2661,0.0,2.3169,2.3291,2.3639,2.4817,2.7273,2.7271,0.0,0.0,2.7641,2.8432,2.9141,2.9495,3.0529,3.2477,3.3127,3.397,3.5115,3.5346,3.5548,3.571,3.51,3.4895,3.5086,3.4147,3.3725,3.3751,3.4339,3.423,3.3608,3.4324,3.423,3.3558,3.3244,3.3212,3.3345,3.3746,3.3746,3.3646,3.4329,3.4449,3.4413,3.511,3.5235,3.5114,3.509,3.5066,3.5017,3.5066,3.4969,3.4775,3.4775,3.4775,3.4775,3.4775,3.4775,3.4775,3.4775,3.4775,3.4775,3.4775,3.4775,3.4775,3.4775,3.4628,3.4433,3.4211,3.3965,3.3915,3.4261,3.3866,3.3691,3.4038,3.3668,3.3292,3.2942,3.2667,3.2342,3.2015,3.1761,3.1629,3.1629,3.1629,3.1629,3.1629,3.1629,3.1629,3.1629,3.1629,3.1629,3.1629,3.1629,3.1629,3.1556,3.0708,3.0478,0.0,0.0,0.0,3.4957,0.0,0.0,0.0,0.0,2.6883,0.0,0.0,0.0,2.3683,2.3455,2.3326,2.2946,2.2752,0.0,0.0,2.344,2.3456,2.434,2.5033,2.5708,0.0,2.6069,2.6411,0.0,2.7702,2.8294,2.9654,3.1726,3.3122,3.3742,3.5033,3.5669,3.571,3.529,3.5086,3.5086,3.4147,3.3725,3.3709,3.442,3.3965,3.2798,3.4134,3.394,3.2748,3.2982,3.3395,3.3872,3.3897,3.4223,3.4705,3.5052,3.5183,3.5211,3.5471,3.5764,3.5812,3.5066,3.5163,3.5476,3.4969,3.4823,3.4775,3.4775,3.4775,3.4775,3.4775,3.4775,3.4775,3.4775,3.4775,3.4775,3.4775,3.4775,3.4775,3.4775,3.4775,3.4677,3.4433,3.4211,3.4087,3.4113,3.4087,3.4064,3.4113,3.3866,3.3492,3.2942,3.2667,3.2342,3.2015,3.1761,3.1629,3.1629,3.1629,3.1629,3.1629,3.1629,3.1629,3.1629,3.1629,3.1629,3.1629,3.1629,3.1629,3.1629,3.1534,3.1534,0.0,0.0,4.0599,3.8376,0.0,0.0,0.0,0.0,0.0,0.0,0.0,0.0,0.0,2.4904,2.4629,2.3469,2.2896,2.2821,0.0,2.3466,2.334,2.3032,2.3366,2.3736,2.3838,0.0,0.0,0.0,2.562,0.0,2.8733,2.9636,3.1152,3.3441,3.3948,3.4658,3.571,3.5548,3.5223,3.4605,3.4314,3.4058,3.3839,3.4819,3.4679,3.3841,3.5153,3.5007,3.3792,3.404,3.45,3.4981,3.5378,3.5855,3.6282,3.5615,3.5322,3.5236,3.5519,3.5668,3.5668,3.5428,3.5332,3.5307,3.5114,3.492,3.4775,3.4775,3.4775,3.4775,3.4775,3.4775,3.4775,3.4775,3.4775,3.4775,3.4775,3.4775,3.4775,3.4775,3.4775,3.4726,3.4433,3.4482,3.4506,3.4359,3.4014,3.3866,3.4087,3.3717,3.3392,3.3192,3.2919,3.2667,3.2342,3.1885,3.1629,3.1629,3.1629,3.1629,3.1629,3.1629,3.1629,3.1629,3.1629,3.1629,3.1629,3.1629,3.1629,3.1629,3.1629,3.1629,4.4069,4.3767,0.0,4.0421,3.9517,0.0,3.5497,0.0,3.3136,0.0,0.0,0.0,0.0,2.72,2.6211,2.4718,2.3693,2.3039,0.0,2.2958,2.2718,2.2059,2.2454,2.2751,2.2537,2.2605,0.0,0.0,0.0,0.0,0.0,2.8557,3.021,3.2684,3.3721,3.4606,3.5467,3.5467,3.51,3.4397,3.4438,3.4367,3.4186,3.5079,3.5082,3.4388,3.5305,3.5289,3.4612,3.4665,3.5232,3.6157,3.6508,3.6985,3.7387,3.6684,3.6338,3.6173,3.5938,3.5939,3.5963,3.5573,3.5332,3.5235,3.5235,3.5017,3.4775,3.4775,3.4775,3.4775,3.4775,3.4775,3.4775,3.4775,3.4775,3.4775,3.4775,3.4775,3.4775,3.4775,3.4726,3.4628,3.458,3.458,3.458,3.4359,3.4113,3.3965,3.3965,3.3691,3.3442,3.3342,3.3042,3.2718,3.2342,3.1885,3.1629,3.1629,3.1629,3.1629,3.1629,3.1629,3.1629,3.1629,3.1629,3.1629,3.1629,3.1629,3.1629,3.1629,3.1629,3.1629]}]]